[[{"header":{"parameterUnit":"m.s-1","parameterCategory":1,"la1":30.6,"la2":28.766,"lo1":-90.7593,"lo2":-88.6598,"dy":0.0162,"dx":0.0183,"nx":116,"ny":114,"refTime":"2023-09-30T12:00:00:Z","depth":0,"parameterNumber":2,"parameterNumberName":"U-component_of_WINDS"},"data":[0.0,0.0,0.0,0.0,0.0,0.0,0.0,0.0,0.0,0.0,0.0,0.0,0.0,0.0,0.0,0.0,0.0,0.0,0.0,0.0,0.0,0.0,0.0,0.0,0.0,0.0,0.0,0.0,0.0,0.0,0.0,0.0,0.0,0.0,0.0,0.0,0.0,0.0,0.0,0.0,0.0,0.0,0.0,0.0,0.0,0.0,0.0,0.0,0.0,0.0,0.0,0.0,0.0,0.0,0.0,0.0,0.0,0.0,0.0,0.0,0.0,0.0,0.0,0.0,0.0,0.0,0.0,0.0,0.0,0.0,0.0,0.0,0.0,0.0,0.0,0.0,0.0,0.0,0.0,0.0,0.0,0.0,0.0,0.0,0.0,0.0,0.0,0.0,0.0,0.0,0.0,0.0,0.0,0.0,0.0,0.0,0.0,0.0,0.0,0.0,0.0,0.0,0.0,0.0,0.0,0.0,0.0,0.0,0.0,0.0,0.0,0.0,0.0,0.0,0.0,0.0,0.0,0.0,0.0,0.0,0.0,0.0,0.0,0.0,0.0,0.0,0.0,0.0,0.0,0.0,0.0,0.0,0.0,0.0,0.0,0.0,0.0,0.0,0.0,0.0,0.0,0.0,0.0,0.0,0.0,0.0,0.0,0.0,0.0,0.0,0.0,0.0,0.0,0.0,0.0,0.0,0.0,0.0,0.0,0.0,0.0,0.0,0.0,0.0,0.0,0.0,0.0,0.0,0.0,0.0,0.0,0.0,0.0,0.0,0.0,0.0,0.0,0.0,0.0,0.0,0.0,0.0,0.0,0.0,0.0,0.0,0.0,0.0,0.0,0.0,0.0,0.0,0.0,0.0,0.0,0.0,0.0,0.0,0.0,0.0,0.0,0.0,0.0,0.0,0.0,0.0,0.0,0.0,0.0,0.0,0.0,0.0,0.0,0.0,0.0,0.0,0.0,0.0,0.0,0.0,0.0,0.0,0.0,0.0,0.0,0.0,0.0,0.0,0.0,0.0,0.0,0.0,0.0,0.0,0.0,0.0,0.0,0.0,0.0,0.0,0.0,0.0,0.0,0.0,0.0,0.0,0.0,0.0,0.0,0.0,0.0,0.0,0.0,0.0,0.0,0.0,0.0,0.0,0.0,0.0,0.0,0.0,0.0,0.0,0.0,0.0,0.0,0.0,0.0,0.0,0.0,0.0,0.0,0.0,0.0,0.0,0.0,0.0,0.0,0.0,0.0,0.0,0.0,0.0,0.0,0.0,0.0,0.0,0.0,0.0,0.0,0.0,0.0,0.0,0.0,0.0,0.0,0.0,0.0,0.0,0.0,0.0,0.0,0.0,0.0,0.0,0.0,0.0,0.0,0.0,0.0,0.0,0.0,0.0,0.0,0.0,0.0,0.0,0.0,0.0,0.0,0.0,0.0,0.0,0.0,0.0,0.0,0.0,0.0,0.0,0.0,0.0,0.0,0.0,0.0,0.0,0.0,0.0,0.0,0.0,0.0,0.0,0.0,0.0,0.0,0.0,0.0,0.0,0.0,0.0,0.0,0.0,0.0,0.0,0.0,0.0,0.0,0.0,0.0,0.0,0.0,0.0,0.0,0.0,0.0,0.0,0.0,0.0,0.0,0.0,0.0,0.0,0.0,0.0,0.0,0.0,0.0,0.0,0.0,0.0,0.0,0.0,0.0,0.0,0.0,0.0,0.0,0.0,0.0,0.0,0.0,0.0,0.0,0.0,0.0,0.0,0.0,0.0,0.0,0.0,0.0,0.0,0.0,0.0,0.0,0.0,0.0,0.0,0.0,0.0,0.0,0.0,0.0,0.0,0.0,0.0,0.0,0.0,0.0,0.0,0.0,0.0,0.0,0.0,0.0,0.0,0.0,0.0,0.0,0.0,0.0,0.0,0.0,0.0,0.0,0.0,0.0,0.0,0.0,0.0,0.0,0.0,0.0,0.0,0.0,0.0,0.0,0.0,0.0,0.0,0.0,0.0,0.0,0.0,0.0,0.0,0.0,0.0,0.0,0.0,0.0,0.0,0.0,0.0,0.0,0.0,0.0,0.0,0.0,0.0,0.0,0.0,0.0,0.0,0.0,0.0,0.0,0.0,0.0,0.0,0.0,0.0,0.0,0.0,0.0,0.0,0.0,0.0,0.0,0.0,0.0,0.0,0.0,0.0,0.0,0.0,0.0,0.0,0.0,0.0,0.0,0.0,0.0,0.0,0.0,0.0,0.0,0.0,0.0,0.0,0.0,0.0,0.0,0.0,0.0,0.0,0.0,0.0,0.0,0.0,0.0,0.0,0.0,0.0,0.0,0.0,0.0,0.0,0.0,0.0,0.0,0.0,0.0,0.0,0.0,0.0,0.0,0.0,0.0,0.0,0.0,0.0,0.0,0.0,0.0,0.0,0.0,0.0,0.0,0.0,0.0,0.0,0.0,0.0,0.0,0.0,0.0,0.0,0.0,0.0,0.0,0.0,0.0,0.0,0.0,0.0,0.0,0.0,0.0,0.0,0.0,0.0,0.0,0.0,0.0,0.0,0.0,0.0,0.0,0.0,0.0,0.0,0.0,0.0,0.0,0.0,0.0,0.0,0.0,0.0,0.0,0.0,0.0,0.0,0.0,0.0,0.0,0.0,0.0,0.0,0.0,0.0,0.0,0.0,0.0,0.0,0.0,0.0,0.0,0.0,0.0,0.0,0.0,0.0,0.0,0.0,0.0,0.0,0.0,0.0,0.0,0.0,0.0,0.0,0.0,0.0,0.0,0.0,0.0,0.0,0.0,0.0,0.0,0.0,0.0,0.0,0.0,0.0,0.0,0.0,0.0,0.0,0.0,0.0,0.0,0.0,0.0,0.0,0.0,0.0,0.0,0.0,0.0,0.0,0.0,0.0,0.0,0.0,0.0,0.0,0.0,0.0,0.0,0.0,0.0,0.0,0.0,0.0,0.0,0.0,0.0,0.0,0.0,0.0,0.0,0.0,0.0,0.0,0.0,0.0,0.0,0.0,0.0,0.0,0.0,0.0,0.0,0.0,0.0,0.0,0.0,0.0,0.0,0.0,0.0,0.0,0.0,0.0,0.0,0.0,0.0,0.0,0.0,0.0,0.0,0.0,0.0,0.0,0.0,0.0,0.0,0.0,0.0,0.0,0.0,0.0,0.0,0.0,0.0,0.0,0.0,0.0,0.0,0.0,0.0,0.0,0.0,0.0,0.0,0.0,0.0,0.0,0.0,0.0,0.0,0.0,0.0,0.0,0.0,0.0,0.0,0.0,0.0,0.0,0.0,0.0,0.0,0.0,0.0,0.0,0.0,0.0,0.0,0.0,0.0,0.0,0.0,0.0,0.0,0.0,0.0,0.0,0.0,0.0,0.0,0.0,0.0,0.0,0.0,0.0,0.0,0.0,0.0,0.0,0.0,0.0,0.0,0.0,0.0,0.0,0.0,0.0,0.0,0.0,0.0,0.0,0.0,0.0,0.0,0.0,0.0,0.0,0.0,0.0,0.0,0.0,0.0,0.0,0.0,0.0,0.0,0.0,0.0,0.0,0.0,0.0,0.0,0.0,0.0,0.0,0.0,0.0,0.0,0.0,0.0,0.0,0.0,0.0,0.0,0.0,0.0,0.0,0.0,0.0,0.0,0.0,0.0,0.0,0.0,0.0,0.0,0.0,0.0,0.0,0.0,0.0,0.0,0.0,0.0,0.0,0.0,0.0,0.0,0.0,0.0,0.0,0.0,0.0,0.0,0.0,0.0,0.0,0.0,0.0,0.0,0.0,0.0,0.0,0.0,0.0,0.0,0.0,0.0,0.0,0.0,0.0,0.0,0.0,0.0,0.0,0.0,0.0,0.0,0.0,0.0,0.0,0.0,0.0,0.0,0.0,0.0,0.0,0.0,0.0,0.0,0.0,0.0,0.0,0.0,0.0,0.0,0.0,0.0,0.0,0.0,0.0,0.0,0.0,0.0,0.0,0.0,0.0,0.0,0.0,0.0,0.0,0.0,0.0,0.0,0.0,0.0,0.0,0.0,0.0,0.0,0.0,0.0,0.0,0.0,0.0,0.0,0.0,0.0,0.0,0.0,0.0,0.0,0.0,0.0,0.0,0.0,0.0,0.0,0.0,0.0,0.0,0.0,0.0,0.0,0.0,0.0,0.0,0.0,0.0,0.0,0.0,0.0,0.0,0.0,0.0,0.0,0.0,0.0,0.0,0.0,0.0,0.0,0.0,0.0,0.0,0.0,0.0,0.0,0.0,0.0,0.0,0.0,0.0,0.0,0.0,0.0,0.0,0.0,0.0,0.0,0.0,0.0,0.0,0.0,0.0,0.0,0.0,0.0,0.0,0.0,0.0,0.0,0.0,0.0,0.0,0.0,0.0,0.0,0.0,0.0,0.0,0.0,0.0,0.0,0.0,0.0,0.0,0.0,0.0,0.0,0.0,0.0,0.0,0.0,0.0,0.0,0.0,0.0,0.0,0.0,0.0,0.0,0.0,0.0,0.0,0.0,0.0,0.0,0.0,0.0,0.0,0.0,0.0,0.0,0.0,0.0,0.0,0.0,0.0,0.0,0.0,0.0,0.0,0.0,0.0,0.0,0.0,0.0,0.0,0.0,0.0,0.0,0.0,0.0,0.0,0.0,0.0,0.0,0.0,0.0,0.0,0.0,0.0,0.0,0.0,0.0,0.0,0.0,0.0,0.0,0.0,0.0,0.0,0.0,0.0,0.0,0.0,0.0,0.0,0.0,0.0,0.0,0.0,0.0,0.0,0.0,0.0,0.0,0.0,0.0,0.0,0.0,0.0,0.0,0.0,0.0,0.0,0.0,0.0,0.0,0.0,0.0,0.0,0.0,0.0,0.0,0.0,0.0,0.0,0.0,0.0,0.0,0.0,0.0,0.0,0.0,0.0,0.0,0.0,0.0,0.0,0.0,0.0,0.0,0.0,0.0,0.0,0.0,0.0,0.0,0.0,0.0,0.0,0.0,0.0,0.0,0.0,0.0,0.0,0.0,0.0,0.0,0.0,0.0,0.0,0.0,0.0,0.0,0.0,0.0,0.0,0.0,0.0,0.0,0.0,0.0,0.0,0.0,0.0,0.0,0.0,0.0,0.0,0.0,0.0,0.0,0.0,0.0,0.0,0.0,0.0,0.0,0.0,0.0,0.0,0.0,0.0,0.0,0.0,0.0,0.0,0.0,0.0,0.0,0.0,0.0,0.0,0.0,0.0,0.0,0.0,0.0,0.0,0.0,0.0,0.0,0.0,0.0,0.0,0.0,0.0,0.0,0.0,0.0,0.0,0.0,0.0,0.0,0.0,0.0,0.0,0.0,0.0,0.0,0.0,0.0,0.0,0.0,0.0,0.0,0.0,0.0,0.0,0.0,0.0,0.0,0.0,0.0,0.0,0.0,0.0,0.0,0.0,0.0,0.0,0.0,0.0,0.0,0.0,0.0,0.0,0.0,0.0,0.0,0.0,0.0,0.0,0.0,0.0,0.0,0.0,0.0,0.0,0.0,0.0,0.0,0.0,0.0,0.0,0.0,0.0,0.0,0.0,0.0,0.0,0.0,0.0,0.0,0.0,0.0,0.0,0.0,0.0,0.0,0.0,0.0,0.0,0.0,0.0,0.0,0.0,0.0,0.0,0.0,0.0,0.0,0.0,0.0,0.0,0.0,0.0,0.0,0.0,0.0,0.0,0.0,0.0,0.0,0.0,0.0,0.0,0.0,0.0,0.0,0.0,0.0,0.0,0.0,0.0,0.0,0.0,0.0,0.0,0.0,0.0,0.0,0.0,0.0,0.0,0.0,0.0,0.0,0.0,0.0,0.0,0.0,0.0,0.0,0.0,0.0,0.0,0.0,0.0,0.0,0.0,0.0,0.0,0.0,0.0,0.0,0.0,0.0,0.0,0.0,0.0,0.0,0.0,0.0,0.0,0.0,0.0,0.0,0.0,0.0,0.0,0.0,0.0,0.0,0.0,0.0,0.0,0.0,0.0,0.0,0.0,0.0,0.0,0.0,0.0,0.0,0.0,0.0,0.0,0.0,0.0,0.0,0.0,0.0,0.0,0.0,0.0,0.0,0.0,0.0,0.0,-0.5214,-0.2498,0.0,0.0,0.0,0.0,0.0,0.0,0.0,0.0,0.0,0.0,0.0,0.0,0.0,0.0,0.0,0.0,0.0,0.0,0.0,0.0,0.0,0.0,0.0,0.0,0.0,0.0,0.0,0.0,0.0,0.0,0.0,0.0,0.0,0.0,0.0,0.0,0.0,0.3811,0.142,-0.0706,-0.2523,-0.1637,0.1233,0.5593,0.0,0.0,0.0,0.0,0.0,0.0,0.0,0.0,0.0,0.0,0.0,0.0,0.0,0.0,0.0,0.0,0.0,0.0,0.0,0.0,0.0,0.0,0.0,0.0,0.0,0.0,0.0,0.0,0.0,0.0,0.0,0.0,0.0,0.0,0.0,0.0,0.0,0.0,0.0,0.0,0.0,0.0,0.0,0.0,0.0,0.0,0.0,0.0,0.0,0.0,0.0,0.0,0.0,0.0,0.0,0.0,0.0,0.0,0.0,0.0,0.0,0.0,0.0,0.0,0.0,0.0,0.0,0.0,0.0,0.0,-0.6493,-0.5178,0.0,0.0,0.0,0.0,0.0,0.0,0.0,0.0,0.0,0.0,0.0,0.0,0.0,0.0,0.0,0.0,0.0,0.0,0.0,0.0,0.0,0.0,0.0,0.7654,0.7138,0.5717,0.5849,0.5582,0.4566,0.0,0.0,0.0,0.0,0.0,0.3777,0.334,0.2819,0.2213,-0.2569,-0.6554,-0.971,-1.0041,-0.6004,0.1525,0.1525,0.0,0.0,0.0,0.0,0.0,0.0,0.0,0.0,0.0,0.0,0.0,0.0,0.0,0.0,0.0,0.0,0.0,0.0,0.0,0.0,0.0,0.0,0.0,0.0,0.0,0.0,0.0,0.0,0.0,0.0,0.0,0.0,0.0,0.0,0.0,0.0,0.0,0.0,0.0,0.0,0.0,0.0,0.0,0.0,0.0,0.0,0.0,0.0,0.0,0.0,0.0,0.0,0.0,0.0,0.0,0.0,0.0,0.0,0.0,0.0,0.0,0.0,0.0,-1.0076,-1.0031,-0.9015,-0.9127,-0.8755,-0.804,-0.8749,-0.8824,-0.834,-0.6567,0.0,0.0,0.0,0.0,0.0,0.0,0.0,0.0,0.0,0.0,0.0,0.0,0.0,0.0,0.0,0.0,0.0,0.0,0.0,0.7807,0.7614,0.6949,0.6158,0.5247,0.5225,0.4911,0.4139,0.0,0.0,0.0,0.0,0.0,0.2884,0.2522,0.0482,-0.3337,-0.7374,-0.9622,-1.0113,-1.0176,-0.9529,-0.8327,-0.8327,-0.6258,-0.2768,0.0,0.0,0.0,0.0,0.0,0.0,0.0,0.0,0.0,0.0,0.0,0.0,0.0,0.0,0.0,0.0,0.0,0.0,0.0,0.0,0.0,0.0,0.0,0.0,0.0,0.0,0.0,0.0,0.0,0.0,0.0,0.0,0.0,0.0,0.0,0.0,0.0,0.0,0.0,0.0,0.0,-0.4533,-0.7184,0.0,0.0,0.0,0.0,0.0,0.0,0.0,0.0,0.0,0.0,0.0,0.0,0.0,-0.8315,-0.8378,-1.137,-1.282,-1.281,-1.5526,-1.672,-1.6538,-1.5764,-1.5349,-1.5096,-1.2671,0.0,-0.8696,-0.8212,0.0,0.0,0.0,0.0,0.0,0.0,0.0,0.0,0.0,0.0,0.0,0.0,0.0,0.0,0.0,0.0,0.0,0.0,0.0,0.0,0.0,0.4294,0.211,0.1181,-0.1545,-0.2334,-0.024,-0.0417,0.0,0.0,0.0,0.2451,0.1922,0.1776,-0.1504,-0.8046,-1.2179,-1.5473,-1.7952,-1.8261,-1.8425,-1.8425,-1.8425,-1.4018,-0.6675,-0.6675,0.0,0.0,0.0,0.0,0.0,0.0,0.0,0.0,0.0,0.0,0.0,0.0,0.0,0.0,0.0,0.0,0.0,0.0,0.0,0.0,0.0,0.0,0.0,0.0,0.0,0.0,0.0,0.0,0.0,0.0,0.0,0.0,0.0,0.0,0.0,0.0,0.0,0.0,0.0,-0.4381,-0.6966,-0.8427,-0.898,-0.8077,0.0,0.0,0.0,0.0,0.0,0.0,0.0,0.0,0.0,-0.9667,-1.0897,-1.1772,-1.2247,-1.498,-1.6495,-1.6774,-1.8079,-1.8437,-1.7928,-1.7505,-1.669,-1.5495,-1.419,-1.2722,-1.119,-1.0141,-0.9704,-0.9451,0.0,0.0,0.0,0.0,-0.3834,-0.4504,0.0,0.0,0.0,0.0,0.0,0.0,0.0,0.0,0.0,0.0,0.0,0.0,0.4814,0.0364,-0.3027,-0.4053,-0.7659,-0.8117,-0.3938,-0.4224,-0.2634,0.1714,0.1778,0.141,0.0759,-0.1341,-0.5903,-1.2967,-1.7173,-2.0944,-2.4217,-2.46,-2.4788,-2.4788,-2.4788,-1.9624,-1.0951,-1.0951,-0.8521,-0.4612,0.0,0.0,0.0,0.0,0.0,0.0,0.0,0.0,0.0,0.0,0.0,0.0,0.0,0.0,0.0,0.0,0.0,0.0,0.0,0.0,0.0,0.0,0.0,0.0,0.0,0.0,0.0,0.0,0.0,0.0,0.0,0.0,0.0,0.0,0.0,0.0,0.0,-0.7064,-0.9394,-1.0364,-1.1486,-1.1003,0.0,0.0,0.0,0.0,0.0,0.0,-1.1136,-1.0852,-1.1257,-1.2569,-1.4143,-1.5287,-1.5951,-1.7825,-1.8965,-1.9287,-1.9287,-1.8949,-1.8267,-1.8267,-1.7422,-1.5932,-1.5932,-1.5488,-1.4597,-1.2271,-1.133,-1.1222,-0.9931,-0.8502,-0.7155,-0.673,-0.685,-0.7241,0.0,0.0,0.0,0.0,0.0,0.0,0.0,0.0,0.0,0.0,0.0,-0.0204,0.0018,-0.4933,-0.8753,-0.9873,-1.0218,-0.8728,-0.4873,-0.5201,-0.3394,0.1404,0.1186,0.0413,-0.0757,-0.8533,-1.4562,-1.8578,-2.2522,-2.4528,-2.475,-2.4775,-2.4788,-2.4788,-2.4788,-2.1694,-1.6496,-1.6496,-1.3489,-0.8477,-0.5731,0.0,0.0,0.0,0.0,0.0,0.0,0.0,0.0,0.0,0.0,0.0,0.0,0.0,0.0,0.0,0.0,0.0,0.0,0.0,0.0,0.0,0.0,0.0,0.0,0.0,0.0,0.0,0.0,0.0,0.0,0.0,0.0,0.0,0.0,0.0,0.0,0.0,0.0,-1.4173,-1.7052,0.0,0.0,0.0,0.0,-1.1287,-1.1331,-1.2574,-1.5074,-1.5196,-1.6318,-1.8753,-1.8961,-1.902,-1.9085,-1.9209,-1.9268,-1.9287,-1.9287,-1.9287,-1.9214,-1.9214,-1.9168,-1.9058,-1.9058,-1.9058,-1.8709,-1.472,-1.3079,-1.2874,-1.0859,-0.9981,-0.9724,-0.8196,-0.8575,-0.9957,0.0,0.0,0.0,0.0,0.0,0.0,0.0,0.0,0.8187,0.7759,0.2943,-0.0471,-0.055,-0.8624,-1.427,-1.485,-1.8528,-1.8861,-1.4207,-1.1995,-0.8816,-0.4195,-0.1595,-0.2055,-0.5901,-1.3749,-1.8482,-1.9854,-2.3531,-2.5322,-2.5322,-2.5699,-2.5908,-2.5908,-2.5908,-2.4499,-2.207,-2.142,-1.827,-1.3625,-1.2571,-0.9394,0.0,0.0,0.0,0.0,0.0,0.0,0.0,0.0,0.0,0.0,0.0,0.0,0.0,0.0,0.0,0.0,0.0,0.0,0.0,0.0,0.0,0.0,0.0,0.0,0.0,0.0,0.0,0.0,0.0,0.0,0.0,0.0,0.0,0.0,0.0,0.0,0.0,-1.443,-1.601,0.0,-1.55,-1.546,-1.5074,-1.412,-1.5602,-1.6951,-1.7919,-1.7948,-1.8341,-1.9268,-1.9287,-1.9414,-1.9687,-1.9697,-1.9834,-2.0155,-2.0155,-2.0155,-2.0155,-2.0155,-1.9755,-1.9132,-1.9132,-1.8688,-1.79,-1.6437,-1.5976,-1.6013,-1.3962,-1.311,-1.2987,-1.1702,-1.1605,-1.2132,0.0,0.0,0.0,0.0,0.0,0.0,0.0,0.7786,0.7521,0.5357,0.0282,-0.3814,-0.5602,-1.4195,-1.993,-2.0138,-2.4119,-2.3928,-1.7655,-1.5262,-1.1452,-0.5495,-0.4482,-0.7057,-1.3443,-1.8389,-2.1527,-2.2798,-2.4873,-2.5887,-2.59,-2.6311,-2.6499,-2.6499,-2.6499,-2.6129,-2.5475,-2.4781,-2.2259,-1.8656,-1.7679,-1.3677,-0.8153,0.0,0.0,0.0,0.0,0.0,0.0,0.0,0.0,0.0,0.0,0.0,0.0,0.0,0.0,0.0,0.0,0.0,0.0,0.0,0.0,0.0,0.0,0.0,0.0,0.0,0.0,0.0,0.0,0.0,0.0,0.0,0.0,0.0,0.0,-0.9611,-1.2986,-1.4992,-1.6428,-1.7232,-1.7232,-1.7232,-1.7232,-1.7232,-1.8791,-1.9754,-1.9754,-1.9754,-1.9754,-1.9754,-1.9863,-2.0078,-2.0361,-2.0508,-2.0723,-2.1055,-2.1055,-2.1055,-2.1055,-2.1055,-2.0203,-1.883,-1.9617,-1.9096,-1.7686,-1.8524,-1.9016,-1.8987,-1.6197,-1.4894,-1.4471,-1.3776,-1.3507,-1.3534,0.0,0.0,0.0,0.0,0.0,0.0,0.7084,0.7762,0.6319,0.0839,-0.504,-1.0482,-1.513,-2.1503,-2.5485,-2.5655,-2.6267,-2.3048,-1.4599,-1.4471,-1.0885,-0.2238,-0.7439,-1.4451,-2.2855,-2.253,-2.4059,-2.7736,-2.6939,-2.6521,-2.6499,-2.6499,-2.6499,-2.6499,-2.6499,-2.6499,-2.6499,-2.6499,-2.5394,-2.3335,-2.0551,-1.6941,-1.292,0.0,0.0,0.0,0.0,0.0,0.0,0.0,0.0,0.0,0.0,0.0,0.0,0.0,0.0,0.0,0.0,0.0,0.0,0.0,0.0,0.0,0.0,0.0,0.0,0.0,0.0,0.0,0.0,0.0,0.0,0.0,0.0,0.0,-0.7041,-1.2254,-1.6112,-1.6218,-1.881,-2.0605,-2.0625,-2.0625,-2.0635,-2.0644,-2.0644,-2.0644,-2.0644,-2.0557,-2.0527,-2.0527,-2.0908,-2.1092,-2.1092,-2.165,-2.1885,-2.1885,-2.1885,-2.1885,-2.1885,-2.1885,-2.0639,-1.8546,-2.0862,-2.0561,-1.8583,-2.0941,-2.1885,-2.1457,-1.7425,-1.5208,-1.4277,-1.4235,-1.4235,-1.4235,0.0,0.0,0.0,0.0,0.0,0.0,0.7084,0.753,0.7201,0.5363,-0.3204,-0.9862,-1.1744,-2.0444,-2.6355,-2.6926,-2.7194,-2.509,-1.9809,-1.6779,-1.3015,-0.8121,-1.2845,-1.8255,-2.396,-2.6682,-2.8201,-2.8652,-2.7802,-2.7061,-2.6499,-2.6499,-2.6499,-2.6499,-2.6499,-2.6499,-2.6499,-2.6499,-2.6198,-2.5473,-2.3231,-1.9922,-1.6201,0.0,0.0,0.0,0.0,0.0,0.0,0.0,0.0,0.0,0.0,0.0,0.0,0.0,0.0,0.0,0.0,0.0,0.0,0.0,0.0,0.0,0.0,0.0,0.0,0.0,0.0,0.0,0.0,0.0,0.0,0.0,-1.1511,-1.4313,-1.3499,-1.4957,-1.6924,-1.9084,-2.0119,-2.0693,-2.1016,-2.1055,-2.1182,-2.1504,-2.1523,-2.1523,-2.1523,-1.9889,-1.8948,-1.8948,-1.9024,-1.9089,-1.9089,-2.0951,-2.1885,-2.1885,-2.1885,-2.1885,-2.1885,-2.1885,-2.1539,-2.0951,-2.1598,-2.153,-2.096,-2.1648,-2.14,-2.0531,-1.9408,-1.8776,-1.844,-1.7651,-1.736,-1.7,0.0,0.0,0.0,0.0,0.0,0.0,0.6669,0.6955,0.623,0.3622,-0.4432,-1.0971,-1.3729,-2.1853,-2.7219,-2.7487,-2.78,-2.5487,-1.9643,-1.568,-1.4247,-1.5804,-1.8842,-2.2658,-2.7341,-2.9317,-3.0042,-2.9535,-2.8684,-2.7835,-2.7007,-2.7007,-2.6816,-2.6499,-2.6499,-2.6499,-2.6499,-2.6499,-2.6245,-2.5769,-2.4588,-2.1804,-1.825,-1.7642,-1.5407,-1.2523,-1.2284,-1.183,-1.1096,-0.9367,0.0,0.0,0.0,0.0,0.0,0.0,0.0,0.0,0.0,0.0,0.0,0.0,0.0,0.0,0.0,0.0,0.0,0.0,0.0,0.0,0.0,0.0,0.0,0.0,-1.4337,-1.7706,-1.8347,-1.8464,-1.9183,-2.0927,-2.1153,-2.1221,-2.1484,-2.1504,-2.1611,-2.1865,-2.1885,-2.1885,-2.1885,-2.0561,-1.9335,-1.8332,-1.9457,-1.9571,-1.8564,-2.112,-2.2412,-2.2412,-2.2412,-2.2412,-2.2412,-2.2412,-2.1887,-2.0993,-2.1964,-2.1826,-2.1012,-2.1984,-2.2001,-2.1328,0.0,0.0,0.0,0.0,-1.8587,-1.8258,0.0,0.0,0.0,0.0,0.0,0.0,0.5882,0.6073,0.4221,-0.1274,-0.7123,-1.2879,-1.8431,-2.4346,-2.786,-2.7732,-2.7774,-2.4499,-1.6667,-1.2925,-1.4802,-2.3322,-2.4217,-2.6706,-3.1407,-3.0807,-3.0389,-3.0299,-2.9442,-2.8556,-2.7703,-2.7604,-2.7196,-2.6499,-2.6499,-2.6499,-2.6499,-2.6499,-2.599,-2.5158,-2.5052,-2.2983,-1.9922,-1.9692,-1.7028,-1.3461,-1.3954,-1.3459,-1.2559,-1.2108,0.0,0.0,0.0,0.0,0.0,0.0,0.0,0.0,0.0,0.0,0.0,0.0,0.0,0.0,0.0,0.0,0.0,0.0,0.0,0.0,0.0,0.0,0.0,0.0,-1.6341,-1.9119,-2.1673,-2.2031,-2.1992,-2.1894,-2.1885,-2.1904,-2.1953,-2.1953,-2.1982,-2.2021,-2.2031,-2.2031,-2.2031,-2.1843,0.0,0.0,0.0,-2.1269,-1.9121,-2.188,-2.3237,-2.3237,-2.3237,-2.3237,-2.3237,-2.3237,-2.2101,-2.0254,-2.2302,-2.1996,-2.0217,-2.2264,-2.3091,-2.2926,-2.1187,-1.9958,-1.9067,-1.8684,-1.8786,-1.8895,0.0,0.0,0.0,0.0,0.0,0.0,0.4646,0.4811,0.3284,-0.1398,-0.7037,-1.3016,-1.9277,-2.4003,-2.7347,-2.8907,-2.5704,-2.1749,-1.7399,-1.3282,-1.4982,-2.3932,-2.4449,-2.6706,-3.1407,-3.1351,-3.097,-3.0299,-2.9442,-2.8556,-2.7703,-2.704,-2.6658,-2.6499,-2.6499,-2.6499,-2.6499,-2.6499,-2.6383,-2.6129,-2.5335,-2.4555,-2.3735,-2.2107,-2.14,-2.1122,-1.9713,-1.9043,-1.8501,-1.6136,-1.5425,-1.5524,-1.5773,-1.4276,0.0,0.0,0.0,0.0,0.0,0.0,0.0,0.0,0.0,0.0,0.0,0.0,0.0,0.0,0.0,0.0,0.0,0.0,0.0,-1.7008,-1.986,-2.2235,-2.2799,-2.2847,-2.2646,-2.1963,-2.1885,-2.2021,-2.2353,-2.2393,-2.2529,-2.2828,-2.2847,-2.2847,-2.2847,-2.1387,-2.0308,-1.986,-2.0673,-2.0898,-2.0447,-2.289,-2.417,-2.417,-2.417,0.0,-2.417,-2.417,-2.3894,-2.3493,-2.3617,-2.3432,-2.2979,-2.3057,-2.3091,-2.3081,-2.2689,-2.2394,-2.1915,-1.9326,-2.0008,-2.1834,0.0,0.0,0.0,0.0,0.0,0.0,0.3793,0.3632,0.2735,0.0635,-0.4899,-1.0913,-1.6899,-1.9672,-2.2521,-2.6081,-2.1994,-1.9427,-1.9977,-1.8427,-2.0501,-2.7207,-2.7822,-2.9085,-3.1437,-3.1511,-3.1307,-3.0896,-3.0042,-2.9192,-2.833,-2.7484,-2.6871,-2.6499,-2.6499,-2.6499,-2.6499,-2.6499,-2.6499,-2.6477,-2.6251,-2.6137,-2.5958,-2.4164,-2.3671,-2.3772,-2.2766,-2.2242,-2.1746,-1.9784,-1.9146,-1.9211,-1.9382,-1.8573,-1.6797,0.0,0.0,0.0,0.0,0.0,0.0,0.0,0.0,0.0,0.0,0.0,0.0,0.0,0.0,-1.2995,-1.3395,0.0,-1.6405,-1.8267,-1.9856,-2.1414,-2.2872,-2.3091,-2.2945,-2.2568,-2.251,-2.2598,-2.276,-2.2779,-2.2964,-2.3437,-2.3467,-2.3555,-2.3725,-2.2847,-2.1755,-2.0522,-2.1854,-2.204,-2.0801,-2.3178,-2.4414,-2.4414,-2.4414,-2.4414,-2.4414,-2.4414,-2.4414,-2.4404,-2.4199,-2.4102,-2.4082,-2.3867,-2.3608,-2.3467,-2.3467,-2.333,-2.2921,-2.1294,-2.1706,-2.2795,0.0,0.0,0.0,0.0,0.0,0.0,0.2949,0.2481,0.1851,0.1129,-0.3456,-0.8761,-1.4306,-1.5326,-1.7078,-2.0734,-1.7963,-1.7673,-2.16,-2.3212,-2.5991,-3.0481,-3.1212,-3.1511,-3.1511,-3.1511,-3.1511,-3.1511,-3.0524,-2.969,-2.8971,-2.7953,-2.7129,-2.6499,-2.6499,-2.6499,-2.6499,-2.6612,-2.665,-2.67,-2.7253,-2.7444,-2.7322,-2.6103,-2.526,-2.474,-2.4475,-2.4155,-2.3703,-2.2818,-2.245,-2.2365,-2.2365,-2.2453,-2.1402,-1.5208,-1.5592,0.0,0.0,0.0,0.0,0.0,0.0,0.0,0.0,-1.4043,-1.472,-1.4221,-1.4532,-1.5059,-1.5661,-1.5608,-1.6408,-1.9391,-1.9706,-2.0398,-2.2755,-2.3091,-2.3091,-2.3091,-2.3091,-2.313,-2.3218,-2.3218,-2.3447,-2.3877,-2.3906,-2.4062,-2.4394,-2.4502,-2.3615,-2.1702,-2.3615,-2.3722,-2.1753,-2.3693,-2.4631,-2.4631,-2.4631,-2.4631,-2.4631,-2.4631,-2.4631,-2.4668,-2.458,-2.4492,-2.4414,-2.4414,-2.4219,-2.3906,-2.3906,-2.3701,-2.3325,-2.3159,-2.3091,-2.296,0.0,0.0,0.0,0.0,0.0,0.0,0.0,0.0,-0.0379,-0.4416,-0.5819,-0.8611,-1.4354,-1.4936,-1.4294,-1.2776,-1.4712,-1.6905,-1.9092,-2.2221,-2.6208,-3.1183,-3.1466,-3.1511,-3.1511,-3.1511,-3.1511,-3.1511,-2.9919,-2.9097,-2.8971,-2.7384,-2.6589,-2.6499,-2.6499,-2.6499,-2.6524,-2.7014,-2.7228,-2.7278,-2.7795,-2.8009,-2.8009,-2.7837,-2.7176,-2.6243,-2.539,-2.5048,-2.4977,-2.4859,-2.4432,-2.3918,-2.3918,-2.3495,-2.2277,-1.8498,-1.7661,-1.6675,-1.0598,-0.727,-0.6115,-0.8547,-1.1363,-1.3613,0.0,-1.8144,-2.1288,-1.8901,-2.0313,-2.197,-2.2071,-2.2042,-2.2161,-2.2596,-2.2648,-2.2716,-2.3052,-2.3091,-2.3091,-2.3091,-2.3091,-2.3247,-2.3682,-2.3721,-2.3887,-2.4316,-2.4346,-2.4365,-2.4414,-2.4785,-2.4902,-2.4614,-2.5226,-2.5402,-2.5149,-2.544,-2.5538,-2.5538,-2.5538,-2.5538,-2.5538,-2.5538,-2.5538,-2.5518,-2.5166,-2.4775,-2.4414,-2.4414,-2.4385,-2.4346,-2.4346,-2.4316,-2.4134,-2.3374,-2.3091,-2.3091,0.0,0.0,0.0,0.0,0.0,0.0,0.0,0.0,-0.0339,-0.2329,-0.3249,-0.5789,-1.1262,-1.2401,-1.1246,-0.75,-1.0575,-1.4329,-1.8092,-2.1892,-2.6237,-3.1287,-3.1511,-3.1511,-3.1511,-3.1511,-3.1278,-3.0807,-2.9597,-2.8748,-2.8214,-2.704,-2.6499,-2.6499,-2.6499,-2.6499,-2.6524,-2.709,-2.7281,-2.7356,-2.8235,-2.8586,-2.8612,-2.8963,-2.8836,-2.7971,-2.4215,-2.3082,0.0,-2.2589,-2.1734,-2.1389,-2.3794,-2.2696,-2.0194,-1.848,-1.6967,-1.5241,-1.2737,-1.2439,-1.307,-1.4236,-1.685,-1.9164,-1.9346,-2.132,-2.2794,-2.1681,-2.2339,-2.3091,-2.3091,-2.1697,-2.1094,-2.2804,-2.1871,-2.1498,-2.3257,-2.373,-2.3842,-2.3842,-2.2543,-2.1646,-2.1589,-2.3142,-2.3735,-2.2666,-2.3944,-2.4912,-2.5118,-2.5361,-2.5459,-2.5459,-2.5586,-2.5693,-2.5693,-2.5693,-2.5693,-2.5693,-2.5693,-2.5693,-2.5693,-2.5693,-2.5693,-2.5674,-2.5537,-2.5352,-2.5138,-2.5138,-2.5029,-2.4795,-2.4795,-2.4639,-2.4375,-2.3968,-2.3842,-2.3842,0.0,0.0,0.0,0.0,0.0,0.0,0.0,0.0,0.0,0.0,-0.1396,-0.3536,-0.7664,-0.8849,-0.8077,-0.4938,-0.8281,-1.2764,-1.7946,-2.1955,-2.6358,-3.1287,-3.1511,-3.1511,-3.1511,-3.1511,-3.1219,-3.0614,-2.9797,-2.8907,-2.8051,-2.7229,-2.6714,-2.6499,-2.6499,-2.6575,-2.6763,-2.7268,-2.7595,-2.7821,-2.8787,-2.9126,-2.9214,-2.9628,-2.9176,-2.7704,-2.3411,-2.2097,-2.2124,-2.0085,-1.9291,-1.9492,-2.1466,-2.0481,-1.8334,-1.7188,-1.4998,-1.3141,-1.3974,-1.5186,-1.6606,-1.826,-2.0292,-2.2087,-2.2935,-2.3091,-2.3091,-2.3091,-2.3091,-2.313,-2.3257,-2.153,-2.0851,-2.3076,-2.1916,-2.1467,-2.3656,-2.4228,-2.4147,-2.3435,-2.1857,-2.0122,-1.8424,-2.1489,-2.3245,-2.2563,-2.4216,-2.54,-2.5674,-2.5693,-2.5693,-2.5693,-2.5693,-2.5693,-2.5693,-2.5693,-2.5693,-2.5693,-2.5693,-2.5693,-2.5693,-2.5693,-2.5693,-2.5693,-2.5693,-2.5693,-2.5693,-2.5693,-2.5547,-2.5254,-2.5254,-2.5059,-2.4775,-2.4775,-2.4629,-2.4414,0.0,0.0,0.0,0.0,0.0,0.0,0.0,0.0,0.0,0.0,0.0,-0.2889,-0.4217,-0.4394,-0.4799,-0.5768,-0.8987,-1.3247,-1.8608,-2.248,-2.6656,-3.1302,-3.1511,-3.1511,-3.1511,-3.1511,-3.1511,-3.1467,-3.0644,-2.9827,-2.8939,-2.8084,-2.7263,-2.6499,-2.6499,-2.6788,-2.7329,-2.7846,-2.8386,-2.89,-2.9528,-2.9767,-2.9767,-2.9779,-2.7577,-2.4378,-2.3756,-2.3534,-2.2887,-1.8565,-1.85,-1.9667,-1.6339,-1.6636,-1.7637,-1.477,-1.1991,-1.0494,-1.3411,-1.214,-1.1387,-1.7254,-1.8776,-1.9583,-2.244,-2.3091,-2.3091,-2.3091,-2.3091,-2.3227,-2.3691,-2.3711,-2.3809,-2.4297,-2.4326,-2.4261,-2.4385,-2.4414,-2.3464,-2.102,-2.1031,-1.9343,-1.4371,-1.843,-2.2553,-2.5344,-2.5635,-2.5674,-2.5693,-2.5693,-2.5693,-2.5693,-2.5693,-2.5693,-2.5693,-2.5693,-2.5693,-2.5693,-2.5693,-2.5693,-2.5693,-2.5693,-2.5693,-2.5693,-2.5693,-2.5693,-2.5693,-2.5693,-2.5684,-2.5664,-2.5664,-2.5664,-2.5645,-2.5645,-2.5156,-2.4414,0.0,0.0,0.0,0.0,0.0,0.0,0.0,0.0,0.0,0.0,0.0,0.0,0.0,0.0,0.0,0.0,-0.6821,-0.9753,-1.4754,-1.8717,-2.2888,-2.7384,-3.0104,-3.1511,-3.1511,-3.1511,-3.097,-2.9858,-2.9566,-2.8716,-2.7317,-2.704,-2.6748,-2.6499,-2.6499,-2.66,-2.6839,-2.772,-2.821,-2.8461,-2.9415,-2.9792,-2.9553,-2.7032,-2.5144,-2.3133,0.0,-1.5881,-1.5625,-1.3827,-1.3254,-1.3511,-1.4834,-1.3891,-1.1701,-0.8708,-1.0138,-1.2482,-1.149,-1.3402,-1.6169,-1.8184,-2.0177,-2.1894,-2.2853,-2.3091,-2.3179,-2.3516,-2.1765,-2.0311,-2.0732,-1.8966,-1.8233,-2.0625,-1.9662,-2.0094,-2.4273,-2.2026,-2.0957,-2.3656,-2.1151,-1.9832,-2.1505,-2.1669,-2.1425,-2.0709,-2.3812,-2.5693,-2.5693,-2.5693,-2.5693,-2.5693,-2.5693,-2.5693,-2.5693,-2.5693,-2.5693,-2.5693,-2.5693,-2.5693,-2.5693,-2.5693,-2.5693,-2.5693,-2.5693,-2.5693,-2.5693,-2.5693,-2.5693,-2.5693,-2.5693,-2.5693,-2.5693,-2.5693,-2.5499,-2.5245,0.0,0.0,0.0,0.0,0.0,0.0,0.0,0.0,0.0,0.0,0.0,0.0,0.0,0.0,0.0,0.0,0.0,-0.8096,-1.2752,-1.56,-1.893,-2.306,-2.5744,-2.7141,-2.7141,-2.8548,-2.877,-2.7682,-2.8888,-2.8748,-2.7384,-2.7061,-2.6782,-2.6499,-2.6499,-2.66,-2.6839,-2.7507,-2.8047,-2.8324,-2.7751,-2.7639,-2.7391,-2.3671,-2.1243,0.0,-1.3819,-1.1197,-1.0113,-0.924,-0.9286,-0.9908,-1.1104,-0.9731,-0.7739,-0.7953,-1.0195,-1.2641,-1.2864,-1.5762,-1.8937,-1.9994,-2.1697,-2.314,-2.3286,-2.3369,-2.3496,-2.3926,-2.2248,-2.0472,-1.9716,-1.7759,-1.7033,-1.9364,-1.8443,-1.9301,-2.4584,-2.2579,-2.15,-2.4058,-2.1454,-2.0382,-2.2755,-2.2339,-2.1211,-1.9576,-2.2486,-2.4325,-2.4325,-2.4325,-2.4755,-2.5664,-2.5693,-2.5693,-2.5693,-2.5693,-2.5693,-2.5693,-2.5693,-2.5693,-2.5693,-2.5693,-2.5198,-2.441,-2.5314,-2.5189,-2.442,-2.5334,-2.5693,-2.5693,-2.5693,-2.5693,-2.5693,-2.5693,-2.5693,-2.5693,0.0,0.0,0.0,0.0,0.0,0.0,0.0,0.0,0.0,0.0,0.0,0.0,0.0,0.0,0.0,0.0,0.0,0.0,-1.2419,-1.3298,-1.5175,-1.8583,-1.9131,-1.9323,-1.9295,-2.306,-2.4988,-2.492,-2.8088,-2.9215,-2.8343,-2.7504,-2.6732,-2.5984,-2.5984,-2.6273,-2.6728,-2.6766,-2.7358,-2.7987,-2.4534,-2.3438,-2.3516,-1.9805,-1.623,-1.2999,-1.2002,-0.9643,-0.6774,-0.5266,-0.6964,-0.915,-0.5898,-0.5091,-0.6422,-1.1944,-1.1999,-1.1455,-1.6986,-1.8682,-1.9602,-2.2392,-2.311,-2.3237,-2.3691,-2.3809,-2.3887,-2.4095,-2.4017,-2.2979,-2.0031,-1.9336,-1.9478,-2.0208,-2.0197,-2.1396,-2.4975,-2.5392,-2.442,-2.2154,-2.1908,-2.0987,-1.8717,-2.0691,-2.2054,-2.1926,-2.2045,-2.2091,-2.2091,-2.2091,-2.3183,-2.5635,-2.5693,-2.5693,-2.5693,-2.5693,-2.5693,-2.5693,-2.5693,-2.5693,-2.5693,-2.5693,-2.4401,-2.2229,-2.4631,-2.4315,-2.2257,-2.4717,-2.5693,-2.5693,-2.5693,-2.5693,-2.5693,-2.5693,-2.5693,-2.5693,0.0,0.0,0.0,0.0,0.0,0.0,0.0,0.0,0.0,0.0,0.0,0.0,0.0,0.0,0.0,0.0,0.0,0.0,-0.8492,-1.1483,-1.3735,-1.5003,-1.8214,-1.9767,-1.9309,-2.06,-2.0753,-1.9698,-2.0581,-2.0537,-1.9666,-1.9461,-1.9254,-1.9033,-1.8896,-1.8895,-1.9031,-1.9247,-1.9692,-2.0223,-1.9661,-1.9712,-1.9709,-1.602,-1.3655,-1.1927,-0.8943,-0.6934,-0.5664,-0.5564,-0.7452,-1.0011,-1.1023,-1.1954,-1.2402,-1.0901,-1.3838,-1.7263,-1.5769,-1.8579,-2.2146,-2.2935,-2.3379,-2.3652,-2.3769,-2.4033,-2.3563,-2.125,-1.8709,-1.5965,-1.2771,-1.0271,-1.0379,-1.5643,-1.4912,-1.5769,-2.171,-2.0961,-2.0189,-2.1466,-2.1785,-2.2376,-2.3624,-2.4325,-2.3963,-2.2063,-2.367,-2.4736,-2.4736,-2.4736,-2.5034,-2.5674,-2.5693,-2.5693,-2.5693,-2.5693,-2.5693,-2.5693,-2.5693,-2.5693,-2.5693,-2.5693,-2.5353,-2.4755,-2.5392,-2.5334,-2.4765,-2.5412,-2.5693,-2.5693,-2.5693,-2.5693,-2.5693,-2.5693,-2.5693,-2.5693,0.0,0.0,0.0,0.0,0.0,0.0,0.0,0.0,0.0,0.0,0.0,0.0,0.0,0.0,0.0,0.0,0.0,0.0,0.0,-0.8972,-1.0444,-1.0491,-1.3063,-1.4342,-1.3997,-1.6079,-1.667,-1.5613,-1.731,-1.7778,-1.7055,-1.668,-1.6457,-1.6362,-1.6253,-1.6144,-1.6035,-1.618,-1.6534,0.0,0.0,-1.5295,-1.5322,-1.1616,-1.0057,-0.9522,-0.7079,-0.5899,-0.5949,-0.879,-0.9767,-1.0622,-1.5155,-1.5812,-1.4926,-1.5265,-1.7379,-1.9393,-1.8392,-2.0561,-2.3091,-2.3091,-2.3467,-2.3437,-2.1984,-2.1971,-2.1327,-1.8017,-1.5815,-1.3477,-1.0124,-0.8153,-0.881,-1.4214,-1.3986,-1.5109,-2.0731,-2.0278,-1.9916,-2.1351,-2.1615,-2.2787,-2.545,-2.5693,-2.5083,-2.3689,-2.386,-2.4021,-2.4021,-2.4021,-2.4554,-2.5664,-2.5693,-2.5693,-2.5693,-2.5693,-2.5693,-2.5693,-2.5693,-2.5693,-2.5693,-2.5693,-2.5073,-2.4106,-2.5208,-2.5063,-2.4125,-2.5228,-2.5693,-2.5693,-2.5693,-2.5693,-2.5693,-2.5693,-2.5693,-2.5693,0.0,0.0,0.0,0.0,0.0,0.0,0.0,0.0,0.0,0.0,-0.3495,0.0,0.0,0.0,0.0,0.0,0.0,0.0,0.0,0.0,-0.6768,-0.6414,-0.6896,-0.7143,-0.7112,-1.086,-1.2554,-1.1971,-1.5358,-1.6763,-1.6302,-1.5498,-1.5045,-1.4877,-1.4809,-1.4663,-1.4465,-1.4404,-1.4702,-1.4931,-1.1703,-1.0699,-1.0821,0.0,-0.6622,-0.6831,-0.6007,-0.5792,-0.683,-1.2889,-1.2915,-1.1586,-1.8489,-1.8335,-1.6529,-2.1153,-2.1109,-1.9956,-2.1984,-2.2794,-2.3091,-2.3091,-2.3506,-2.314,-2.0284,-1.9592,-1.864,-1.5293,-1.4227,-1.295,-0.9986,-0.9668,-1.1005,-1.4529,-1.5369,-1.6658,-1.9813,-2.0955,-2.1338,-2.0987,-2.1299,-2.2643,-2.5431,-2.5382,-2.5344,-2.5664,-2.367,-2.2385,-2.2385,-2.2385,-2.3426,-2.5645,-2.5693,-2.5693,-2.5693,-2.5693,-2.5693,-2.5693,-2.5693,-2.5693,-2.5693,-2.5693,-2.4478,-2.2514,-2.4746,-2.4439,-2.2588,-2.4775,-2.5693,-2.5693,-2.5693,-2.5693,-2.5693,-2.5693,-2.5693,-2.5693,0.0,0.0,0.0,0.0,0.0,0.0,0.0,0.0,0.0,0.0,-0.3495,-0.3495,0.0,0.0,0.0,0.0,0.0,0.0,0.0,0.0,0.0,-0.6396,-0.681,-0.6899,-0.6628,-0.7693,-0.8059,-0.7678,-0.8355,-0.8628,-0.8538,-0.8156,-0.7969,-0.7914,-0.7531,-0.7462,-0.7588,-0.7138,-0.7369,-0.7931,-0.7066,-0.6978,-0.7285,-0.6634,0.0,0.0,-0.5485,-0.556,-0.69,-1.3484,-1.4905,-1.4937,-2.0791,-2.2774,-2.2491,-2.0139,-2.1501,-2.3115,-2.0227,-2.1219,-2.3091,-2.3091,-2.3686,-2.417,-2.3598,-2.1716,-1.9039,-1.5359,-1.2172,-0.9868,-0.9281,-0.9401,-1.0774,-1.4513,-1.55,-1.5366,-1.4013,-1.8049,-2.0387,-1.8297,-2.0291,-2.2864,-2.546,-2.3812,-2.3426,-2.5528,-2.5305,-2.5034,-2.5034,-2.5034,-2.5228,-2.5684,-2.5693,-2.5693,-2.5693,-2.5693,-2.5693,-2.5693,-2.5693,-2.5693,-2.5693,-2.5693,-2.547,-2.5063,-2.5509,-2.547,-2.5063,-2.5509,-2.5693,-2.5693,-2.5693,-2.5693,-2.5693,-2.5693,-2.5693,-2.5693,0.0,0.0,0.0,0.0,0.0,0.0,0.0,-0.3495,-0.3495,-0.3495,-0.3495,-0.3495,-0.3495,-0.3741,-0.4007,0.0,0.0,0.0,0.0,0.0,0.0,-0.6086,-0.6402,-0.6509,-0.635,-0.6703,-0.6669,-0.6236,0.0,-0.6506,-0.6236,-0.6097,-0.597,-0.5834,-0.5743,-0.5633,-0.5481,-0.5358,-0.5432,-0.5613,-0.548,-0.5556,-0.572,-0.572,0.0,0.0,-0.5504,-0.5527,-0.6269,-1.1052,-1.2452,-1.3533,-2.1471,-2.3963,-2.3235,-1.9716,-2.1164,-2.3175,-1.9658,-2.0841,-2.3091,-2.3091,-2.3623,-2.3115,-1.9448,-1.7786,-1.5408,-0.9947,-0.7422,-0.6196,-0.6196,-0.6435,-0.8434,-1.3945,-1.5199,-1.5861,-1.6901,-1.9506,-2.0857,-1.9629,-2.0813,-2.2232,-2.3577,-2.2616,-2.243,-2.3614,-2.3718,-2.4296,-2.5645,-2.5693,-2.5693,-2.5693,-2.5693,-2.5693,-2.5693,-2.5693,-2.5693,-2.5693,-2.5693,-2.5693,-2.5693,-2.5693,-2.5693,-2.5693,-2.5693,-2.4928,-2.384,-2.5169,-2.4909,-2.386,-2.5189,-2.5693,-2.5693,-2.5693,-2.5693,-2.5693,0.0,0.0,0.0,0.0,0.0,0.0,-0.3555,-0.3495,-0.3495,-0.3495,-0.3495,-0.3495,-0.3495,-0.3689,-0.3952,0.0,0.0,0.0,0.0,0.0,0.0,0.0,0.0,0.0,-0.6045,0.0,0.0,-0.5902,-0.6249,0.0,0.0,0.0,0.0,0.0,-0.5717,-0.5575,-0.5204,-0.5349,-0.533,0.0,0.0,-0.5098,-0.5098,0.0,0.0,0.0,0.0,-0.5406,-0.5613,-0.8593,-0.9613,-1.1125,-1.9785,-2.192,-2.0861,-1.9183,-2.032,-2.1774,-2.011,-2.1337,-2.3091,-2.3091,-2.3467,-2.2159,-1.5927,-1.4239,-1.2231,-0.5985,-0.406,-0.3747,-0.4548,-0.4914,-0.721,-1.3653,-1.4355,-1.5565,-1.9802,-2.0365,-2.062,-2.1413,-2.1537,-2.1898,-2.2661,-2.222,-2.211,-2.2653,-2.2726,-2.3586,-2.5615,-2.5693,-2.5693,-2.5693,-2.5693,-2.5693,-2.5693,-2.5693,-2.5693,-2.5693,-2.5693,-2.5693,-2.5693,-2.5693,-2.5693,-2.5693,-2.5693,-2.4267,-2.2091,-2.4631,-2.4182,-2.2128,-2.4717,-2.5693,-2.5693,-2.5693,-2.5693,-2.5693,0.0,0.0,0.0,0.0,0.0,0.0,-0.3589,-0.3495,-0.3495,-0.3495,-0.3495,-0.3495,-0.3495,-0.3527,-0.3741,0.0,0.0,0.0,0.0,0.0,0.0,0.0,0.0,0.0,0.0,0.0,0.0,-0.5902,-0.5642,0.0,0.0,0.0,0.0,0.0,0.0,-0.5511,-0.5454,-0.5233,0.0,0.0,0.0,0.0,0.0,0.0,0.0,0.0,0.0,-0.4941,-0.5459,-0.8362,-0.9336,-1.0015,-1.3939,-1.5111,-1.5505,-1.7969,-1.889,-1.9631,-2.2039,-2.2872,-2.3091,-2.3091,-2.3467,-2.2833,-1.9227,-1.6106,-1.2975,-0.933,-0.5877,-0.4541,-0.7947,-0.8613,-1.0031,-1.4348,-1.2687,-1.2257,-1.6303,-1.6604,-1.767,-2.1099,-2.1736,-2.2791,-2.514,-2.3267,-2.2866,-2.5179,-2.5353,-2.547,-2.5684,-2.5693,-2.5693,-2.5693,-2.5693,-2.5693,-2.5693,-2.5693,-2.5693,-2.5693,-2.5693,-2.5693,-2.5693,-2.5693,-2.5693,-2.5693,-2.5693,-2.4267,-2.2091,-2.4631,-2.4182,-2.2128,-2.4717,-2.5693,-2.5693,-2.5693,-2.5693,-2.5693,0.0,0.0,0.0,0.0,0.0,0.0,-0.4078,-0.3732,-0.3572,-0.3774,-0.363,-0.3495,-0.3495,-0.3495,-0.372,-0.4252,0.0,0.0,0.0,0.0,0.0,0.0,0.0,0.0,0.0,0.0,-0.531,-0.5424,-0.5284,0.0,0.0,0.0,0.0,0.0,0.0,-0.5406,-0.5262,-0.532,0.0,0.0,0.0,0.0,0.0,0.0,0.0,0.0,0.0,0.0,-0.4841,-0.6147,-0.6601,-0.6815,-0.8139,-0.8677,-0.942,-1.2403,-1.5845,-1.8569,-1.7906,-2.0359,-2.3091,-2.3091,-2.3227,-2.2003,-1.6751,-1.4509,-1.2079,-0.6812,-0.4541,-0.3956,-0.546,-0.5724,-0.6999,-1.0871,-1.044,-1.1735,-1.7811,-1.8582,-1.9883,-2.3578,-2.4124,-2.3992,-2.3455,-2.2486,-2.2329,-2.3323,-2.3417,-2.4106,-2.5635,-2.5693,-2.5693,-2.5693,-2.5693,-2.5693,-2.5693,-2.5693,-2.5693,-2.5693,-2.5693,-2.5693,-2.5693,-2.5693,-2.5693,-2.5693,-2.5693,-2.3493,-2.0213,-2.4116,-2.34,-2.0309,-2.4173,-2.5693,-2.5693,-2.5693,-2.5693,-2.5693,0.0,0.0,0.0,0.0,0.0,-0.4334,-0.416,-0.3856,-0.3734,-0.3972,-0.3788,-0.3643,-0.3643,-0.3559,-0.3689,-0.414,-0.4181,0.0,0.0,0.0,0.0,0.0,0.0,0.0,0.0,0.0,-0.5098,-0.5098,-0.5029,-0.5019,0.0,0.0,-0.5034,-0.4932,0.0,0.0,0.0,0.0,0.0,0.0,0.0,0.0,0.0,0.0,0.0,0.0,0.0,0.0,0.0,0.0,0.0,-0.4694,-0.4781,-0.5022,-0.5886,-0.8827,-1.3329,-1.7108,-1.5864,-1.924,-2.3091,-2.3091,-2.2431,-2.0303,-1.4584,-1.2621,-1.0383,-0.4673,-0.3495,-0.3495,-0.3495,-0.3495,-0.4735,-0.8492,-0.9174,-1.1458,-1.792,-1.8872,-2.0277,-2.3905,-2.4347,-2.3978,-2.3107,-2.3015,-2.3015,-2.3015,-2.3015,-2.3821,-2.5625,-2.5693,-2.5693,-2.5693,-2.5693,-2.5693,-2.5693,-2.5693,-2.5693,-2.5693,-2.5693,-2.5314,-2.4592,-2.5353,-2.5305,-2.4612,-2.5363,-2.3372,-1.9873,-2.4021,-2.3278,-1.9968,-2.4116,-2.5693,-2.5693,-2.5693,-2.5693,-2.5693,0.0,0.0,0.0,0.0,0.0,0.0,-0.3606,-0.3781,-0.3992,-0.3992,-0.3992,-0.3992,-0.3992,-0.3707,-0.3605,-0.388,-0.3911,0.0,0.0,0.0,0.0,0.0,0.0,0.0,0.0,0.0,-0.5098,-0.5098,-0.4832,-0.4842,-0.5098,-0.5108,-0.4887,-0.452,0.0,0.0,0.0,0.0,0.0,0.0,0.0,0.0,-0.4344,0.0,0.0,0.0,0.0,0.0,0.0,0.0,0.0,0.0,0.0,-0.5022,-0.5886,-0.8827,-1.1852,-1.4878,-1.7866,-2.0822,-2.3091,-2.3091,-2.093,-1.7804,-1.4145,-1.1036,-0.7911,-0.4247,-0.3495,-0.3495,-0.3495,-0.3495,-0.4735,-0.8492,-0.9328,-1.0904,-1.4979,-1.5788,-1.725,-2.0718,-2.1159,-2.2351,-2.5363,-2.5664,-2.5664,-2.5664,-2.5664,-2.5664,-2.5693,-2.5693,-2.5693,-2.5693,-2.5693,-2.5693,-2.5693,-2.5693,-2.5693,-2.5693,-2.5693,-2.4401,-2.2,-2.4563,-2.4315,-2.2082,-2.4602,-2.4258,-2.2082,-2.4621,-2.4173,-2.211,-2.4707,-2.5693,-2.5693,-2.5693,-2.5693,-2.5693,0.0,0.0,0.0,0.0,0.0,0.0,-0.4422,-0.4162,-0.3992,-0.3992,-0.3806,-0.3656,-0.3656,-0.3559,-0.3538,-0.3615,-0.3796,0.0,0.0,0.0,0.0,0.0,0.0,0.0,0.0,-0.5098,-0.5098,-0.5098,-0.5019,-0.5019,-0.5098,-0.5103,-0.5024,-0.4903,-0.4706,-0.4577,0.0,0.0,0.0,0.0,0.0,-0.4446,-0.4293,0.0,0.0,0.0,0.0,0.0,0.0,0.0,0.0,0.0,0.0,0.0,0.0,-0.6352,-0.8787,-1.1327,-1.2289,-1.4738,-1.6952,-1.6782,-1.6169,-1.462,-1.0823,-0.9407,-0.7868,-0.4247,-0.3495,-0.3495,-0.3495,-0.3495,-0.4735,-0.8492,-0.9174,-1.1449,-1.7819,-1.8806,-2.0161,-2.3828,-2.426,-2.4636,-2.5606,-2.4125,-2.384,-2.5548,-2.4106,-2.386,-2.5625,-2.5693,-2.5693,-2.5693,-2.5693,-2.5693,-2.5693,-2.5693,-2.5693,-2.5693,-2.5693,-2.4391,-2.1982,-2.4554,-2.4306,-2.2063,-2.4592,-2.4383,-2.2399,-2.4746,-2.4354,-2.2482,-2.4775,-2.5693,-2.5693,-2.5693,-2.5693,-2.5693,0.0,0.0,0.0,0.0,0.0,0.0,-0.4529,-0.4295,-0.4119,-0.4012,-0.3819,-0.3694,-0.3694,-0.3572,-0.3495,-0.3495,-0.3657,0.0,0.0,0.0,0.0,0.0,0.0,0.0,-0.4952,-0.5049,-0.5098,-0.5098,-0.5098,-0.5098,-0.5098,-0.5098,-0.502,-0.4864,-0.461,-0.4502,0.0,0.0,0.0,0.0,-0.4082,-0.4081,-0.3986,0.0,0.0,0.0,0.0,0.0,0.0,0.0,0.0,0.0,0.0,0.0,0.0,0.0,-0.6516,-0.8118,-0.9365,-1.1913,-1.415,-1.3994,-1.3128,-1.1693,-0.9153,-0.7875,-0.6543,-0.4171,-0.4794,-0.5334,-0.3947,-0.4739,-0.5915,-0.6836,-0.9348,-1.238,-1.5844,-1.7828,-1.9752,-2.2091,-2.3408,-2.4552,-2.5606,-2.4277,-2.3992,-2.5557,-2.4248,-2.4021,-2.5625,-2.5693,-2.5693,-2.5693,-2.5693,-2.5693,-2.5693,-2.5693,-2.5693,-2.5693,-2.5693,-2.4391,-2.1982,-2.4554,-2.4306,-2.2063,-2.4592,-2.4929,0.0,-2.5112,-2.4871,-2.3786,-2.517,-2.5693,-2.5693,-2.5693,-2.5693,-2.5693,0.0,0.0,0.0,0.0,0.0,0.0,0.0,-0.4241,-0.4289,-0.4005,-0.3965,-0.3965,-0.3965,-0.3683,-0.3495,-0.3495,-0.3495,0.0,0.0,0.0,0.0,0.0,0.0,0.0,-0.4696,-0.4942,-0.5078,-0.5098,-0.5098,-0.5098,-0.5098,-0.5098,-0.4903,-0.4532,-0.4512,-0.4464,-0.4389,0.0,0.0,0.0,-0.3735,-0.3707,0.0,0.0,0.0,0.0,0.0,0.0,0.0,0.0,0.0,0.0,0.0,0.0,0.0,0.0,0.0,0.0,0.0,-1.143,-1.3539,-1.3539,-1.1263,-0.8927,-0.8621,-0.6406,0.0,-0.4373,-0.7107,-0.8456,-0.5028,-0.7187,-0.8265,-0.4536,-0.997,-1.3632,-1.0711,-1.4241,-1.7024,-1.6872,-1.9769,-2.2754,-2.5169,-2.5615,-2.5693,-2.5693,-2.5693,-2.5693,-2.5693,-2.5693,-2.5693,-2.5693,-2.5693,-2.5693,-2.5693,-2.5693,-2.5625,-2.545,-2.5625,-2.4277,-2.1717,-2.4449,-2.4306,-2.2063,-2.4592,-2.5693,-2.5693,-2.5693,-2.5693,-2.5693,-2.5693,-2.5693,-2.5693,-2.5693,-2.5693,-2.5693,0.0,0.0,0.0,0.0,0.0,0.0,0.0,0.0,0.0,0.0,-0.3623,-0.3623,-0.3623,-0.3546,-0.3495,0.0,0.0,0.0,0.0,0.0,0.0,0.0,0.0,0.0,-0.4696,-0.4755,-0.4903,-0.5098,-0.5098,-0.5098,-0.5098,-0.5098,-0.5049,-0.4952,-0.464,-0.4078,-0.3363,-0.3427,0.0,0.0,-0.3198,-0.3374,0.0,0.0,0.0,0.0,-0.3495,-0.3495,0.0,0.0,0.0,0.0,0.0,0.0,0.0,0.0,-0.5035,-0.5356,-0.6119,0.0,-0.7,-0.7,-0.6629,-0.6041,0.0,-0.4921,-0.5315,-0.7459,-0.8762,-0.9228,-0.837,-1.1007,-1.2157,-0.8664,-1.2139,-1.5041,-1.4288,-1.7586,-1.9359,-1.7411,-2.1624,-2.4218,-2.2903,-2.4573,-2.5693,-2.5693,-2.5693,-2.5693,-2.5693,-2.5693,-2.5693,-2.5693,-2.5693,-2.5693,-2.5693,-2.5693,-2.4726,-2.2838,-2.4755,-2.3323,-1.9144,-2.367,-2.4306,-2.2063,-2.4592,-2.5693,-2.5693,-2.5693,-2.5693,-2.5693,-2.5693,-2.5693,-2.5693,-2.5693,-2.5693,-2.5693,0.0,0.0,0.0,0.0,0.0,0.0,0.0,0.0,0.0,0.0,-0.3495,-0.3495,-0.3495,-0.3495,-0.3495,0.0,0.0,0.0,0.0,0.0,0.0,0.0,0.0,-0.4181,-0.4333,-0.4446,-0.4587,-0.4726,-0.4863,-0.4922,-0.4922,-0.504,-0.5098,-0.5088,-0.4744,-0.4154,-0.3399,-0.3198,-0.3042,-0.2938,-0.2888,0.0,0.0,0.0,0.0,0.0,-0.3495,-0.3495,0.0,-0.3495,-0.3495,-0.3559,0.0,0.0,0.0,0.0,-0.492,-0.5104,-0.526,-0.5164,-0.5356,-0.6714,-0.6049,-0.5311,-0.6225,-0.5586,-0.5689,-0.8818,-0.958,-0.9694,-0.9694,-1.1096,-1.1665,-0.98,-1.1557,-1.3856,-1.582,-1.8085,-1.9051,-1.7649,-2.0167,-2.2003,-2.1917,-2.4182,-2.5693,-2.5693,-2.5693,-2.5693,-2.5693,-2.5693,-2.5693,-2.5693,-2.5693,-2.5693,-2.5693,-2.5693,-2.443,-2.1935,-2.4468,-2.3624,-1.9994,-2.3888,-2.4928,-2.3633,-2.4022,-2.4737,-2.5645,-2.4603,-2.4804,-2.5693,-2.5693,-2.5693,-2.5693,-2.5693,-2.5693,-2.5693,0.0,0.0,0.0,0.0,0.0,0.0,0.0,0.0,0.0,0.0,0.0,0.0,0.0,0.0,0.0,0.0,0.0,0.0,0.0,0.0,0.0,0.0,-0.372,-0.3859,-0.39,-0.4119,-0.4262,-0.4303,-0.4527,-0.4636,-0.4636,-0.4873,-0.4953,-0.4905,-0.4683,-0.4253,-0.3666,-0.3162,-0.2975,-0.2997,-0.2711,0.0,0.0,0.0,0.0,0.0,0.0,0.0,0.0,-0.3495,-0.3495,-0.3552,-0.3832,0.0,0.0,0.0,0.0,0.0,-0.5226,-0.5293,-0.6004,-0.8958,-0.7262,-0.5647,-0.8623,-0.7016,-0.5981,-0.9882,-1.0721,-1.0764,-1.0764,-1.1415,-1.1435,-0.9816,-1.0477,-1.2479,-1.621,-1.7596,-1.8065,-1.7682,-1.8417,-1.9709,-2.169,-2.4182,-2.5693,-2.5693,-2.5693,-2.5693,-2.5693,-2.5693,-2.5693,-2.5693,-2.5693,-2.5693,-2.5693,-2.5693,-2.443,-2.1935,-2.4468,-2.4391,-2.1982,-2.4554,-2.5693,-2.5577,-2.3702,-2.3994,-2.5548,-2.3683,-2.4013,-2.5693,-2.5693,-2.5693,-2.5693,-2.5693,-2.5693,-2.5693,0.0,0.0,0.0,0.0,0.0,0.0,0.0,0.0,0.0,0.0,0.0,0.0,0.0,0.0,0.0,0.0,0.0,0.0,0.0,0.0,0.0,-0.3495,-0.3538,-0.3668,-0.39,-0.3942,-0.4068,-0.4303,-0.4344,-0.4356,-0.4356,-0.4396,-0.4304,-0.4078,-0.4042,-0.3565,-0.2794,-0.2705,-0.2671,-0.2671,-0.2624,0.0,0.0,0.0,0.0,0.0,0.0,0.0,0.0,-0.3495,-0.3495,-0.3513,-0.3559,0.0,0.0,0.0,0.0,0.0,-0.5286,-0.5293,-0.6004,-0.8958,-0.7437,-0.5932,-0.868,-0.7181,-0.6944,-1.3065,-1.449,-1.4655,-1.4655,-1.9344,-2.0297,-1.1306,-1.2589,-1.5132,-1.6304,-1.8777,-1.9718,-1.7611,-2.1556,-2.3774,-2.2073,-2.4182,-2.5693,-2.5693,-2.5693,-2.5693,-2.5693,-2.5693,-2.5693,-2.5693,-2.5693,-2.5693,-2.5693,-2.5693,-2.443,-2.1935,-2.4468,-2.4391,-2.1982,-2.4554,-2.5693,-2.5674,-2.5324,-2.5402,-2.5674,-2.5324,-2.5412,-2.5693,-2.5693,-2.5693,-2.5693,-2.5693,-2.5693,-2.5693,0.0,0.0,0.0,0.0,0.0,0.0,0.0,0.0,0.0,0.0,0.0,0.0,0.0,0.0,0.0,0.0,0.0,0.0,0.0,0.0,-0.3351,-0.3495,-0.3362,-0.3415,-0.3678,-0.3689,-0.3751,-0.3869,-0.387,-0.3939,-0.4089,-0.4087,-0.4018,-0.3886,-0.3557,-0.3186,-0.2807,-0.2663,-0.2705,-0.2875,0.0,0.0,0.0,0.0,0.0,0.0,0.0,0.0,0.0,0.0,-0.3495,-0.3495,-0.3495,0.0,0.0,0.0,0.0,0.0,-0.5293,-0.5293,-0.6402,-1.0988,-0.8685,-0.6892,-1.3002,-0.9678,-0.7675,-1.6034,-1.3457,-1.0962,-1.4975,-1.6496,-1.6272,-1.3591,-1.7572,-2.0517,-1.909,-2.0393,-2.1074,-1.9911,-2.2085,-2.3174,-2.1991,-2.4182,-2.5693,-2.5693,-2.5693,-2.5693,-2.5693,-2.5693,-2.5693,-2.5693,-2.5693,-2.5693,-2.5693,-2.5693,-2.443,-2.1935,-2.4468,-2.4391,-2.1982,-2.4554,-2.5693,-2.5654,-2.4459,-2.4603,-2.5635,-2.4393,-2.4612,-2.5693,-2.5693,-2.5693,-2.5693,-2.5693,-2.5693,-2.5693,0.0,0.0,0.0,0.0,0.0,0.0,0.0,0.0,0.0,0.0,0.0,0.0,0.0,0.0,0.0,0.0,0.0,0.0,0.0,-0.3213,-0.3164,-0.3309,-0.3181,-0.3223,-0.3495,-0.3495,-0.3495,-0.3495,-0.35,-0.3605,-0.38,-0.3746,-0.3716,-0.3691,-0.3151,-0.2906,-0.289,-0.2685,-0.2794,-0.3102,0.0,0.0,0.0,0.0,0.0,0.0,0.0,0.0,0.0,0.0,0.0,0.0,0.0,0.0,0.0,-0.4476,-0.4876,-0.5293,-0.5293,-0.5293,-0.6574,-1.1826,-0.9191,-0.7675,-1.6779,-1.1835,-0.812,-1.8096,-1.3313,-0.9297,-1.5815,-1.3868,-1.2585,-1.649,-2.1356,-2.405,-2.2355,-2.2504,-2.2773,-2.2773,-2.2773,-2.2773,-2.2773,-2.4563,-2.5693,-2.5693,-2.5693,-2.5693,-2.5693,-2.5693,-2.5693,-2.5693,-2.5693,-2.5693,-2.5693,-2.5693,-2.4726,-2.2792,-2.4755,-2.4697,-2.2866,-2.4784,-2.5693,-2.5635,-2.3909,-2.4136,-2.5557,-2.389,-2.4155,-2.5693,-2.5693,-2.5693,-2.5693,-2.5693,-2.5693,-2.5693,0.0,0.0,0.0,0.0,0.0,0.0,0.0,0.0,0.0,0.0,0.0,0.0,0.0,0.0,0.0,0.0,0.0,0.0,0.0,-0.3111,-0.2993,-0.2762,-0.2982,-0.3223,-0.3495,-0.3495,-0.3495,-0.3495,-0.3507,-0.3507,-0.352,-0.3275,-0.3158,-0.3144,-0.2787,-0.2628,-0.2628,-0.2612,-0.2794,-0.3102,-0.3102,0.0,0.0,0.0,0.0,0.0,0.0,0.0,0.0,0.0,0.0,0.0,0.0,0.0,-0.4442,-0.4694,-0.503,-0.5293,-0.5293,-0.5293,-0.6067,-0.9239,-0.7648,-0.7756,-1.7123,-1.2017,-0.8203,-1.8452,-1.7459,-1.5871,-1.9589,-1.7658,-1.6617,-2.0148,-2.1131,-2.236,-2.4994,-2.5411,-2.545,-2.545,-2.545,-2.545,-2.545,-2.5615,-2.5693,-2.5693,-2.5693,-2.5693,-2.5693,-2.5693,-2.5693,-2.5693,-2.5693,-2.5693,-2.5693,-2.5693,-2.5625,-2.545,-2.5625,-2.5625,-2.5412,-2.5625,-2.5693,-2.5684,-2.5538,-2.5548,-2.5684,-2.5538,-2.5557,-2.5693,-2.5693,-2.5693,-2.5693,-2.5693,-2.5693,-2.5693,0.0,0.0,0.0,0.0,0.0,0.0,0.0,0.0,0.0,0.0,0.0,0.0,0.0,0.0,0.0,0.0,0.0,0.0,0.0,-0.2696,-0.2626,-0.2815,-0.2721,-0.2855,-0.3245,-0.3417,-0.3421,-0.3255,-0.363,-0.3819,-0.3806,-0.349,-0.335,-0.332,-0.2823,-0.2604,-0.2617,-0.282,-0.2984,-0.3113,-0.3283,-0.3406,0.0,0.0,0.0,0.0,0.0,0.0,0.0,0.0,-0.3495,-0.3559,-0.3893,-0.4181,-0.4449,-0.4721,-0.5035,-0.5293,-0.5293,-0.5293,-0.6456,-1.1285,-0.8878,-0.7756,-1.7169,-1.3678,-1.1311,-2.1323,-1.7611,-1.305,-1.455,-1.7178,-1.9582,-2.0891,-2.271,-2.4367,-2.5547,-2.5693,-2.5693,-2.5693,-2.5693,-2.5693,-2.5693,-2.5693,-2.5693,-2.5693,-2.5693,-2.5693,-2.5693,-2.5693,-2.5693,-2.5693,-2.5693,-2.5693,-2.5693,-2.5693,-2.5693,-2.5693,-2.5693,-2.5693,-2.5693,-2.5693,-2.5693,-2.5693,-2.5693,-2.5693,-2.5693,-2.5693,-2.5693,-2.5693,-2.5693,-2.5693,-2.5693,-2.5693,-2.5693,-2.5693,0.0,0.0,0.0,0.0,0.0,0.0,0.0,0.0,0.0,0.0,0.0,0.0,0.0,0.0,0.0,0.0,0.0,0.0,-0.2841,-0.2481,-0.2367,-0.2609,-0.2443,-0.2493,-0.2808,-0.3267,-0.3433,-0.329,-0.3845,-0.4086,-0.3985,-0.3656,-0.3495,-0.3475,-0.2986,-0.2805,-0.2895,-0.3127,-0.3223,-0.3237,-0.3426,-0.3495,0.0,0.0,0.0,0.0,0.0,0.0,0.0,0.0,-0.3495,-0.3559,-0.3893,-0.4181,-0.4449,-0.4721,-0.5035,-0.5293,-0.5293,-0.5293,-0.6502,-1.1541,-0.9017,-0.7787,-1.7362,-1.4785,-1.2921,-2.1838,-1.9314,-1.5269,-1.4535,-1.8082,-2.1112,-2.1112,-2.2888,-2.457,-2.5577,-2.5693,-2.5693,-2.5693,-2.5693,-2.5693,-2.5693,-2.5693,-2.5693,-2.5693,-2.5693,-2.5693,-2.5693,-2.5693,-2.5693,-2.5693,-2.5693,-2.5693,-2.5693,-2.5693,-2.5693,-2.5693,-2.5693,-2.5693,-2.5693,-2.5693,-2.5693,-2.5693,-2.5693,-2.5693,-2.5693,-2.5693,-2.5693,-2.5693,-2.5693,-2.5693,-2.5693,-2.5693,-2.5693,-2.5693,0.0,0.0,0.0,0.0,0.0,0.0,0.0,0.0,0.0,0.0,0.0,0.0,0.0,0.0,0.0,0.0,0.0,0.0,-0.2714,-0.251,-0.228,-0.2011,-0.2126,-0.2198,-0.2202,-0.3052,-0.3563,-0.3704,-0.4164,-0.4255,-0.3992,-0.3656,-0.3502,-0.3489,-0.3266,-0.3283,-0.3495,-0.3547,-0.354,-0.3495,-0.3495,-0.3495,-0.3495,0.0,0.0,0.0,0.0,0.0,0.0,0.0,-0.3495,-0.3559,-0.3893,-0.4181,-0.4449,-0.4755,-0.5057,-0.53,-0.5329,-0.5322,-0.6004,-0.8958,-0.7517,-0.7904,-1.7696,-1.4997,-1.2383,-1.9221,-2.3281,-2.4704,-2.1632,-2.1121,-2.114,-2.1121,-2.1117,-2.2187,-2.5275,-2.5693,-2.5693,-2.5693,-2.5693,-2.5693,-2.5693,-2.5693,-2.5693,-2.5693,-2.5693,-2.5693,-2.5693,-2.5693,-2.5693,-2.5693,-2.5693,-2.5693,-2.5693,-2.5693,-2.5693,-2.5693,-2.5693,-2.5693,-2.5693,-2.5693,-2.5693,-2.5693,-2.5693,-2.5693,-2.5693,-2.5693,-2.5693,-2.5693,-2.5693,-2.5693,-2.5693,-2.5693,-2.5693,-2.5693,0.0,0.0,0.0,0.0,0.0,0.0,0.0,0.0,0.0,0.0,0.0,0.0,0.0,0.0,0.0,0.0,0.0,0.0,-0.2561,-0.228,-0.2119,-0.214,-0.2084,-0.2102,-0.2203,-0.2772,-0.3356,-0.3912,-0.3725,-0.3757,-0.3993,-0.3465,-0.3325,-0.3623,-0.6426,-0.6014,-0.3434,-0.6737,-0.6349,-0.3495,-0.3495,-0.3495,-0.3495,0.0,0.0,0.0,0.0,0.0,0.0,0.0,0.0,0.0,-0.3893,-0.4181,-0.4871,-0.7269,-0.6702,-0.5743,-0.783,-0.687,-0.6004,-0.8958,-0.9288,-0.9567,-1.2147,-1.3387,-1.5323,-2.0003,-2.176,-2.1504,-1.8366,-2.1377,-2.3647,-2.1447,-2.2936,-2.4675,-2.5577,-2.5693,-2.5693,-2.5693,-2.5693,-2.5693,-2.5693,-2.5693,-2.5693,-2.5693,-2.5693,-2.5693,-2.5693,-2.5693,-2.5693,-2.5693,-2.5693,-2.5693,-2.5693,-2.5693,-2.5693,-2.5693,-2.5693,-2.5693,-2.5693,-2.5693,-2.5693,-2.5693,-2.5693,-2.5693,-2.5693,-2.5693,-2.5693,-2.5693,-2.5693,-2.5693,-2.5693,-2.5693,-2.5693,-2.5693,0.0,0.0,0.0,0.0,0.0,0.0,0.0,0.0,0.0,0.0,-0.2696,0.0,0.0,0.0,0.0,0.0,0.0,0.0,-0.2501,-0.2232,-0.209,-0.212,-0.1989,-0.2077,-0.2391,-0.2602,-0.2951,-0.3482,-0.3422,-0.347,-0.3636,-0.3382,-0.3235,-0.3296,-0.599,-0.5661,-0.3295,-0.6231,-0.593,-0.3495,-0.3495,-0.3495,-0.3495,0.0,0.0,0.0,0.0,0.0,0.0,0.0,0.0,0.0,-0.3611,-0.4814,-0.632,-0.6993,-0.7057,-0.7273,-0.9063,-0.8254,-0.7913,-1.2201,-1.1688,-1.0454,-1.1722,-1.3829,-1.6913,-2.1897,-2.2936,-2.2326,-2.0426,-2.3156,-2.5072,-2.323,-2.4473,-2.5693,-2.5693,-2.5693,-2.5693,-2.5693,-2.5693,-2.5693,-2.5693,-2.5693,-2.5693,-2.5693,-2.5693,-2.5693,-2.5693,-2.5693,-2.5693,-2.5693,-2.5693,-2.5693,-2.5693,-2.5693,-2.5693,-2.5693,-2.5693,-2.5693,-2.5693,-2.5693,-2.5693,-2.5693,-2.5693,-2.5693,-2.5693,-2.5693,-2.5693,-2.5693,-2.5693,-2.5693,-2.5693,-2.5693,-2.5693,-2.5693,0.0,0.0,0.0,0.0,0.0,0.0,0.0,0.0,0.0,0.0,-0.2696,-0.2696,0.0,0.0,0.0,0.0,0.0,0.0,0.0,-0.2303,-0.213,-0.2002,-0.1877,-0.2058,-0.261,-0.2436,-0.2436,-0.2614,-0.3118,-0.3247,-0.3024,-0.3269,-0.314,-0.2735,-0.365,-0.3703,-0.3144,-0.3818,-0.3853,-0.3464,-0.3464,-0.3453,-0.3432,-0.3453,0.0,0.0,0.0,0.0,0.0,0.0,0.0,0.0,-0.318,-0.5561,-0.7924,-0.5229,-0.6755,-0.9361,-0.967,-0.9542,-1.0716,-1.6462,-1.3801,-1.093,-1.541,-1.6187,-1.783,-2.4355,-2.5499,-2.5363,-2.5645,-2.5693,-2.5693,-2.5693,-2.5693,-2.5693,-2.5693,-2.5693,-2.5693,-2.5693,-2.5693,-2.5693,-2.5693,-2.5693,-2.5693,-2.5693,-2.5693,-2.5693,-2.5693,-2.5693,-2.5693,-2.5693,-2.5693,-2.5693,-2.5693,-2.5693,-2.5693,-2.5693,-2.5693,-2.5693,-2.5693,-2.5693,-2.5693,-2.5693,-2.5693,-2.5693,-2.5693,-2.5693,-2.5693,-2.5693,-2.5693,-2.5693,-2.5693,-2.5693,-2.5693,-2.5693,0.0,0.0,0.0,0.0,0.0,0.0,0.0,0.0,0.0,0.0,0.0,0.0,0.0,0.0,0.0,0.0,0.0,0.0,0.0,-0.2218,-0.2032,-0.1999,-0.1877,-0.1861,-0.1997,-0.1952,-0.1952,-0.1997,-0.2213,-0.2351,-0.2397,-0.2453,-0.2551,-0.2869,-0.6612,-0.6361,-0.3342,-0.7102,-0.6563,-0.3191,-0.3191,-0.3057,-0.2896,-0.31,-0.3027,0.0,0.0,0.0,0.0,0.0,0.0,0.0,-0.3113,-0.4005,-0.5426,-0.7298,-0.8542,-0.9866,-1.2458,-1.1412,-0.9941,-1.1293,-1.0946,-1.2567,-2.1482,-2.1425,-2.0685,-2.4829,-2.3772,-2.2805,-2.5265,-2.5693,-2.5693,-2.5693,-2.5693,-2.5693,-2.5693,-2.5693,-2.5693,-2.5693,-2.5693,-2.5693,-2.5693,-2.5693,-2.5693,-2.5693,-2.5693,-2.5693,-2.5693,-2.5693,-2.5693,-2.5693,-2.5693,-2.5693,-2.5693,-2.5693,-2.5693,-2.5693,-2.5693,-2.5693,-2.5693,-2.5693,-2.5693,-2.5693,-2.5693,-2.5693,-2.5693,-2.5693,-2.5693,-2.5693,-2.5693,-2.5693,-2.5693,-2.5693,-2.5693,-2.5693,0.0,0.0,0.0,0.0,0.0,0.0,0.0,0.0,0.0,0.0,0.0,0.0,0.0,0.0,0.0,0.0,0.0,0.0,0.0,0.0,-0.1977,-0.1906,-0.1836,-0.1803,-0.1803,-0.1803,-0.1803,-0.1803,-0.1873,-0.1939,-0.2011,-0.2143,-0.2226,-0.2388,-0.5094,-0.4942,-0.2842,-0.5455,-0.5143,-0.2896,-0.2805,-0.2715,-0.2659,-0.2738,-0.2701,-0.2621,-0.2801,0.0,0.0,0.0,0.0,0.0,0.0,0.0,-0.6129,-0.6277,-0.7645,-0.9482,-1.1212,-1.165,-1.2096,-1.3873,-1.5867,-1.8442,-2.2366,-2.3136,-2.3538,-2.5314,-2.4415,-2.3792,-2.5392,-2.5693,-2.5693,-2.5693,-2.5693,-2.5693,-2.5693,-2.5693,-2.5693,-2.5693,-2.5693,-2.5693,-2.5693,-2.5693,-2.5693,-2.5693,-2.5693,-2.5693,-2.5693,-2.5693,-2.5693,-2.5693,-2.5693,-2.5693,-2.5693,-2.5693,-2.5693,-2.5693,-2.5693,-2.5693,-2.5693,-2.5693,-2.5693,-2.5693,-2.5693,-2.5693,-2.5693,-2.5693,-2.5693,-2.5693,-2.5693,-2.5693,-2.5693,-2.5693,-2.5693,-2.5693,0.0,0.0,0.0,0.0,0.0,0.0,0.0,0.0,0.0,0.0,0.0,0.0,0.0,0.0,0.0,0.0,0.0,0.0,0.0,0.0,0.0,-0.1809,-0.1803,-0.1803,-0.1803,-0.1803,-0.1803,-0.1803,-0.1803,-0.2107,-0.2723,-0.2996,-0.3021,-0.2823,-0.3396,-0.3156,-0.2344,-0.2638,-0.2781,-0.2784,-0.2574,-0.257,-0.2681,-0.2561,-0.256,-0.2611,-0.2668,-0.2827,-0.297,-0.2691,0.0,0.0,0.0,0.0,-0.6966,-0.4349,-0.6074,-0.883,-0.8937,-1.144,-1.4866,-1.8599,-2.1518,-2.3152,-2.1805,-2.3252,-2.5052,-2.5596,-2.5693,-2.5693,-2.5693,-2.5693,-2.5693,-2.5693,-2.5693,-2.5693,-2.5693,-2.5693,-2.5693,-2.5693,-2.5693,-2.5693,-2.5693,-2.5693,-2.5693,-2.5693,-2.5693,-2.5693,-2.5693,-2.5693,-2.5693,-2.5693,-2.5693,-2.5693,-2.5693,-2.5693,-2.5693,-2.5693,-2.5693,-2.5693,-2.5693,-2.5693,-2.5693,-2.5693,-2.5693,-2.5693,-2.5693,-2.5693,-2.5693,-2.5693,-2.5693,-2.5693,-2.5693,-2.5693,-2.5693,-2.5693,0.0,0.0,0.0,0.0,0.0,0.0,0.0,0.0,0.0,0.0,-0.139,0.0,0.0,0.0,0.0,0.0,0.0,0.0,-0.2039,0.0,0.0,-0.1806,-0.1803,-0.1803,-0.1803,-0.1803,-0.1803,-0.1803,-0.1803,-0.3378,-0.6395,-0.6723,-0.6857,-0.6846,-0.7266,-0.5723,-0.2812,-0.2978,-0.3107,-0.3202,-0.2944,-0.2913,-0.3035,-0.3009,-0.2839,-0.2636,-0.2933,-0.2875,-0.2665,-0.2617,-0.2659,0.0,0.0,0.0,-0.3821,-0.3915,-0.6089,-0.8589,-0.9111,-1.193,-1.567,-1.9496,-1.8751,-1.8508,-2.3808,-2.3278,-2.2465,-2.5168,-2.5693,-2.5693,-2.5693,-2.5693,-2.5693,-2.5693,-2.5693,-2.5693,-2.5693,-2.5693,-2.5693,-2.5693,-2.5693,-2.5693,-2.5693,-2.5693,-2.5693,-2.5693,-2.5693,-2.5693,-2.5693,-2.5693,-2.5693,-2.5693,-2.5693,-2.5693,-2.5693,-2.5693,-2.5693,-2.5693,-2.5693,-2.5693,-2.5693,-2.5693,-2.5693,-2.5693,-2.5693,-2.5693,-2.5693,-2.5693,-2.5693,-2.5693,-2.5693,-2.5693,-2.5693,-2.5693,-2.5693,-2.5693,0.0,0.0,0.0,0.0,0.0,0.0,0.0,0.0,0.0,0.0,0.0,-0.1124,0.0,0.0,0.0,-0.2096,-0.2162,-0.211,-0.1896,-0.1829,-0.1803,-0.1803,-0.1803,-0.1803,-0.1803,-0.1803,-0.1803,-0.1803,-0.188,-0.4722,-1.0137,-1.0351,-0.9396,-0.7576,-0.9668,-0.7598,-0.2631,-0.4534,-0.4347,-0.277,-0.2418,-0.2618,-0.3051,-0.2639,-0.2528,-0.2589,-0.2509,-0.2434,-0.2373,-0.2373,-0.2604,-0.2909,-0.3056,0.0,0.0,0.0,-0.4766,-0.6851,-1.1022,-1.214,-1.3875,-2.1288,-1.9483,-1.7623,-2.4212,-2.3297,-2.1969,-2.5052,-2.5693,-2.5693,-2.5693,-2.5693,-2.5693,-2.5693,-2.5693,-2.5693,-2.5693,-2.5693,-2.5693,-2.5693,-2.5693,-2.5693,-2.5693,-2.5693,-2.5693,-2.5693,-2.5693,-2.5693,-2.5693,-2.5693,-2.5693,-2.5693,-2.5693,-2.5693,-2.5693,-2.5693,-2.5693,-2.5693,-2.5693,-2.5693,-2.5693,-2.5693,-2.5693,-2.5693,-2.5693,-2.5693,-2.5693,-2.5693,-2.5693,-2.5693,-2.5693,-2.5693,-2.5693,-2.5693,-2.5693,-2.5693,0.0,0.0,0.0,0.0,0.0,0.0,0.0,0.0,0.0,0.0,0.0,0.0,0.0,0.0,0.0,0.0,-0.2186,-0.215,-0.187,-0.1812,-0.1803,-0.1803,-0.1803,-0.182,-0.185,-0.185,-0.187,-0.1896,-0.1999,-0.5201,-1.1272,-1.2245,-1.1301,-0.8912,-1.1454,-0.973,-0.4979,-0.6598,-0.5988,-0.3905,-0.3656,-0.348,-0.3319,-0.28,-0.2725,-0.2844,-0.2599,-0.2497,-0.2477,-0.2436,-0.2722,-0.31,-0.31,-0.3234,0.0,0.0,0.0,-0.5339,-1.1478,-1.1571,-1.1957,-2.0621,-1.8722,-1.6226,-2.2007,-2.1561,-2.0793,-2.3878,-2.513,-2.5693,-2.5693,-2.5693,-2.5693,-2.5693,-2.5693,-2.5693,-2.5693,-2.5693,-2.5693,-2.5693,-2.5693,-2.5693,-2.5693,-2.5693,-2.5693,-2.5693,-2.5693,-2.5693,-2.5693,-2.5693,-2.5693,-2.5693,-2.5693,-2.5693,-2.5693,-2.5693,-2.5693,-2.5693,-2.5693,-2.5693,-2.5693,-2.5693,-2.5693,-2.5693,-2.5693,-2.5693,-2.5693,-2.5693,-2.5693,-2.5693,-2.5693,-2.5693,-2.5693,-2.5693,-2.5693,-2.5693,0.0,0.0,0.0,0.0,0.0,0.0,0.0,0.0,0.0,0.0,0.0,0.0,-0.1535,-0.1953,-0.2314,-0.263,-0.2546,-0.2342,-0.2018,-0.1873,-0.1803,-0.1803,-0.1803,0.0,-0.1982,-0.1985,-0.2056,-0.2174,-0.218,-0.4138,-0.7933,-1.1177,-1.2684,-1.2624,-1.2799,-1.2609,-1.1958,-0.9023,-0.7882,-0.8095,-0.8278,-0.6653,-0.415,-0.4248,-0.4015,-0.3666,-0.3834,-0.3614,-0.3229,-0.3099,-0.3078,-0.31,-0.31,-0.3111,-0.3164,0.0,0.0,0.0,-0.8696,-0.9834,-1.0943,-1.528,-1.3931,-1.2481,-1.6064,-1.6767,-1.7542,-2.0709,-2.364,-2.5693,-2.5693,-2.5693,-2.5693,-2.5693,-2.5693,-2.5693,-2.5693,-2.5693,-2.5693,-2.5693,-2.5693,-2.5693,-2.5693,-2.5693,-2.5693,-2.5693,-2.5693,-2.5693,-2.5693,-2.5693,-2.5693,-2.5693,-2.5693,-2.5693,-2.5693,-2.5693,-2.5693,-2.5693,-2.5693,-2.5693,-2.5693,-2.5693,-2.5693,-2.5693,-2.5693,-2.5693,-2.5693,-2.5693,-2.5693,-2.5693,-2.5693,-2.5693,-2.5693,-2.5693,-2.5693,-2.5693,0.0,0.0,0.0,0.0,0.0,0.0,0.0,0.0,0.0,0.0,0.0,0.0,0.0,-0.1961,-0.2188,-0.2126,-0.2234,-0.2255,-0.2137,-0.208,-0.2063,-0.2063,-0.2063,-0.2073,-0.213,-0.213,-0.2157,-0.2197,-0.233,-0.4174,-0.7616,-0.8936,-1.0744,-1.31,-1.7788,-1.6057,-0.979,-1.3495,-1.1067,-0.518,-1.0128,-0.8706,-0.3873,-0.6109,-0.6805,-0.6281,-0.3888,-0.4334,-0.5718,-0.3419,-0.2854,-0.31,-0.31,-0.3223,-0.3372,-0.3474,-0.3579,-0.4488,-0.8232,-0.7713,-0.7655,-1.4046,-1.1639,-0.9236,-1.5068,-1.6384,-1.674,-1.7852,-2.214,-2.5081,-2.3134,-2.4367,-2.5693,-2.5693,-2.5693,-2.5693,-2.5693,-2.5693,-2.5693,-2.5693,-2.5693,-2.5693,-2.5693,-2.5693,-2.5693,-2.5693,-2.4173,-2.3982,-2.5625,-2.4153,-2.4011,-2.5654,-2.5693,-2.5693,-2.5693,-2.5693,-2.5693,-2.5693,-2.5693,-2.5693,-2.5693,-2.5693,-2.5693,-2.5693,-2.5693,-2.5693,-2.5693,-2.5693,-2.5693,-2.5693,-2.5693,-2.5693,-2.5693,-2.5693,-2.5693,-2.5693,0.0,0.0,0.0,0.0,0.0,0.0,0.0,0.0,-0.0958,-0.1123,0.0,0.0,0.0,0.0,-0.2344,-0.2123,-0.2216,-0.2295,-0.2295,-0.2238,-0.2197,-0.2197,-0.2197,-0.2234,-0.2295,-0.2234,-0.2261,-0.2373,-0.2462,-0.3682,-0.5983,-0.7212,-0.898,-1.14,-1.7542,-1.6991,-1.1807,-1.6973,-1.4947,-0.8595,-1.2436,-1.1267,-0.73,-0.8374,-0.8654,-0.8356,-0.7168,-0.7264,-0.7792,-0.6717,-0.5807,-0.5094,-0.4976,-0.4216,-0.3362,-0.3362,-0.3362,-0.3928,-0.6529,-0.5642,-0.5326,-1.0837,-0.8934,-0.7034,-1.2088,-1.4885,-1.6384,-1.6384,-2.1377,-2.5062,-2.3012,-2.4328,-2.5693,-2.5693,-2.5693,-2.5693,-2.5693,-2.5693,-2.5693,-2.5693,-2.5693,-2.5693,-2.5693,-2.5693,-2.5693,-2.5693,-2.4134,-2.3898,-2.5625,-2.4115,-2.3973,-2.5654,-2.5693,-2.5693,-2.5693,-2.5693,-2.5693,-2.5693,-2.5693,-2.5693,-2.5693,-2.5693,-2.5693,-2.5693,-2.5693,-2.5693,-2.5693,-2.5693,-2.5693,-2.5693,-2.5693,-2.5693,-2.5693,-2.5693,-2.5693,-2.5693,0.0,0.0,0.0,0.0,0.0,0.0,0.0,0.0,-0.1101,-0.1562,0.0,0.0,0.0,0.0,0.0,-0.2693,-0.2575,-0.2505,-0.2489,-0.2316,-0.221,-0.221,-0.221,-0.2302,-0.2501,-0.2323,-0.2376,-0.2696,-0.2561,-0.2565,-0.2766,-0.6096,-0.7569,-0.7616,-1.1453,-1.5088,-1.8412,-1.9058,-1.9102,-1.8539,-1.5548,-1.4413,-1.4195,-1.0997,-0.9494,-0.9577,-1.3623,-1.2391,-0.9397,-1.2989,-1.1933,-0.9013,-0.8575,-0.5981,-0.3089,-0.3089,-0.3089,-0.3153,0.0,0.0,0.0,-0.5397,-0.5668,-0.5901,-0.6787,-1.1784,-1.6234,-1.6251,-2.1221,-2.5577,-2.5577,-2.5635,-2.5693,-2.5693,-2.5693,-2.5693,-2.5693,-2.5693,-2.5693,-2.5693,-2.5693,-2.5693,-2.5693,-2.5693,-2.5693,-2.5693,-2.5645,-2.5635,-2.5693,-2.5693,-2.5693,-2.5693,-2.5693,-2.5693,-2.5693,-2.5693,-2.5693,-2.5693,-2.5693,-2.5693,-2.5693,-2.5693,-2.5693,-2.5693,-2.5693,-2.5693,-2.5693,-2.5693,-2.5693,-2.5693,-2.5693,-2.5693,-2.5693,-2.5693,-2.5693,-2.5693,0.0,0.0,0.0,0.0,0.0,-0.0851,-0.1451,-0.185,-0.2103,0.0,0.0,0.0,-0.2723,-0.2744,-0.2609,-0.2234,-0.2478,-0.2505,-0.2161,-0.2405,-0.2557,-0.2557,-0.2557,-0.2594,-0.2651,-0.2594,-0.2598,-0.2696,-0.2655,-0.2671,-0.2719,-0.3667,-0.4047,-0.4081,-0.7911,-1.0102,-1.1339,-1.7151,-1.4684,-0.7848,-1.8257,-1.5737,-0.6539,-1.4193,-1.3263,-0.8445,-1.2873,-1.3459,-1.2379,-1.384,-1.2,-0.8575,-0.5569,-0.3792,-0.281,-0.281,-0.295,-0.3118,-0.3188,0.0,0.0,0.0,0.0,0.0,-0.646,-0.9829,-1.278,-1.2953,-1.798,-2.2379,-2.2326,-2.4166,-2.5693,-2.5693,-2.5693,-2.5693,-2.5693,-2.5693,-2.5693,-2.5693,-2.5693,-2.5693,-2.5693,-2.5693,-2.5693,-2.5693,-2.3992,-2.3737,-2.5625,-2.5693,-2.5693,-2.5693,-2.5693,-2.5693,-2.5693,-2.5693,-2.5693,-2.5693,-2.5693,-2.5693,-2.5693,-2.5693,-2.5693,-2.5693,-2.5693,-2.5693,-2.5693,-2.5693,-2.5693,-2.5693,-2.5693,-2.5693,-2.5693,-2.5693,-2.5693,-2.5693,0.0,0.0,0.0,-0.1089,-0.1199,-0.1364,-0.1888,-0.227,-0.2481,0.0,0.0,0.0,-0.2829,-0.2751,-0.2596,-0.2314,-0.2547,-0.258,-0.2314,-0.2547,-0.2696,-0.2696,-0.2696,-0.2696,-0.2696,-0.2651,-0.2651,-0.2696,-0.2651,-0.2651,-0.2696,-0.2696,-0.2583,-0.2476,-0.4711,-0.5596,-0.5816,-1.2091,-1.2706,-1.0175,-1.7715,-1.7216,-1.2564,-1.7861,-1.6883,-1.3203,-1.7476,-1.7807,-1.6501,-1.8471,-1.5679,-1.0989,-0.8647,-0.5656,-0.3295,-0.4605,-0.4179,-0.3213,-0.3,-0.3213,-0.3667,-0.438,0.0,0.0,-0.6117,-1.0008,-1.3455,-1.3638,-1.8643,-2.2633,-2.1301,-2.2532,-2.3782,-2.3782,-2.3792,-2.4224,-2.5538,-2.5693,-2.5693,-2.5693,-2.5693,-2.5693,-2.5693,-2.5693,-2.5693,-2.5693,-2.4315,-2.4134,-2.5635,-2.5693,-2.5693,-2.5693,-2.5693,-2.5693,-2.5693,-2.5693,-2.543,-2.4873,-2.4873,-2.4873,-2.4864,-2.4304,-2.4353,-2.4815,-2.4254,-2.4353,-2.4815,-2.4254,-2.4353,-2.4913,-2.5479,-2.5382,-2.4873,-2.4873,-2.4873,-2.4873,0.0,0.0,-0.0832,-0.1479,-0.1563,-0.1663,-0.2082,-0.2339,-0.2404,0.0,-0.26,-0.2832,-0.2713,-0.2696,-0.2679,-0.263,-0.2663,-0.2679,-0.263,-0.2663,-0.2696,-0.2696,-0.2696,-0.2696,-0.2696,-0.2579,-0.2575,-0.2696,-0.2575,-0.2568,-0.2672,-0.2672,-0.2506,-0.2197,-0.218,-0.2049,-0.2053,-0.562,-1.1495,-1.8137,-1.5512,-1.8471,-2.4108,-2.1389,-1.994,-1.986,-2.4139,-2.3216,-2.0484,-2.3907,-2.0665,-1.5006,-1.4159,-0.9337,-0.4463,-0.681,-0.5571,-0.3323,-0.2836,-0.3124,-0.3661,-0.4113,-0.4712,0.0,-0.5747,-1.0635,-1.5242,-1.5606,-2.0133,-2.3302,-2.093,-2.0533,-2.0573,-2.0573,-2.0592,-2.1655,-2.4753,-2.546,-2.5577,-2.5246,-2.5508,-2.5693,-2.5693,-2.5693,-2.5693,-2.5693,-2.5693,-2.5693,-2.5693,-2.5693,-2.5693,-2.5693,-2.5693,-2.5693,-2.5693,-2.5538,-2.4864,-2.3692,-2.3534,-2.3484,-2.3434,-2.2257,-2.2366,-2.3434,-2.2206,-2.2366,-2.3384,-2.2206,-2.2508,-2.3791,-2.4864,-2.451,-2.3484,-2.3484,-2.3583,-2.3692,0.0,-0.0639,-0.0437,-0.143,-0.129,-0.1224,-0.1796,-0.2092,-0.2241,-0.2195,-0.2518,-0.273,-0.2699,-0.2696,-0.2547,-0.2164,-0.248,-0.2547,-0.2164,-0.2497,-0.2696,-0.2696,-0.2696,-0.2696,-0.2696,-0.2669,-0.2669,-0.2696,-0.2669,-0.262,-0.2543,-0.2543,-0.2419,-0.219,-0.2083,-0.2009,-0.2007,-0.268,-0.5738,-1.0615,-1.6278,-1.7624,-1.6892,-2.2427,-2.0573,-1.596,-2.314,-2.3124,-1.9907,-2.0943,-2.0126,-1.7625,-1.1412,-0.8382,-0.6588,-0.3847,-0.3031,-0.2966,-0.2764,-0.3287,-0.3981,-0.4283,-0.4465,0.0,-0.5295,-0.6322,-0.7939,-1.0667,-1.2562,-1.4305,-1.6232,-1.6981,-1.7334,-1.7334,-1.7307,-1.8412,-2.1542,-2.4127,-2.4762,-2.2269,-2.4175,-2.5693,-2.5693,-2.5693,-2.5693,-2.5693,-2.5693,-2.5693,-2.5693,-2.5693,-2.5693,-2.5693,-2.5693,-2.5693,-2.5693,-2.4609,-2.3939,-2.3692,-2.2617,-2.2106,-2.2055,-2.1803,-2.1853,-2.2055,-2.1803,-2.1853,-2.2055,-2.1803,-2.2508,-2.3642,-2.2826,-2.2307,-2.2106,-2.2106,-2.2767,-2.3534,-0.0958,-0.0692,-0.0605,-0.1453,-0.1414,-0.1401,-0.1838,-0.2064,-0.2172,-0.2118,-0.225,-0.2447,-0.2679,-0.2696,-0.2596,-0.2364,-0.2563,-0.2596,-0.2364,-0.2563,-0.2696,-0.2696,-0.2696,-0.2696,-0.2696,-0.2696,-0.2696,-0.2696,-0.2696,-0.2658,-0.2599,-0.2599,-0.2464,-0.2197,-0.2232,-0.2119,-0.1896,-0.1896,-0.418,-0.8336,-1.4338,-1.6804,-1.7488,-2.3448,-2.3198,-2.028,-2.4241,-2.4413,-2.2399,-2.0573,-1.9972,-1.925,-1.5406,-1.1677,-0.8261,-0.5725,-0.4146,-0.3108,-0.2674,-0.2989,-0.3506,-0.3697,-0.3972,0.0,0.0,-0.5968,-0.7672,-0.9397,-1.1205,-1.261,-1.2997,-1.3285,-1.3639,-1.3999,-1.4064,-1.462,-1.6198,-2.0458,-2.3419,-2.3409,-2.4743,-2.5693,-2.5693,-2.5693,-2.5693,-2.5693,-2.5069,-2.4716,-2.4716,-2.4048,-2.3692,-2.3692,-2.3692,-2.3692,-2.3692,-2.3026,-2.2366,-2.1659,-2.099,-2.0641,-2.0641,-1.9973,-2.0025,-2.0641,-1.993,-2.0025,-2.059,-1.9922,-2.0436,-2.1659,-2.1702,-2.1296,-2.0641,-2.0641,-2.11,-2.1558,-0.0855,-0.0756,-0.0753,-0.1324,-0.1432,-0.1499,-0.1724,-0.1982,-0.2163,-0.2144,-0.2131,-0.256,-0.3679,-0.3136,-0.2992,-0.3737,-0.3795,-0.3483,-0.2743,-0.338,-0.3479,-0.2739,-0.2696,-0.2696,-0.2696,-0.2669,-0.2652,-0.2652,-0.2624,-0.2597,-0.2566,-0.2566,-0.2439,-0.2197,-0.2314,-0.2609,-0.3035,-0.3096,-0.5377,-0.9309,-1.3319,-1.6494,-1.9322,-2.3924,-2.5324,-2.4907,-2.5508,-2.5693,-2.5081,-2.114,-1.9946,-2.0036,-1.9297,-1.4586,-0.9197,-0.8428,-0.593,-0.329,-0.267,-0.2776,-0.3085,-0.3159,-0.3575,-0.3961,0.0,0.0,0.0,-0.8257,-1.0409,-1.169,-0.9728,-0.9475,-0.9751,-1.03,-1.0545,-1.0832,-1.1366,-1.5986,-2.022,-2.2704,-2.3662,-2.4083,-2.3996,-2.4533,-2.514,-2.5654,-2.4461,-2.3692,-2.3692,-2.2408,-2.1702,-2.1702,-2.1702,-2.1702,-2.1702,-2.1448,-2.0735,-1.9576,-1.9324,-1.922,-1.9169,-1.8094,-1.8199,-1.9169,-1.8094,-1.8192,-1.9117,-1.8042,-1.8251,-1.9324,-2.0487,-2.0231,-1.922,-1.922,-1.9376,-1.9576,-0.1091,-0.0612,-0.0237,-0.0712,-0.0798,-0.0813,-0.0841,-0.1518,-0.2161,-0.2566,-0.2613,-0.3929,-0.7376,-0.4728,-0.4067,-0.7461,-0.7751,-0.6326,-0.2923,-0.5866,-0.6247,-0.2851,-0.2696,-0.2696,-0.2696,-0.2579,-0.2525,-0.2525,-0.235,-0.2191,-0.2086,-0.2086,-0.2127,-0.2187,-0.197,-0.3966,-0.7456,-0.7232,-0.9468,-1.3453,-1.7429,-1.7668,-1.6367,-2.3115,-2.4011,-2.1969,-2.4714,-2.5693,-2.5121,-2.1414,-2.0094,-1.9417,-1.5956,-1.2084,-0.8714,-0.8327,-0.5807,-0.3095,-0.2894,-0.326,-0.3665,-0.3494,-0.3645,-0.38,-0.3674,0.0,-0.3822,-0.3822,0.0,-0.5251,-0.4983,0.0,0.0,-0.5694,-0.6322,-0.7692,-1.0201,-1.1819,-1.2906,-1.3248,-1.6228,-1.8124,-1.7843,-2.0347,-2.3024,-2.5489,-2.4461,-2.3692,-2.3692,-2.2408,-2.1702,-2.1702,-2.1702,-2.1702,-2.1702,-2.0436,-1.9782,-1.9576,-1.8401,-1.7838,-1.7838,-1.7687,-1.7687,-1.7838,-1.7687,-1.7687,-1.7838,-1.7687,-1.7687,-1.7838,-1.7989,-1.7989,-1.7838,-1.7838,-1.8558,-1.9428,-0.057,-0.047,-0.0471,-0.0672,-0.0889,-0.1141,-0.141,-0.1995,-0.248,-0.2679,-0.2696,-0.4155,-0.7996,-0.6968,-0.7559,-1.1427,-1.1754,-1.1069,-0.9484,-0.8755,-0.7695,-0.6085,-0.3805,-0.2582,-0.2582,-0.2419,-0.2327,-0.2327,-0.2241,-0.2177,-0.2114,-0.2114,-0.2104,-0.208,-0.2053,-0.4237,-0.7968,-0.7923,-1.0189,-1.3967,-1.5704,-1.5882,-1.5896,-2.2999,-2.4907,-2.3647,-2.2581,-2.3731,-2.4791,-1.8643,-1.9592,-2.2236,-1.6223,-1.3299,-1.2081,-1.1783,-0.7563,-0.3416,-0.5425,-0.6154,-0.6393,-0.6482,-0.6494,-0.6483,-0.6552,-0.4643,-0.2866,-0.2866,0.0,0.0,0.0,0.0,0.0,0.0,-0.5391,-0.6089,-0.7274,-0.79,-0.9771,-1.3945,-1.5807,-1.744,-1.9139,-1.9143,-2.0232,-2.3052,-2.1276,-2.0052,-2.0052,-1.9599,-1.931,-1.931,-1.931,-1.931,-1.931,-1.8708,-1.8454,-1.8454,-1.7891,-1.7582,-1.7582,-1.7582,-1.7582,-1.7582,-1.7582,-1.7582,-1.7582,-1.7582,-1.7582,-1.7582,-1.7582,-1.7582,-1.7582,-1.7582,-1.7943,-1.8349,-0.0613,0.0,-0.0873,-0.0873,-0.1206,-0.1667,-0.2174,-0.3396,-0.429,-0.4332,-0.4337,-0.58,-0.9638,-0.8194,-0.8921,-1.3842,-1.4255,-1.4255,-1.4187,-1.1591,-1.0036,-0.9982,-0.5251,-0.3057,-0.4038,-0.2842,-0.2177,-0.2147,-0.2107,-0.2087,-0.2087,-0.2087,-0.2063,-0.2005,-0.2144,-0.4322,-0.7981,-0.9187,-1.1939,-1.5593,-1.6747,-1.7515,-1.8471,-2.2802,-2.4965,-2.5304,-2.2399,-2.3207,-2.4657,-1.7959,-1.9466,-2.3164,-1.7705,-1.5309,-1.4706,-1.5589,-1.1186,-0.6625,-0.9198,-0.9907,-0.9684,-0.8829,-0.8545,-0.823,-0.7275,-0.4818,-0.2747,-0.2706,-0.2764,0.0,0.0,0.0,-0.3954,-0.4416,0.0,-0.5021,-0.4952,-0.5325,-0.7518,-1.274,-1.4325,-1.5974,-1.8526,-1.7883,-1.8148,-2.0214,-1.8513,-1.7409,-1.7409,-1.7518,-1.7582,-1.7582,-1.7582,-1.7582,-1.7582,-1.7582,-1.7582,-1.7582,-1.7582,-1.7582,-1.7582,-1.7582,-1.7582,-1.7582,-1.7582,-1.7582,-1.7582,-1.7582,-1.7582,-1.7582,-1.7582,-1.7582,-1.7582,-1.7582,-1.7582,-1.7582,-0.1746,-0.149,-0.1288,-0.1288,-0.1659,-0.2185,-0.2772,-0.5907,-0.8297,-0.8492,-0.8506,-0.9965,-1.3801,-0.7659,-0.627,-1.3727,-1.4402,-1.4329,-1.4204,-1.4214,-1.4139,-1.4013,-0.6874,-0.4495,-0.7951,-0.4192,-0.214,-0.2005,-0.188,-0.1816,-0.1816,-0.1816,-0.1884,-0.2005,-0.2144,-0.4423,-0.8443,-1.2354,-1.6245,-2.0101,-2.3842,-2.5333,-2.5043,-2.2322,-2.3124,-2.5674,-2.5557,-2.5596,-2.5111,-2.129,-2.0076,-2.0162,-2.0043,-1.7438,-1.513,-1.8919,-1.7171,-1.4055,-1.4179,-1.4195,-1.3268,-0.9394,-0.8545,-0.7675,-0.3789,-0.2892,-0.2859,-0.2727,-0.2907,-0.3047,-0.2952,-0.3144,-0.3249,0.0,-0.3782,0.0,0.0,-0.4773,-0.5387,-0.5639,-0.9084,-1.1842,-1.2771,-1.5547,-1.7325,-1.7424,-1.7429,-1.7409,-1.7409,-1.7518,-1.7582,-1.7582,-1.7582,-1.7582,-1.7582,-1.7582,-1.7582,-1.7582,-1.7582,-1.7582,-1.7582,-1.7582,-1.7582,-1.7582,-1.7582,-1.7582,-1.7582,-1.7582,-1.7582,-1.7582,-1.7582,-1.7582,-1.7582,-1.7582,-1.7582,-1.7582,-0.28,-0.2395,-0.2413,-0.2138,-0.2452,-0.2803,-0.3001,-0.4092,-0.5802,-0.8376,-0.869,-1.1091,-1.7431,-1.5814,-1.5338,-1.8025,-2.0457,-2.0828,-1.8335,-1.8133,-1.8085,-1.8035,-1.3024,-0.9614,-0.8227,-0.6779,-0.4756,-0.2134,-0.1995,-0.1933,-0.1933,-0.1933,-0.196,-0.2005,-0.2144,-0.4428,-0.8471,-1.2409,-1.636,-2.012,-2.141,-2.1944,-2.211,-2.3566,-2.4772,-2.5693,-2.5693,-2.5693,-2.514,-2.1347,-2.1738,-2.3341,-2.0838,-1.925,-1.8986,-2.2749,-1.9367,-1.4947,-1.7428,-1.81,-1.7765,-1.6403,-1.4264,-1.212,-1.0745,-0.6603,-0.3017,-0.2985,-0.3034,-0.3087,-0.3037,-0.3172,-0.3276,0.0,-0.3556,-0.3843,0.0,-0.3983,-0.4312,-0.4652,-0.6404,-0.8692,-1.1457,-1.1182,-1.1821,-1.4287,-1.3654,-1.3172,-1.3172,-1.5062,-1.6132,-1.6132,-1.7074,-1.7582,-1.7582,-1.7582,-1.7582,-1.7582,-1.7582,-1.7582,-1.7582,-1.7582,-1.7582,-1.7582,-1.7582,-1.7582,-1.7582,-1.7582,-1.7582,-1.7582,-1.7582,-1.7582,-1.7582,-1.7582,-1.7582,-1.7582,-0.3577,-0.31,-0.3149,-0.2771,-0.2927,-0.3575,-0.4955,-0.5163,-0.6992,-1.2104,-1.1639,-1.3187,-1.9398,-1.8881,-1.8651,-2.006,-2.1158,-2.1866,-2.2132,-1.8372,-1.7879,-2.1853,-1.5696,-1.2231,-1.2291,-0.9562,-0.7543,-0.6337,-0.354,-0.2845,-0.4103,-0.2724,-0.2063,-0.2086,-0.2289,-0.3788,-0.6519,-1.186,-1.5609,-1.8053,-1.9451,-2.0824,-2.2167,-2.3255,-2.4541,-2.5693,-2.5693,-2.5693,-2.5333,-2.285,-2.3671,-2.5295,-2.2812,-2.2067,-2.2603,-2.4986,-2.2252,-1.8944,-2.1352,-2.2019,-2.1592,-1.97,-1.7441,-1.5291,-1.3939,-0.987,-0.6385,-0.6349,-0.6749,-0.6547,-0.4687,-0.4861,-0.487,0.0,0.0,-0.3604,0.0,-0.3531,-0.3623,-0.3978,-0.5726,-0.7673,-0.9618,-0.9076,-0.9414,-1.1368,-1.0937,-1.0725,-1.0989,-1.3794,-1.5398,-1.5398,-1.682,-1.7582,-1.7582,-1.7582,-1.7582,-1.7582,-1.7582,-1.7582,-1.7582,-1.7582,-1.7582,-1.7582,-1.7582,-1.7582,-1.7582,-1.7582,-1.7582,-1.7582,-1.7582,-1.7582,-1.7582,-1.7582,-1.7582,-1.7582,-0.4075,-0.3604,-0.3508,-0.3175,-0.3273,-0.4642,-0.8353,-0.906,-1.1778,-1.8994,-1.697,-1.6258,-1.9823,-1.7175,-1.6459,-1.9664,-1.6847,-1.7813,-2.4678,-1.5421,-1.446,-2.5247,-1.5457,-1.2869,-1.9556,-1.2655,-1.057,-1.3828,-0.6403,-0.4568,-0.7918,-0.4034,-0.2221,-0.2234,-0.255,-0.2634,-0.3027,-1.1011,-1.4421,-1.4781,-1.8301,-2.201,-2.5043,-2.1391,-2.2381,-2.5693,-2.5693,-2.5693,-2.5693,-2.5693,-2.5693,-2.5693,-2.5693,-2.5693,-2.5693,-2.5693,-2.5635,-2.5586,-2.5586,-2.5538,-2.4345,-1.9419,-1.802,-1.6887,-1.3301,-1.2387,-1.227,-1.2146,-1.3252,-1.2704,-0.7705,-0.7909,-0.7681,0.0,0.0,-0.3621,-0.3614,-0.3441,-0.3329,-0.3329,-0.6578,-0.836,-0.7115,-0.9043,-0.9916,-0.8825,-0.9382,-1.0141,-1.0956,-1.3572,-1.5153,-1.5391,-1.6673,-1.7435,-1.7582,-1.7508,-1.7508,-1.7582,-1.7582,-1.7582,-1.7582,-1.7582,-1.7582,-1.7582,-1.7582,-1.7582,-1.7582,-1.7582,-1.7582,-1.7582,-1.7582,-1.7582,-1.7582,-1.7582,-1.7582,-1.7582,-0.4249,-0.3604,-0.3576,-0.3498,-0.5746,-0.7907,-0.8883,-1.1368,-1.3831,-1.5781,-1.7653,-1.9128,-2.0087,-2.181,-2.1022,-1.6505,-1.7744,-1.8368,-1.7506,-1.7381,-1.985,-2.546,-2.2934,-2.0922,-1.9938,-1.8019,-1.6062,-1.4102,-0.9146,-0.7233,-0.806,-0.4227,-0.2427,-0.2434,-0.2611,-0.2675,-0.3162,-1.0938,-1.5913,-1.8337,-1.6456,-1.8026,-2.1372,-2.0355,-2.2381,-2.5693,-2.5693,-2.5693,-2.5693,-2.5693,-2.5693,-2.5693,-2.5693,-2.5693,-2.5693,-2.5693,-2.4971,-2.4196,-2.4196,-2.3484,-2.2652,-2.2302,-1.9348,-1.6561,-1.664,-1.3768,-1.1059,-1.1028,-1.1308,-1.1172,-0.984,-0.8554,-0.7395,-0.6439,-0.4946,-0.3866,-0.3751,-0.3704,-0.3676,-0.3676,-0.4546,-0.5244,-0.5433,-0.6587,-0.7512,-0.7951,-0.8167,-0.9057,-1.0902,-1.0668,-1.1994,-1.5278,-1.4191,-1.4837,-1.7562,-1.65,-1.6506,-1.7582,-1.7582,-1.7582,-1.7582,-1.7582,-1.7582,-1.7582,-1.7582,-1.7582,-1.7582,-1.7582,-1.7582,-1.7582,-1.7582,-1.7582,-1.7582,-1.7582,-1.7582,-1.7582,-0.4207,-0.3604,-0.3604,-0.3604,-0.7978,-1.1488,-1.1488,-1.3284,-1.5753,-1.9043,-1.9877,-2.0824,-2.2417,-2.4458,-2.401,-1.9859,-1.8435,-1.8232,-1.9388,-1.6873,-1.8443,-2.5421,-2.4143,-2.2293,-2.0118,-2.0081,-1.9015,-1.683,-1.1174,-0.9242,-1.0701,-0.5167,-0.2585,-0.2589,-0.2658,-0.2696,-0.3207,-1.0921,-1.6472,-1.9884,-1.7643,-1.9058,0.0,-2.0643,-2.2381,-2.5693,-2.5693,-2.5693,-2.5693,-2.5693,-2.5693,-2.5693,-2.5693,-2.5693,-2.5693,-2.5693,-2.5177,-2.4559,-2.4559,-2.3592,-2.2617,-2.2767,-2.0184,-1.7851,-1.8629,-1.6575,-1.4519,-1.4519,-1.5028,-1.4772,-1.2546,-1.0804,-0.8876,-0.6272,-0.482,-0.3964,-0.3904,-0.4669,-0.4866,-0.3837,-0.4613,-0.5035,-0.4475,-0.4959,-0.5854,-0.7127,-0.6934,-0.741,-0.8981,-0.9833,-1.0926,-1.2485,-1.2878,-1.3598,-1.4684,-1.388,-1.4376,-1.6164,-1.6164,-1.6649,-1.7582,-1.7582,-1.7582,-1.7582,-1.7582,-1.7582,-1.7582,-1.7582,-1.7582,-1.7582,-1.7582,-1.7582,-1.7582,-1.7582,-1.7582,-1.7582,-0.4069,-0.3587,-0.3739,-0.4222,-0.9607,-1.4228,-1.5189,-1.5736,-1.8184,-2.4181,-2.2593,-2.1966,-2.4659,-2.5431,-2.5499,-2.5005,-1.906,-1.8066,-2.4582,-1.5946,-1.508,-2.5276,-2.2612,-2.0897,-2.0897,-2.0897,-2.0897,-2.0897,-1.3212,-1.1044,-1.4037,-0.6314,-0.2696,-0.2696,-0.2696,-0.3257,-0.4606,-1.0842,-1.6066,-2.0176,-2.0044,-2.1991,-2.4647,-2.1815,-2.2812,-2.5693,-2.5693,-2.5693,-2.5693,-2.5693,-2.5693,-2.5693,-2.5693,-2.5693,-2.5693,-2.5693,-2.5586,-2.543,-2.543,-2.4304,-2.2926,-2.1954,-2.0487,-1.9376,-1.9576,-1.9472,-1.9324,-1.9324,-2.0333,-1.9825,-1.5351,-1.3454,-1.0773,-0.5326,-0.4212,-0.4011,-0.3971,-0.5804,-0.6276,-0.3926,-0.572,0.0,-0.4094,-0.4176,-0.4937,-0.6352,-0.5869,-0.59,-0.685,-0.9582,-1.0467,-0.9117,-1.1993,-1.2877,-1.1443,-1.1231,-1.2341,-1.4716,-1.444,-1.5466,-1.7582,-1.7582,-1.7582,-1.7582,-1.7582,-1.7582,-1.7582,-1.7582,-1.7582,-1.7582,-1.7582,-1.7582,-1.7582,-1.7582,-1.7582,-1.7582,-0.406,-0.3493,-0.4518,-0.7448,-0.9136,-1.2129,-1.8289,-2.182,-2.3151,-2.1392,-2.3273,-2.3811,-2.142,-2.3905,-2.4467,-2.142,-1.9973,-1.9754,-2.1093,-1.9343,-2.0486,-2.5479,-2.5092,-2.4755,-2.4755,-2.4755,-2.4755,-2.4755,-1.7012,-1.3579,-1.4037,-0.6314,-0.2696,-0.2696,-0.2696,-0.6241,-1.2085,-1.0394,-1.3672,-2.0048,-2.0014,-2.0383,-2.1264,-2.3748,-2.512,-2.5693,-2.5693,-2.5693,-2.5693,-2.5693,-2.5693,-2.5693,-2.5693,-2.5693,-2.5693,-2.5693,-2.4913,-2.4048,-2.4048,-2.2215,-2.0538,-2.1448,-1.9826,-1.8251,-1.9376,-1.876,-1.7943,-1.7943,-1.8146,-1.8043,-1.7168,-1.3812,-1.0211,-0.7346,-0.5365,-0.4095,-0.3866,-0.5914,-0.6565,-0.4196,-0.5996,-0.6621,-0.4566,-0.4831,-0.5273,-0.5665,-0.5569,-0.6366,-0.8307,-0.6762,-0.7307,-1.0495,-1.0072,-1.1035,-1.3695,-1.2517,-1.3636,-1.702,-1.5185,-1.5466,-1.7582,-1.7582,-1.7582,-1.7582,-1.7582,-1.7582,-1.7582,-1.7582,-1.7582,-1.7582,-1.7582,-1.7582,-1.7582,-1.7582,-1.7582,-1.7582,-0.6775,-0.5004,-0.4345,-0.6061,-0.9556,-1.3321,-1.6892,-2.2145,-2.5082,-2.3292,-2.4601,-2.5005,-2.3273,-2.463,-2.4976,-2.3199,-2.1293,-2.1004,-2.2909,-2.1265,-2.1838,-2.5518,-2.5693,-2.4803,-2.2881,-2.4735,-2.4764,-2.2853,-1.703,-1.4187,-1.4037,-0.6314,-0.2696,-0.2787,-0.4763,-0.7806,-1.1594,-1.3697,-1.6706,-2.0287,-2.2208,-2.298,-2.3178,-2.4976,-2.5693,-2.5693,-2.5693,-2.5693,-2.5693,-2.5693,-2.5693,-2.5693,-2.5693,-2.5226,-2.4658,-2.4658,-2.3683,-2.2667,-2.2667,-2.1151,-1.9782,-2.0436,-1.9109,-1.7786,-1.8401,-1.8042,-1.7582,-1.7582,-1.7582,-1.7244,-1.6076,-1.4101,-1.1881,-0.9686,-0.7405,-0.5873,-0.5745,-0.6692,-0.6966,-0.584,-0.7779,-0.8387,-0.6267,-0.6345,-0.612,-0.5057,-0.4976,-0.5434,-0.6523,-0.6314,-0.7134,-0.9233,-0.9717,-1.0796,-1.2567,-1.187,-1.3003,-1.5884,-1.4814,-1.5466,-1.7582,-1.7582,-1.7582,-1.7582,-1.7582,-1.7582,-1.7582,-1.7582,-1.7582,-1.7582,-1.7582,-1.7582,-1.7582,-1.7582,-1.7582,-1.7582,-1.0396,-0.8149,-0.648,-0.7258,-1.1535,-1.5367,-1.6957,-2.1355,-2.4803,-2.5615,-2.5693,-2.5693,-2.5693,-2.5693,-2.5392,-2.4622,-2.2621,-2.1968,-2.3335,-2.2162,-2.2335,-2.4459,-2.5286,-2.4324,-2.1429,-2.4228,-2.4276,-2.1383,-1.7377,-1.5002,-1.4054,-0.714,-0.3907,-0.4076,-0.7951,-1.0268,-1.1637,-1.7532,-2.0564,-2.1602,-2.4553,-2.5693,-2.5693,-2.5693,-2.5693,-2.5693,-2.5693,-2.5693,-2.5693,-2.5693,-2.5693,-2.5693,-2.5693,-2.4971,-2.4048,-2.3791,-2.2976,-2.2055,-2.1803,-2.0692,-1.9576,-1.9576,-1.8603,-1.7582,-1.7582,-1.7582,-1.7582,-1.7582,-1.7582,-1.7066,-1.5328,-1.4597,-1.3536,-1.1317,-0.9005,-0.7277,-0.6797,-0.7075,-0.7344,-0.7296,-0.8996,-0.9452,-0.7682,-0.72,-0.6293,-0.4574,-0.447,-0.4699,-0.515,-0.6349,-0.7226,-0.7677,-0.9395,-1.0527,-1.0986,-1.0992,-1.2345,-1.4975,-1.4537,-1.5466,-1.7582,-1.7582,-1.7582,-1.7582,-1.7582,-1.7582,-1.7582,-1.7582,-1.7582,-1.7582,-1.7582,-1.7582,-1.7582,-1.7582,-1.7582,-1.7582,-1.3934,-1.3753,-1.4643,-1.7914,-1.6356,-1.6894,-2.3651,-2.2436,-2.1929,-2.5276,-2.5693,-2.5693,-2.5693,-2.5693,-2.4421,-2.1155,-2.3522,-2.2582,-1.6482,-2.1786,-2.3889,-2.1021,-2.3965,-2.5518,-2.5179,-2.5509,-2.5518,-2.5169,-2.133,-1.7644,-1.412,-0.9867,-0.7865,-0.8029,-1.2033,-1.5735,-1.9025,-1.9843,-2.2138,-2.5237,-2.5538,-2.5693,-2.5693,-2.5693,-2.5693,-2.5693,-2.5693,-2.5693,-2.5693,-2.5693,-2.5693,-2.5693,-2.5693,-2.5586,-2.5274,-2.4048,-2.3583,-2.3226,-2.2055,-2.0692,-1.9576,-1.9576,-1.8603,-1.7582,-1.7582,-1.7582,-1.7582,-1.7582,-1.7582,-1.7542,-1.7349,-1.557,-1.3392,-1.1192,-0.885,-0.6563,-0.4446,-0.6067,-0.7429,-0.7327,-0.7692,-0.7855,-0.7526,-0.5857,-0.465,-0.4257,-0.4389,-0.5338,-0.7291,-0.5731,-0.5682,-0.7653,-0.7912,-0.8964,-1.098,-1.0992,-1.3107,-1.7251,-1.5242,-1.5466,-1.7582,-1.7582,-1.7582,-1.7582,-1.7582,-1.7582,-1.7582,-1.7582,-1.7582,-1.7582,-1.7582,-1.7582,-1.7582,-1.7582,-1.7582,-1.7582,-1.8374,-1.6704,-1.5797,-1.755,-1.84,-1.9849,-2.2852,-2.3871,-2.4804,-2.6267,-2.6289,-2.6133,-2.6133,-2.6357,-2.5828,-2.4146,-2.5305,-2.4804,-2.1651,-2.4107,-2.5083,-2.3663,-2.4957,-2.5693,-2.5693,-2.5693,-2.5693,-2.5693,-1.9683,-1.5935,-1.423,-1.0458,-0.9888,-1.2156,-1.6049,-1.8626,-2.0283,-2.2535,-2.4334,-2.5693,-2.5693,-2.5693,-2.5693,-2.5693,-2.5693,-2.5693,-2.5693,-2.5693,-2.5693,-2.5693,-2.5693,-2.5693,-2.5693,-2.5177,-2.4254,-2.2868,-2.1912,-2.0947,-1.962,-1.8812,-1.8401,-1.8401,-1.7989,-1.7582,-1.7582,-1.7582,-1.7582,-1.7582,-1.7582,-1.7582,-1.7582,-1.6848,-1.5502,-1.3278,-1.2052,-1.0583,-0.8328,-0.879,-0.986,-1.1228,-1.0301,-1.0095,-1.1433,-0.8443,-0.6385,-0.6313,-0.5168,-0.4872,-0.5727,-0.6189,-0.7436,-0.9622,-0.9696,-1.1368,-1.4924,-1.3658,-1.4537,-1.7575,-1.6726,-1.6752,-1.7582,-1.7582,-1.7582,-1.7582,-1.7582,-1.7582,-1.7582,-1.7582,-1.7582,-1.7582,-1.7582,-1.7582,-1.7582,-1.7582,-1.7582,-1.7582,-2.2788,-2.0793,-1.9118,-1.947,-2.1579,-2.2878,-2.1725,-2.4646,-2.6577,-2.5397,-2.6177,-2.6709,-2.6592,-2.6836,-2.647,-2.5119,-2.5983,-2.5526,-2.3122,-2.4938,-2.5567,-2.4393,-2.5334,-2.582,-2.5693,-2.5693,-2.5693,-2.5693,-2.0425,-1.7225,-1.5975,-1.3387,-1.3548,-1.622,-2.0007,-2.1733,-2.1985,-2.4601,-2.5693,-2.5693,-2.5693,-2.5693,-2.5693,-2.5693,-2.5693,-2.5693,-2.5693,-2.5693,-2.5693,-2.5693,-2.5693,-2.5693,-2.5693,-2.5069,-2.3949,-2.2206,-2.0998,-1.9826,-1.8094,-1.7582,-1.7582,-1.7582,-1.7582,-1.7582,-1.7582,-1.7582,-1.7582,-1.7582,-1.7582,-1.7582,-1.7582,-1.7582,-1.6889,-1.4672,-1.4214,-1.3324,-1.1095,-1.0724,-1.1278,-1.2936,-1.1192,-1.0774,-1.3043,-0.99,-0.7692,-0.763,-0.6268,-0.5435,-0.5435,-0.6289,-0.7768,-0.9953,-0.9432,-1.1214,-1.5605,-1.413,-1.4782,-1.7582,-1.7582,-1.7582,-1.7582,-1.7582,-1.7582,-1.7582,-1.7582,-1.7582,-1.7582,-1.7582,-1.7582,-1.7582,-1.7582,-1.7582,-1.7582,-1.7582,-1.7582,-1.7582,-2.6912,-2.6892,-2.6873,-2.6883,-2.6902,-2.563,-2.1717,-2.4467,-2.562,-2.1699,-2.4951,-2.749,-2.7051,-2.7012,-2.5559,-2.2078,-2.4981,-2.3999,-1.6982,-2.3109,-2.5223,-2.1347,-2.4516,-2.6182,-2.5703,-2.5693,-2.5693,-2.5693,-2.5625,-2.3616,-1.995,-1.9872,-1.9872,-2.0111,-2.3929,-2.5635,-2.5645,-2.5674,-2.5693,-2.5693,-2.5693,-2.5693,-2.5693,-2.5693,-2.5693,-2.5693,-2.5693,-2.5693,-2.5693,-2.5693,-2.5693,-2.5693,-2.5693,-2.5693,-2.5177,-2.2466,-2.1702,-2.1092,-1.8349,-1.7582,-1.7582,-1.7582,-1.7582,-1.7582,-1.7582,-1.7582,-1.7582,-1.7582,-1.7582,-1.7582,-1.7582,-1.7582,-1.6889,-1.4672,-1.4214,-1.3324,-1.1095,-1.0795,-1.0801,-1.0857,-0.8995,-0.8553,-1.065,-0.8934,-0.763,-0.7517,-0.7588,-0.7662,-0.7662,-0.5674,-0.5525,-0.7672,-0.5678,-0.6663,-1.1049,-1.106,-1.323,-1.7582,-1.7582,-1.7582,-1.7582,-1.7582,-1.7582,-1.7582,-1.7582,-1.7582,-1.7582,-1.7582,-1.7582,-1.7582,-1.7582,-1.7582,-1.7582,-1.7582,-1.7582,-1.7582,-2.0087,-2.3855,-2.6753,-2.4415,-2.6142,-2.7441,-2.6181,-2.7075,-2.7422,-2.6161,-2.7211,-2.8037,-2.79,-2.7891,-2.7324,-2.5913,-2.4339,-2.3426,-2.3623,-2.3232,-2.3635,-2.506,-2.3636,-2.2732,-2.2557,-2.2262,-2.2105,-2.2105,-2.2105,-2.1449,-2.0247,-2.0171,-2.1481,-2.3938,-2.5159,-2.5693,-2.5693,-2.5693,-2.5693,-2.5693,-2.5693,-2.5693,-2.5693,-2.5693,-2.5693,-2.5693,-2.5693,-2.5693,-2.5586,-2.4658,-2.4353,-2.4205,-2.3276,-2.3583,-2.3998,-2.2206,-2.1041,-1.9878,-1.8094,-1.7582,-1.7582,-1.7582,-1.7582,-1.7582,-1.7582,-1.7582,-1.7582,-1.7582,-1.7582,-1.7582,-1.7582,-1.7582,-1.6889,-1.4672,-1.5509,-1.5732,-1.3493,-1.3165,-1.3165,-1.3165,-1.1277,-1.0784,-1.3,-1.1214,-0.9916,-0.9879,-0.8573,-0.7754,-0.7715,-0.8493,-0.9932,-1.2143,-1.1541,-1.2555,-1.5466,-1.4022,-1.4697,-1.7582,-1.7582,-1.7582,-1.7582,-1.7582,-1.7582,-1.7582,-1.7582,-1.7582,-1.7582,-1.7582,-1.7582,-1.7582,-1.7582,-1.7582,-1.7582,-1.7582,-1.7582,-1.7582,-2.1159,-2.4644,-2.7269,-2.5112,-2.6721,-2.7791,-2.626,-2.7323,-2.7771,-2.6241,-2.7342,-2.8291,-2.8291,-2.8291,-2.8184,-2.792,-2.5648,-2.5138,-2.735,-2.518,-2.4835,-2.7146,-2.4914,-2.3503,-2.3298,-2.3019,-2.288,-2.288,-2.2732,-2.2574,-2.238,-2.2283,-2.349,-2.5693,-2.5693,-2.5693,-2.5693,-2.5693,-2.5693,-2.5693,-2.5693,-2.5693,-2.5693,-2.5693,-2.5693,-2.5693,-2.5693,-2.5382,-2.4815,-2.3989,-2.3384,-2.2818,-2.1954,-2.1904,-2.2013,-2.1151,-2.0282,-1.9324,-1.7943,-1.7582,-1.7582,-1.7582,-1.7582,-1.7582,-1.7582,-1.7582,-1.7582,-1.7582,-1.7582,-1.7582,-1.7582,-1.7582,-1.7178,-1.5757,-1.6719,-1.7106,-1.5744,-1.482,-1.4307,-1.4307,-1.2351,-1.1855,-1.4078,-1.3033,-1.2244,-1.2244,-1.0236,-0.9353,-1.0132,-0.9899,-1.0789,-1.2997,-1.3039,-1.4142,-1.6332,-1.4975,-1.5386,-1.7582,-1.7582,-1.7582,-1.7582,-1.7582,-1.7582,-1.7582,-1.7582,-1.7582,-1.7582,-1.7582,-1.7582,-1.7582,-1.7582,-1.7582,-1.7582,-1.7582,-1.7582,-1.7582,-2.7526,-2.7907,-2.8242,-2.7927,-2.813,-2.7026,-2.3304,-2.591,-2.6968,-2.321,-2.5967,-2.8291,-2.8291,-2.8291,-2.8291,-2.8291,-2.8062,-2.7989,-2.8281,-2.8062,-2.7814,-2.7767,-2.7477,-2.7133,-2.6684,-2.6645,-2.6754,-2.7012,-2.6592,-2.6182,-2.5732,-2.5703,-2.5693,-2.5693,-2.5693,-2.5693,-2.5693,-2.5693,-2.5693,-2.5693,-2.5693,-2.5693,-2.5693,-2.5693,-2.5693,-2.5693,-2.5586,-2.4766,-2.3683,-2.3484,-2.2567,-2.155,-2.1448,-2.0538,-1.9472,-1.9576,-1.9524,-1.9169,-1.7943,-1.7582,-1.7582,-1.7582,-1.7582,-1.7582,-1.7582,-1.7582,-1.7582,-1.7582,-1.7582,-1.7582,-1.7582,-1.7582,-1.7582,-1.7582,-1.7582,-1.7549,-1.7389,-1.5605,-1.4223,-1.4078,-1.2375,-1.2037,-1.4084,-1.444,-1.4459,-1.4313,-1.2375,-1.2132,-1.4192,-1.0394,-0.9175,-1.1373,-1.1454,-1.2453,-1.4531,-1.4543,-1.5579,-1.7582,-1.7582,-1.7582,-1.7582,-1.7582,-1.7582,-1.7582,-1.7582,-1.7582,-1.7582,-1.7582,-1.7582,-1.7582,-1.7582,-1.7582,-1.7582,-1.7582,-1.7582,-1.7582,-2.0096,-2.4249,-2.7376,-2.4468,-2.6366,-2.797,-2.7016,-2.767,-2.795,-2.7006,-2.7732,-2.8291,-2.8291,-2.8291,-2.8291,-2.8291,-2.5494,-2.5042,-2.8101,-2.5456,-2.5042,-2.8004,-2.5217,-2.3531,-2.3439,-2.3088,-2.4264,-2.7012,-2.6592,-2.6338,-2.623,-2.5889,-2.5693,-2.5693,-2.5693,-2.5693,-2.5693,-2.5693,-2.5693,-2.5693,-2.5693,-2.5693,-2.5693,-2.5693,-2.5693,-2.5586,-2.4559,-2.3949,-2.3384,-2.1304,-2.0341,-1.993,-1.8909,-1.8349,-1.8251,-1.9324,-1.8864,-1.7989,-1.7687,-1.7582,-1.7582,-1.7582,-1.7582,-1.7582,-1.7582,-1.7582,-1.7582,-1.7582,-1.7582,-1.7582,-1.7582,-1.7582,-1.7582,-1.7582,-1.7582,-1.7033,-1.5328,-1.4653,-1.3683,-1.1966,-1.2796,-1.3713,-1.4275,-1.5851,-1.6138,-1.4434,-1.382,-1.3731,-1.4288,-1.3329,-1.3731,-1.5985,-1.603,-1.6293,-1.6798,-1.6798,-1.708,-1.7582,-1.7582,-1.7582,-1.7582,-1.7582,-1.7582,-1.7582,-1.7582,-1.7582,-1.7582,-1.7582,-1.7582,-1.7582,-1.7582,-1.7582,-1.7582,-1.7582,-1.7582,-1.7582,-2.2452,-2.5419,-2.7636,-2.5544,-2.6898,-2.8291,-2.8291,-2.8291,-2.8291,-2.8291,-2.8291,-2.8291,-2.8291,-2.8291,-2.8291,-2.8291,-2.6279,-2.5958,-2.814,-2.625,-2.6047,-2.8179,-2.6222,-2.5061,-2.5061,-2.4836,-2.5572,-2.7314,-2.708,-2.6768,-2.6387,-2.6143,-2.5928,-2.5693,-2.5693,-2.5693,-2.5693,-2.5693,-2.5693,-2.5693,-2.5693,-2.5693,-2.5693,-2.5693,-2.5323,-2.4707,-2.3939,-2.2876,-2.1608,-2.0084,-1.9169,-1.8558,-1.7838,-1.7582,-1.774,-1.8454,-1.8146,-1.7582,-1.7582,-1.7582,-1.7582,-1.7582,-1.7582,-1.7582,-1.7582,-1.7582,-1.7582,-1.7582,-1.7582,-1.7582,-1.7582,-1.7582,-1.7582,-1.7582,-1.6752,-1.565,-1.4459,-1.344,-1.2705,-1.2543,-1.357,-1.4697,-1.5725,-1.6902,-1.7093,-1.5896,-1.4851,-1.4722,-1.575,-1.4839,-1.5322,-1.7535,-1.7582,-1.7582,-1.7582,-1.7582,-1.7582,-1.7582,-1.7582,-1.7582,-1.7582,-1.7582,-1.7582,-1.7582,-1.7582,-1.7582,-1.7582,-1.7582,-1.7582,-1.7582,-1.7582,-1.7582,-1.7582,-1.7582,-1.7582,-1.7582,-2.8291,-2.8291,-2.8291,-2.8291,-2.8291,-2.8291,-2.8291,-2.8291,-2.8291,-2.8291,-2.8291,-2.8291,-2.8291,-2.8291,-2.8291,-2.8291,-2.8291,-2.8291,-2.8291,-2.8291,-2.8291,-2.8291,-2.8291,-2.8291,-2.8291,-2.8291,-2.8115,-2.7816,-2.7748,-2.7346,-2.6582,-2.6445,-2.6191,-2.5781,-2.5713,-2.5693,-2.5693,-2.5693,-2.5693,-2.5693,-2.5693,-2.5693,-2.5684,-2.5479,-2.4707,-2.3642,-2.3235,-2.1558,-1.9576,-1.9376,-1.8558,-1.7582,-1.7582,-1.7582,-1.7582,-1.7582,-1.7582,-1.7582,-1.7582,-1.7582,-1.7582,-1.7582,-1.7582,-1.7582,-1.7582,-1.7582,-1.7582,-1.7582,-1.7582,-1.7582,-1.7582,-1.7582,-1.7508,-1.7178,-1.5511,-1.4186,-1.3838,-1.2465,-1.2215,-1.4072,-1.4581,-1.5518,-1.7409,-1.7582,-1.7582,-1.7582,-1.5871,-1.5618,-1.7515,-1.5845,-1.5643,-1.7542,-1.7582,-1.7582,-1.7582,-1.7582,-1.7582,-1.7582,-1.7582,-1.7582,-1.7582,-1.7582,-1.7582,-1.7582,-1.7582,-1.7582,-1.7582,-1.7582,-1.7582,-1.7582,-1.7582,-1.7582,-1.7582,-1.7582,-1.7582,-1.7582,-2.8291,-2.8291,-2.8291,-2.8291,-2.8291,-2.8291,-2.8291,-2.8291,-2.8291,-2.8291,-2.8291,-2.8291,-2.8291,-2.8291,-2.8291,-2.8291,-2.8291,-2.8291,-2.8291,-2.8291,-2.8291,-2.8291,-2.8291,-2.8291,-2.8291,-2.8291,-2.8262,-2.8193,-2.7894,-2.765,-2.7503,-2.6728,-2.6357,-2.6269,-2.5908,-2.5693,-2.5693,-2.5693,-2.5693,-2.5693,-2.5693,-2.5693,-2.5586,-2.4461,-2.389,-2.3384,-2.1049,-1.9981,-1.9428,-1.8297,-1.7786,-1.7582,-1.7582,-1.7582,-1.7582,-1.7582,-1.7582,-1.7582,-1.7582,-1.7582,-1.7582,-1.7582,-1.7582,-1.7582,-1.7582,-1.7582,-1.7582,-1.7582,-1.7582,-1.7582,-1.7582,-1.7582,-1.7013,-1.5105,-1.4537,-1.3664,-1.1761,-1.2808,-1.3927,-1.4282,-1.5929,-1.7224,-1.7562,-1.7582,-1.7582,-1.7582,-1.7264,-1.7231,-1.7569,-1.7257,-1.7244,-1.7575,-1.7582,-1.7582,-1.7582,-1.7582,-1.7582,-1.7582,-1.7582,-1.7582,-1.7582,-1.7582,-1.7582,-1.7582,-1.7582,-1.7582,-1.7582,-1.7582,-1.7582,-1.7582,-1.7582,-1.7582,-1.7582,-1.7582,-1.7582,-1.7582,-2.8291,-2.8291,-2.8291,-2.8291,-2.8291,-2.8291,-2.8291,-2.8291,-2.8291,-2.8291,-2.8291,-2.8291,-2.8291,-2.8291,-2.8291,-2.8291,-2.8291,-2.8291,-2.8291,-2.8291,-2.8291,-2.8291,-2.8291,-2.8291,-2.8291,-2.8291,-2.8291,-2.8291,-2.8096,-2.7891,-2.7708,-2.7307,-2.6826,-2.6387,-2.6172,-2.5957,-2.5693,-2.5693,-2.5693,-2.5693,-2.5693,-2.5274,-2.4559,-2.3939,-2.2776,-2.1355,-2.0033,-1.9117,-1.8454,-1.7786,-1.7582,-1.7582,-1.7582,-1.7582,-1.7582,-1.7582,-1.7582,-1.7582,-1.7582,-1.7582,-1.7582,-1.7582,-1.7582,-1.7582,-1.7582,-1.7582,-1.7582,-1.7582,-1.7582,-1.7582,-1.7582,-1.7582,-1.7251,-1.6223,-1.508,-1.3939,-1.2911,-1.367,-1.4307,-1.4307,-1.6223,-1.7582,-1.7582,-1.7582,-1.7582,-1.7582,-1.7582,-1.7582,-1.7582,-1.7582,-1.7582,-1.7582,-1.7582,-1.7582,-1.7582,-1.7582,-1.7582,-1.7582,-1.7582,-1.7582,-1.7582,-1.7582,-1.7582,-1.7582,-1.7582,-1.7582,-1.7582,-1.7582,-1.7582,-1.7582,-1.7582,-1.7582,-1.7582,-1.7582,-1.7582,-1.7582,-2.8291,-2.8291,-2.8291,-2.8291,-2.8291,-2.8291,-2.8291,-2.8291,-2.8291,-2.8291,-2.8291,-2.8291,-2.8291,-2.8291,-2.8291,-2.8291,-2.8291,-2.8291,-2.8291,-2.8291,-2.8291,-2.8291,-2.8291,-2.8291,-2.8291,-2.8291,-2.8291,-2.8291,-2.8291,-2.8125,-2.7865,-2.7767,-2.7256,-2.6533,-2.6435,-2.6143,-2.5693,-2.5693,-2.5693,-2.5684,-2.5382,-2.4609,-2.3633,-2.2976,-2.1456,-1.9576,-1.9272,-1.8454,-1.7582,-1.7582,-1.7582,-1.7582,-1.7582,-1.7582,-1.7582,-1.7582,-1.7582,-1.7582,-1.7582,-1.7582,-1.7582,-1.7582,-1.7582,-1.7582,-1.7582,-1.7582,-1.7582,-1.7582,-1.7582,-1.7582,-1.7582,-1.7582,-1.7416,-1.6916,-1.5434,-1.4307,-1.4307,-1.4307,-1.4472,-1.5035,-1.6583,-1.7582,-1.7582,-1.7582,-1.7582,-1.7582,-1.7582,-1.7582,-1.7582,-1.7582,-1.7582,-1.7582,-1.7582,-1.7582,-1.7582,-1.7582,-1.7582,-1.7582,-1.7582,-1.7582,-1.7582,-1.7582,-1.7582,-1.7582,-1.7582,-1.7582,-1.7582,-1.7582,-1.7582,-1.7582,-1.7582,-1.7582,-1.7582,-1.7582,-1.7582,-1.7582,-2.8291,-2.8291,-2.8291,-2.8291,-2.8291,-2.8291,-2.8291,-2.8291,-2.8291,-2.8291,-2.8291,-2.8291,-2.8291,-2.8291,-2.8291,-2.8291,-2.8291,-2.8291,-2.8291,-2.8291,-2.8291,-2.8291,-2.8291,-2.8291,-2.8291,-2.8291,-2.8291,-2.8291,-2.8291,-2.8271,-2.8232,-2.7851,-2.7412,-2.6953,-2.6562,-2.6143,-2.5693,-2.5693,-2.5693,-2.5586,-2.4353,-2.3791,-2.3434,-2.0845,-1.9782,-1.942,-1.8199,-1.7687,-1.7582,-1.7582,-1.7582,-1.7582,-1.7582,-1.7582,-1.7582,-1.7582,-1.7582,-1.7582,-1.7582,-1.7582,-1.7582,-1.7582,-1.7582,-1.7582,-1.7582,-1.7582,-1.7582,-1.7582,-1.7582,-1.7582,-1.7582,-1.7582,-1.6929,-1.4905,-1.4415,-1.4307,-1.4307,-1.4307,-1.5067,-1.7099,-1.7515,-1.7582,-1.7582,-1.7582,-1.7582,-1.7582,-1.7582,-1.7582,-1.7582,-1.7582,-1.7582,-1.7582,-1.7582,-1.7582,-1.7582,-1.7582,-1.7582,-1.7582,-1.7582,-1.7582,-1.7582,-1.7582,-1.7582,-1.7582,-1.7582,-1.7582,-1.7582,-1.7582,-1.7582,-1.7582,-1.7582,-1.7582,-1.7582,-1.7582,-1.7582,-1.7582,-2.8291,-2.8291,-2.8291,-2.8291,-2.8291,-2.8291,-2.8291,-2.8291,-2.8291,-2.8291,-2.8291,-2.8291,-2.8291,-2.8291,-2.8291,-2.8291,-2.8291,-2.8291,-2.8291,-2.8291,-2.8291,-2.8291,-2.8291,-2.8291,-2.8291,-2.8291,-2.8291,-2.8291,-2.8291,-2.8291,-2.8291,-2.8125,-2.7822,-2.7402,-2.6973,-2.6543,-2.6123,-2.5801,-2.5226,-2.4402,-2.3899,-2.2676,-2.1049,-1.9989,-1.9065,-1.8297,-1.7786,-1.7582,-1.7582,-1.7582,-1.7582,-1.7582,-1.7582,-1.7582,-1.7582,-1.7582,-1.7582,-1.7582,-1.7582,-1.7582,-1.7582,-1.7582,-1.7582,-1.7582,-1.7582,-1.7582,-1.7582,-1.7582,-1.7582,-1.7582,-1.7582,-1.7582,-1.7343,-1.648,-1.6338,-1.6338,-1.6338,-1.6338,-1.6642,-1.7515,-1.7582,-1.7582,-1.7582,-1.7582,-1.7582,-1.7582,-1.7582,-1.7582,-1.7582,-1.7582,-1.7582,-1.7582,-1.7582,-1.7582,-1.7582,-1.7582,-1.7582,-1.7582,-1.7582,-1.7582,-1.7582,-1.7582,-1.7582,-1.7582,-1.7582,-1.7582,-1.7582,-1.7582,-1.7582,-1.7582,-1.7582,-1.7582,-1.7582,-1.7582,-1.7582,-1.7582,-2.8291,-2.8291,-2.8291,-2.8291,-2.8291,-2.8291,-2.8291,-2.8291,-2.8291,-2.8291,-2.8291,-2.8291,-2.8291,-2.8291,-2.8291,-2.8291,-2.8291,-2.8291,-2.8291,-2.8291,-2.8291,-2.8291,-2.8291,-2.8291,-2.8291,-2.8291,-2.8291,-2.8291,-2.8291,-2.8291,-2.8291,-2.8291,-2.8066,-2.7708,-2.7353,-2.6982,-2.6562,-2.622,-2.5235,-2.3872,-2.3412,-2.1817,-1.9524,-1.9117,-1.8401,-1.7582,-1.7582,-1.7582,-1.7582,-1.7582,-1.7582,-1.7582,-1.7582,-1.7582,-1.7582,-1.7582,-1.7582,-1.7582,-1.7582,-1.7582,-1.7582,-1.7582,-1.7582,-1.7582,-1.7582,-1.7582,-1.7582,-1.7582,-1.7582,-1.7582,-1.7582,-1.7582,-1.7582,-1.7582,-1.7582,-1.7582,-1.7582,-1.7582,-1.7582,-1.7582,-1.7582,-1.7582,-1.7582,-1.7582,-1.7582,-1.7582,-1.7582,-1.7582,-1.7582,-1.7582,-1.7582,-1.7582,-1.7582,-1.7582,-1.7582,-1.7582,-1.7582,-1.7582,-1.7582,-1.7582,-1.7582,-1.7582,-1.7582,-1.7582,-1.7582,-1.7582,-1.7582,-1.7582,-1.7582,-1.7582,-1.7582,-1.7582,-1.7582,-1.7582,-1.7582,-1.7582,-2.8291,-2.8291,-2.8291,-2.8291,-2.8291,-2.8291,-2.8291,-2.8291,-2.8291,-2.8291,-2.8291,-2.8291,-2.8291,-2.8291,-2.8291,-2.8291,-2.8291,-2.8291,-2.8291,-2.8291,-2.8291,-2.8291,-2.8291,-2.8291,-2.8291,-2.8291,-2.8291,-2.8291,-2.8291,-2.8291,-2.8291,-2.8291,-2.8066,-2.7718,-2.7718,-2.7422,-2.7021,-2.697,-2.5958,-2.4167,-2.2834,-2.1223,-1.9435,-1.8101,-1.7589,-1.7589,-1.7589,-1.7589,-1.7589,-1.7589,-1.7589,-1.7589,-1.7582,-1.7582,-1.7582,-1.7582,-1.7582,-1.7582,-1.7582,-1.7582,-1.7582,-1.7582,-1.7582,-1.7582,-1.7582,-1.7582,-1.7582,-1.7582,-1.7582,-1.7582,-1.7582,-1.7582,-1.7582,-1.7582,-1.7582,-1.7582,-1.7582,-1.7582,-1.7582,-1.7582,-1.7582,-1.7582,-1.7582,-1.7582,-1.7582,-1.7582,-1.7582,-1.7582,-1.7582,-1.7582,-1.7582,-1.7582,-1.7582,-1.7582,-1.7582,-1.7582,-1.7582,-1.7582,-1.7582,-1.7582,-1.7582,-1.7582,-1.7582,-1.7582,-1.7582,-1.7582,-1.7582,-1.7582,-1.7582,-1.7582,-1.7582,-1.7582,-1.7582,-1.7582,-1.7582,-1.7582,-2.8291,-2.8291,-2.8291,-2.8291,-2.8291,-2.8291,-2.8291,-2.8291,-2.8291,-2.8291,-2.8291,-2.8291,-2.8291,-2.8291,-2.8291,-2.8291,-2.8291,-2.8291,-2.8291,-2.8291,-2.8291,-2.8291,-2.8291,-2.8291,-2.8291,-2.8291,-2.8291,-2.8291,-2.8291,-2.8291,-2.8291,-2.8291,-2.8223,-2.8096,-2.7855,-2.7598,-2.7399,-2.606,-2.4584,-2.3058,-2.1628,-2.0151,-1.8809,-1.838,-1.8217,-1.8217,-1.8217,-1.8217,-1.819,-1.7976,-1.7856,-1.7869,-1.7649,-1.7582,-1.7582,-1.7582,-1.7582,-1.7582,-1.7582,-1.7582,-1.7582,-1.7582,-1.7582,-1.7582,-1.7582,-1.7582,-1.7582,-1.7582,-1.7582,-1.7582,-1.7582,-1.7582,-1.7582,-1.7582,-1.7582,-1.7582,-1.7582,-1.7582,-1.7582,-1.7582,-1.7582,-1.7582,-1.7582,-1.7582,-1.7582,-1.7582,-1.7582,-1.7582,-1.7582,-1.7582,-1.7582,-1.7582,-1.7582,-1.7582,-1.7582,-1.7582,-1.7582,-1.7582,-1.7582,-1.7582,-1.7582,-1.7582,-1.7582,-1.7582,-1.7582,-1.7582,-1.7582,-1.7582,-1.7582,-1.7582,-1.7582,-1.7582,-1.7582,-1.7582,-1.7582,-1.7582,-2.8291,-2.8291,-2.8291,-2.8291,-2.8291,-2.8291,-2.8291,-2.8291,-2.8291,-2.8291,-2.8291,-2.8291,-2.8291,-2.8291,-2.8291,-2.8291,-2.8291,-2.8291,-2.8291,-2.8291,-2.8291,-2.8291,-2.8291,-2.8291,-2.8291,-2.8291,-2.8291,-2.8291,-2.8291,-2.8291,-2.8291,-2.8291,-2.8291,-2.8281,-2.8027,-2.7627,-2.7005,-2.5823,-2.4055,-2.1984,-2.1122,-1.9816,-1.849,-1.849,-1.849,-1.849,-1.849,-1.849,-1.8464,-1.8283,-1.8223,-1.819,-1.8003,-1.7943,-1.7923,-1.7802,-1.7762,-1.7742,-1.7615,-1.7582,-1.7582,-1.7582,-1.7582,-1.7582,-1.7582,-1.7582,-1.7582,-1.7582,-1.7582,-1.7582,-1.7582,-1.7582,-1.7582,-1.7582,-1.7582,-1.7582,-1.7582,-1.7582,-1.7582,-1.7582,-1.7582,-1.7582,-1.7582,-1.7582,-1.7582,-1.7582,-1.7582,-1.7582,-1.7582,-1.7582,-1.7582,-1.7582,-1.7582,-1.7582,-1.7582,-1.7582,-1.7582,-1.7582,-1.7582,-1.7582,-1.7582,-1.7582,-1.7582,-1.7582,-1.7582,-1.7582,-1.7582,-1.7582,-1.7582,-1.7582,-1.7582,-1.7582,-1.7582,-1.7582,-1.7582,-1.7582,-2.8291,-2.8291,-2.8291,-2.8291,-2.8291,-2.8291,-2.8291,-2.8291,-2.8291,-2.8291,-2.8291,-2.8291,-2.8291,-2.8291,-2.8291,-2.8291,-2.8291,-2.8291,-2.8291,-2.8291,-2.8291,-2.8291,-2.8291,-2.8291,-2.8291,-2.8291,-2.8291,-2.8291,-2.8291,-2.8291,-2.8291,-2.8291,-2.8291,-2.8291,-2.8291,-2.7501,-2.61,-2.5927,-2.4065,-2.113,-2.1026,-1.9989,-1.8571,-1.8571,-1.8571,-1.8571,-1.8571,-1.8571,-1.8564,-1.8537,-1.851,-1.849,-1.849,-1.849,-1.8437,-1.8109,-1.8035,-1.7969,-1.7742,-1.7642,-1.7622,-1.7622,-1.7602,-1.7582,-1.7582,-1.7582,-1.7582,-1.7582,-1.7582,-1.7582,-1.7582,-1.7582,-1.7582,-1.7582,-1.7582,-1.7582,-1.7582,-1.7582,-1.7582,-1.7582,-1.7582,-1.7582,-1.7582,-1.7582,-1.7582,-1.7582,-1.7582,-1.7582,-1.7582,-1.7582,-1.7582,-1.7582,-1.7582,-1.7582,-1.7582,-1.7582,-1.7582,-1.7582,-1.7582,-1.7582,-1.7582,-1.7582,-1.7582,-1.7582,-1.7582,-1.7582,-1.7582,-1.7582,-1.7582,-1.7582,-1.7582,-1.7582,-1.7582,-1.7582,-1.7582,-1.7582,-2.8291,-2.8291,-2.8291,-2.8291,-2.8291,-2.8291,-2.8291,-2.8291,-2.8291,-2.8291,-2.8291,-2.8291,-2.8291,-2.8291,-2.8291,-2.8291,-2.8291,-2.8291,-2.8291,-2.8291,-2.8291,-2.8291,-2.8291,-2.8291,-2.8291,-2.8291,-2.8291,-2.8291,-2.8291,-2.8291,-2.8291,-2.8291,-2.8291,-2.8291,-2.8291,-2.7501,-2.6045,-2.482,-2.3215,-2.1368,-2.0208,-1.9564,-1.9178,-1.9178,-1.9178,-1.9178,-1.9178,-1.9178,-1.9138,-1.8905,-1.8677,-1.849,-1.849,-1.849,-1.8477,-1.841,-1.8397,-1.8384,-1.831,-1.8123,-1.7896,-1.7896,-1.7762,-1.7582,-1.7582,-1.7582,-1.7582,-1.7582,-1.7582,-1.7582,-1.7582,-1.7582,-1.7582,-1.7582,-1.7582,-1.7582,-1.7582,-1.7582,-1.7582,-1.7582,-1.7582,-1.7582,-1.7582,-1.7582,-1.7582,-1.7582,-1.7582,-1.7582,-1.7582,-1.7582,-1.7582,-1.7582,-1.7582,-1.7582,-1.7582,-1.7582,-1.7582,-1.7582,-1.7582,-1.7582,-1.7582,-1.7582,-1.7582,-1.7582,-1.7582,-1.7582,-1.7582,-1.7582,-1.7582,-1.7582,-1.7582,-1.7582,-1.7582,-1.7582,-1.7582,-1.7417,-2.8174,-2.7726,-2.7222,-2.7222,-2.7843,-2.8067,-2.734,-2.7222,-2.7501,-2.8237,-2.7672,-2.7501,-2.8228,-2.8291,-2.8291,-2.8291,-2.8291,-2.8291,-2.8291,-2.8291,-2.8291,-2.8291,-2.8291,-2.8291,-2.8291,-2.8291,-2.8291,-2.8291,-2.8291,-2.8291,-2.8291,-2.8291,-2.8291,-2.8291,-2.7555,-2.6381,-2.4875,-2.3375,-2.1926,-2.0479,-1.97,-1.9424,-1.9424,-1.9424,-1.9424,-1.9424,-1.9424,-1.9424,-1.9345,-1.9185,-1.9032,-1.8905,-1.8905,-1.8905,-1.8885,-1.8738,-1.8698,-1.8664,-1.8524,-1.8377,-1.8257,-1.8257,-1.8136,-1.7936,-1.7649,-1.7582,-1.7582,-1.7582,-1.7582,-1.7582,-1.7582,-1.7582,-1.7582,-1.7582,-1.7582,-1.7582,-1.7582,-1.7582,-1.7582,-1.7582,-1.7582,-1.7582,-1.7582,-1.7582,-1.7582,-1.7582,-1.7582,-1.7582,-1.7582,-1.7582,-1.7582,-1.7582,-1.7582,-1.7582,-1.7582,-1.7582,-1.7582,-1.7582,-1.7582,-1.7582,-1.7582,-1.7582,-1.7582,-1.7582,-1.7582,-1.7582,-1.7582,-1.7582,-1.7582,-1.7582,-1.7582,-1.7582,-1.7582,-1.7582,-1.7147,-1.6227,-2.7286,-2.6554,-2.5709,-2.5709,-2.6717,-2.7114,-2.5873,-2.5709,-2.6164,-2.7394,-2.6717,-2.6554,-2.778,-2.8121,-2.8291,-2.8291,-2.8291,-2.8291,-2.8291,-2.8291,-2.8291,-2.8291,-2.8291,-2.8291,-2.8291,-2.8291,-2.8291,-2.8291,-2.8291,-2.8291,-2.8291,-2.8291,-2.8184,-2.7843,-2.6662,-2.5096,-2.3319,-2.2145,-2.0759,-1.9424,-1.9424,-1.9424,-1.9424,-1.9424,-1.9424,-1.9424,-1.9424,-1.9424,-1.9424,-1.9424,-1.9424,-1.9424,-1.9424,-1.9424,-1.9377,-1.9072,-1.8998,-1.8945,-1.8704,-1.8604,-1.8564,-1.8564,-1.8524,-1.8357,-1.7849,-1.7695,-1.7649,-1.7595,-1.7582,-1.7582,-1.7582,-1.7582,-1.7582,-1.7582,-1.7582,-1.7582,-1.7582,-1.7582,-1.7582,-1.7582,-1.7582,-1.7582,-1.7582,-1.7582,-1.7582,-1.7582,-1.7582,-1.7582,-1.7582,-1.7582,-1.7582,-1.7582,-1.7582,-1.7582,-1.7582,-1.7582,-1.7582,-1.7582,-1.7582,-1.7582,-1.7582,-1.7582,-1.7582,-1.7582,-1.7582,-1.7582,-1.7582,-1.7312,-1.7199,-1.7199,-1.7199,-1.7199,-1.7199,-1.7199,-1.6121,-1.4341,-2.4378,-2.4267,-2.41,-2.41,-2.4267,-2.4322,-2.4156,-2.41,-2.4156,-2.4378,-2.538,-2.6155,-2.6381,-2.7565,-2.8291,-2.8291,-2.8291,-2.8291,-2.8291,-2.8291,-2.8291,-2.8291,-2.8291,-2.8291,-2.8291,-2.8291,-2.8291,-2.8291,-2.8291,-2.8291,-2.8291,-2.8291,-2.7618,-2.6381,-2.6209,-2.4535,-2.1862,-2.1692,-2.0759,-1.9424,-1.9424,-1.9424,-1.9424,-1.9424,-1.9424,-1.9424,-1.9424,-1.9424,-1.9424,-1.9424,-1.9424,-1.9424,-1.9424,-1.9424,-1.9417,-1.9377,-1.9305,-1.9299,-1.9316,-1.9065,-1.8865,-1.8865,-1.8677,-1.847,-1.8384,-1.817,-1.7856,-1.7642,-1.7582,-1.7582,-1.7582,-1.7582,-1.7582,-1.7582,-1.7582,-1.7582,-1.7582,-1.7582,-1.7582,-1.7582,-1.7582,-1.7582,-1.7582,-1.7582,-1.7582,-1.7582,-1.7582,-1.7582,-1.7582,-1.7582,-1.7582,-1.7582,-1.7582,-1.7582,-1.7582,-1.7582,-1.7582,-1.7582,-1.7582,-1.7582,-1.7582,-1.7582,-1.7582,-1.7582,-1.7582,-1.7582,-1.7477,-1.6227,-1.5689,-1.5689,-1.5689,-1.5689,-1.5689,-1.5689,-1.4014,-1.1647,-2.6,-2.4267,-2.2814,-2.3654,-2.3822,-2.3543,-2.2702,-2.2589,-2.287,-2.371,-2.3702,-2.3925,-2.471,-2.538,-2.6109,-2.6997,-2.707,-2.707,-2.7051,-2.7051,-2.7051,-2.7051,-2.7051,-2.7447,-2.8291,-2.8291,-2.8291,-2.8291,-2.8291,-2.8291,-2.8291,-2.8291,-2.7501,-2.6045,-2.5206,-2.3599,-2.1529,-2.0702,-1.9982,-1.9424,-1.9424,-1.9424,-1.9424,-1.9424,-1.9424,-1.9424,-1.9424,-1.9424,-1.9424,-1.9424,-1.9424,-1.9424,-1.9424,-1.9424,-1.9424,-1.9424,-1.9424,-1.9424,-1.9424,-1.9272,-1.9172,-1.9172,-1.9072,-1.8938,-1.8771,-1.8631,-1.845,-1.815,-1.7956,-1.7842,-1.7842,-1.7702,-1.7582,-1.7582,-1.7582,-1.7582,-1.7582,-1.7582,-1.7582,-1.7582,-1.7582,-1.7582,-1.7582,-1.7582,-1.7582,-1.7582,-1.7582,-1.7582,-1.7582,-1.7582,-1.7582,-1.7582,-1.7582,-1.7582,-1.7582,-1.7582,-1.7582,-1.7582,-1.677,-1.6823,-1.7582,-1.7582,-1.7582,-1.7582,-1.7582,-1.7147,-1.6333,-1.5689,-1.4931,-1.4234,-1.4234,-1.4234,-1.4126,-1.3318,-1.2186,-1.1]},{"header":{"parameterUnit":"m.s-1","parameterCategory":1,"la1":30.6,"la2":28.766,"lo1":-90.7593,"lo2":-88.6598,"dy":0.0162,"dx":0.0183,"nx":116,"ny":114,"refTime":"2023-09-30T12:00:00:Z","depth":0,"parameterNumber":3,"parameterNumberName":"V-component_of_WINDS"},"data":[0.0,0.0,0.0,0.0,0.0,0.0,0.0,0.0,0.0,0.0,0.0,0.0,0.0,0.0,0.0,0.0,0.0,0.0,0.0,0.0,0.0,0.0,0.0,0.0,0.0,0.0,0.0,0.0,0.0,0.0,0.0,0.0,0.0,0.0,0.0,0.0,0.0,0.0,0.0,0.0,0.0,0.0,0.0,0.0,0.0,0.0,0.0,0.0,0.0,0.0,0.0,0.0,0.0,0.0,0.0,0.0,0.0,0.0,0.0,0.0,0.0,0.0,0.0,0.0,0.0,0.0,0.0,0.0,0.0,0.0,0.0,0.0,0.0,0.0,0.0,0.0,0.0,0.0,0.0,0.0,0.0,0.0,0.0,0.0,0.0,0.0,0.0,0.0,0.0,0.0,0.0,0.0,0.0,0.0,0.0,0.0,0.0,0.0,0.0,0.0,0.0,0.0,0.0,0.0,0.0,0.0,0.0,0.0,0.0,0.0,0.0,0.0,0.0,0.0,0.0,0.0,0.0,0.0,0.0,0.0,0.0,0.0,0.0,0.0,0.0,0.0,0.0,0.0,0.0,0.0,0.0,0.0,0.0,0.0,0.0,0.0,0.0,0.0,0.0,0.0,0.0,0.0,0.0,0.0,0.0,0.0,0.0,0.0,0.0,0.0,0.0,0.0,0.0,0.0,0.0,0.0,0.0,0.0,0.0,0.0,0.0,0.0,0.0,0.0,0.0,0.0,0.0,0.0,0.0,0.0,0.0,0.0,0.0,0.0,0.0,0.0,0.0,0.0,0.0,0.0,0.0,0.0,0.0,0.0,0.0,0.0,0.0,0.0,0.0,0.0,0.0,0.0,0.0,0.0,0.0,0.0,0.0,0.0,0.0,0.0,0.0,0.0,0.0,0.0,0.0,0.0,0.0,0.0,0.0,0.0,0.0,0.0,0.0,0.0,0.0,0.0,0.0,0.0,0.0,0.0,0.0,0.0,0.0,0.0,0.0,0.0,0.0,0.0,0.0,0.0,0.0,0.0,0.0,0.0,0.0,0.0,0.0,0.0,0.0,0.0,0.0,0.0,0.0,0.0,0.0,0.0,0.0,0.0,0.0,0.0,0.0,0.0,0.0,0.0,0.0,0.0,0.0,0.0,0.0,0.0,0.0,0.0,0.0,0.0,0.0,0.0,0.0,0.0,0.0,0.0,0.0,0.0,0.0,0.0,0.0,0.0,0.0,0.0,0.0,0.0,0.0,0.0,0.0,0.0,0.0,0.0,0.0,0.0,0.0,0.0,0.0,0.0,0.0,0.0,0.0,0.0,0.0,0.0,0.0,0.0,0.0,0.0,0.0,0.0,0.0,0.0,0.0,0.0,0.0,0.0,0.0,0.0,0.0,0.0,0.0,0.0,0.0,0.0,0.0,0.0,0.0,0.0,0.0,0.0,0.0,0.0,0.0,0.0,0.0,0.0,0.0,0.0,0.0,0.0,0.0,0.0,0.0,0.0,0.0,0.0,0.0,0.0,0.0,0.0,0.0,0.0,0.0,0.0,0.0,0.0,0.0,0.0,0.0,0.0,0.0,0.0,0.0,0.0,0.0,0.0,0.0,0.0,0.0,0.0,0.0,0.0,0.0,0.0,0.0,0.0,0.0,0.0,0.0,0.0,0.0,0.0,0.0,0.0,0.0,0.0,0.0,0.0,0.0,0.0,0.0,0.0,0.0,0.0,0.0,0.0,0.0,0.0,0.0,0.0,0.0,0.0,0.0,0.0,0.0,0.0,0.0,0.0,0.0,0.0,0.0,0.0,0.0,0.0,0.0,0.0,0.0,0.0,0.0,0.0,0.0,0.0,0.0,0.0,0.0,0.0,0.0,0.0,0.0,0.0,0.0,0.0,0.0,0.0,0.0,0.0,0.0,0.0,0.0,0.0,0.0,0.0,0.0,0.0,0.0,0.0,0.0,0.0,0.0,0.0,0.0,0.0,0.0,0.0,0.0,0.0,0.0,0.0,0.0,0.0,0.0,0.0,0.0,0.0,0.0,0.0,0.0,0.0,0.0,0.0,0.0,0.0,0.0,0.0,0.0,0.0,0.0,0.0,0.0,0.0,0.0,0.0,0.0,0.0,0.0,0.0,0.0,0.0,0.0,0.0,0.0,0.0,0.0,0.0,0.0,0.0,0.0,0.0,0.0,0.0,0.0,0.0,0.0,0.0,0.0,0.0,0.0,0.0,0.0,0.0,0.0,0.0,0.0,0.0,0.0,0.0,0.0,0.0,0.0,0.0,0.0,0.0,0.0,0.0,0.0,0.0,0.0,0.0,0.0,0.0,0.0,0.0,0.0,0.0,0.0,0.0,0.0,0.0,0.0,0.0,0.0,0.0,0.0,0.0,0.0,0.0,0.0,0.0,0.0,0.0,0.0,0.0,0.0,0.0,0.0,0.0,0.0,0.0,0.0,0.0,0.0,0.0,0.0,0.0,0.0,0.0,0.0,0.0,0.0,0.0,0.0,0.0,0.0,0.0,0.0,0.0,0.0,0.0,0.0,0.0,0.0,0.0,0.0,0.0,0.0,0.0,0.0,0.0,0.0,0.0,0.0,0.0,0.0,0.0,0.0,0.0,0.0,0.0,0.0,0.0,0.0,0.0,0.0,0.0,0.0,0.0,0.0,0.0,0.0,0.0,0.0,0.0,0.0,0.0,0.0,0.0,0.0,0.0,0.0,0.0,0.0,0.0,0.0,0.0,0.0,0.0,0.0,0.0,0.0,0.0,0.0,0.0,0.0,0.0,0.0,0.0,0.0,0.0,0.0,0.0,0.0,0.0,0.0,0.0,0.0,0.0,0.0,0.0,0.0,0.0,0.0,0.0,0.0,0.0,0.0,0.0,0.0,0.0,0.0,0.0,0.0,0.0,0.0,0.0,0.0,0.0,0.0,0.0,0.0,0.0,0.0,0.0,0.0,0.0,0.0,0.0,0.0,0.0,0.0,0.0,0.0,0.0,0.0,0.0,0.0,0.0,0.0,0.0,0.0,0.0,0.0,0.0,0.0,0.0,0.0,0.0,0.0,0.0,0.0,0.0,0.0,0.0,0.0,0.0,0.0,0.0,0.0,0.0,0.0,0.0,0.0,0.0,0.0,0.0,0.0,0.0,0.0,0.0,0.0,0.0,0.0,0.0,0.0,0.0,0.0,0.0,0.0,0.0,0.0,0.0,0.0,0.0,0.0,0.0,0.0,0.0,0.0,0.0,0.0,0.0,0.0,0.0,0.0,0.0,0.0,0.0,0.0,0.0,0.0,0.0,0.0,0.0,0.0,0.0,0.0,0.0,0.0,0.0,0.0,0.0,0.0,0.0,0.0,0.0,0.0,0.0,0.0,0.0,0.0,0.0,0.0,0.0,0.0,0.0,0.0,0.0,0.0,0.0,0.0,0.0,0.0,0.0,0.0,0.0,0.0,0.0,0.0,0.0,0.0,0.0,0.0,0.0,0.0,0.0,0.0,0.0,0.0,0.0,0.0,0.0,0.0,0.0,0.0,0.0,0.0,0.0,0.0,0.0,0.0,0.0,0.0,0.0,0.0,0.0,0.0,0.0,0.0,0.0,0.0,0.0,0.0,0.0,0.0,0.0,0.0,0.0,0.0,0.0,0.0,0.0,0.0,0.0,0.0,0.0,0.0,0.0,0.0,0.0,0.0,0.0,0.0,0.0,0.0,0.0,0.0,0.0,0.0,0.0,0.0,0.0,0.0,0.0,0.0,0.0,0.0,0.0,0.0,0.0,0.0,0.0,0.0,0.0,0.0,0.0,0.0,0.0,0.0,0.0,0.0,0.0,0.0,0.0,0.0,0.0,0.0,0.0,0.0,0.0,0.0,0.0,0.0,0.0,0.0,0.0,0.0,0.0,0.0,0.0,0.0,0.0,0.0,0.0,0.0,0.0,0.0,0.0,0.0,0.0,0.0,0.0,0.0,0.0,0.0,0.0,0.0,0.0,0.0,0.0,0.0,0.0,0.0,0.0,0.0,0.0,0.0,0.0,0.0,0.0,0.0,0.0,0.0,0.0,0.0,0.0,0.0,0.0,0.0,0.0,0.0,0.0,0.0,0.0,0.0,0.0,0.0,0.0,0.0,0.0,0.0,0.0,0.0,0.0,0.0,0.0,0.0,0.0,0.0,0.0,0.0,0.0,0.0,0.0,0.0,0.0,0.0,0.0,0.0,0.0,0.0,0.0,0.0,0.0,0.0,0.0,0.0,0.0,0.0,0.0,0.0,0.0,0.0,0.0,0.0,0.0,0.0,0.0,0.0,0.0,0.0,0.0,0.0,0.0,0.0,0.0,0.0,0.0,0.0,0.0,0.0,0.0,0.0,0.0,0.0,0.0,0.0,0.0,0.0,0.0,0.0,0.0,0.0,0.0,0.0,0.0,0.0,0.0,0.0,0.0,0.0,0.0,0.0,0.0,0.0,0.0,0.0,0.0,0.0,0.0,0.0,0.0,0.0,0.0,0.0,0.0,0.0,0.0,0.0,0.0,0.0,0.0,0.0,0.0,0.0,0.0,0.0,0.0,0.0,0.0,0.0,0.0,0.0,0.0,0.0,0.0,0.0,0.0,0.0,0.0,0.0,0.0,0.0,0.0,0.0,0.0,0.0,0.0,0.0,0.0,0.0,0.0,0.0,0.0,0.0,0.0,0.0,0.0,0.0,0.0,0.0,0.0,0.0,0.0,0.0,0.0,0.0,0.0,0.0,0.0,0.0,0.0,0.0,0.0,0.0,0.0,0.0,0.0,0.0,0.0,0.0,0.0,0.0,0.0,0.0,0.0,0.0,0.0,0.0,0.0,0.0,0.0,0.0,0.0,0.0,0.0,0.0,0.0,0.0,0.0,0.0,0.0,0.0,0.0,0.0,0.0,0.0,0.0,0.0,0.0,0.0,0.0,0.0,0.0,0.0,0.0,0.0,0.0,0.0,0.0,0.0,0.0,0.0,0.0,0.0,0.0,0.0,0.0,0.0,0.0,0.0,0.0,0.0,0.0,0.0,0.0,0.0,0.0,0.0,0.0,0.0,0.0,0.0,0.0,0.0,0.0,0.0,0.0,0.0,0.0,0.0,0.0,0.0,0.0,0.0,0.0,0.0,0.0,0.0,0.0,0.0,0.0,0.0,0.0,0.0,0.0,0.0,0.0,0.0,0.0,0.0,0.0,0.0,0.0,0.0,0.0,0.0,0.0,0.0,0.0,0.0,0.0,0.0,0.0,0.0,0.0,0.0,0.0,0.0,0.0,0.0,0.0,0.0,0.0,0.0,0.0,0.0,0.0,0.0,0.0,0.0,0.0,0.0,0.0,0.0,0.0,0.0,0.0,0.0,0.0,0.0,0.0,0.0,0.0,0.0,0.0,0.0,0.0,0.0,0.0,0.0,0.0,0.0,0.0,0.0,0.0,0.0,0.0,0.0,0.0,0.0,0.0,0.0,0.0,0.0,0.0,0.0,0.0,0.0,0.0,0.0,0.0,0.0,0.0,0.0,0.0,0.0,0.0,0.0,0.0,0.0,0.0,0.0,0.0,0.0,0.0,0.0,0.0,0.0,0.0,0.0,0.0,0.0,0.0,0.0,0.0,0.0,0.0,0.0,0.0,0.0,0.0,0.0,0.0,0.0,0.0,0.0,0.0,0.0,0.0,0.0,0.0,0.0,0.0,0.0,0.0,0.0,0.0,0.0,0.0,0.0,0.0,0.0,0.0,0.0,0.0,0.0,0.0,0.0,0.0,0.0,0.0,0.0,0.0,0.0,0.0,0.0,0.0,0.0,0.0,0.0,0.0,0.0,0.0,0.0,0.0,0.0,0.0,0.0,0.0,0.0,0.0,0.0,0.0,0.0,0.0,0.0,0.0,0.0,0.0,0.0,0.0,0.0,0.0,0.0,0.0,0.0,0.0,0.0,0.0,0.0,0.0,0.0,0.0,0.0,0.0,0.0,0.0,0.0,0.0,0.0,0.0,0.0,0.0,0.0,0.0,0.0,0.0,0.0,0.0,0.0,0.0,0.0,0.0,0.0,0.0,0.0,0.0,0.0,0.0,0.0,0.0,0.0,0.0,0.0,0.0,0.0,0.0,1.7603,1.3004,0.0,0.0,0.0,0.0,0.0,0.0,0.0,0.0,0.0,0.0,0.0,0.0,0.0,0.0,0.0,0.0,0.0,0.0,0.0,0.0,0.0,0.0,0.0,0.0,0.0,0.0,0.0,0.0,0.0,0.0,0.0,0.0,0.0,0.0,0.0,0.0,0.0,1.5576,1.6227,1.7017,1.7949,1.8482,1.7633,1.5631,0.0,0.0,0.0,0.0,0.0,0.0,0.0,0.0,0.0,0.0,0.0,0.0,0.0,0.0,0.0,0.0,0.0,0.0,0.0,0.0,0.0,0.0,0.0,0.0,0.0,0.0,0.0,0.0,0.0,0.0,0.0,0.0,0.0,0.0,0.0,0.0,0.0,0.0,0.0,0.0,0.0,0.0,0.0,0.0,0.0,0.0,0.0,0.0,0.0,0.0,0.0,0.0,0.0,0.0,0.0,0.0,0.0,0.0,0.0,0.0,0.0,0.0,0.0,0.0,0.0,0.0,0.0,0.0,0.0,0.0,2.0991,1.8913,0.0,0.0,0.0,0.0,0.0,0.0,0.0,0.0,0.0,0.0,0.0,0.0,0.0,0.0,0.0,0.0,0.0,0.0,0.0,0.0,0.0,0.0,0.0,1.6795,1.6766,1.5815,1.6348,1.6153,1.482,0.0,0.0,0.0,0.0,0.0,1.494,1.5304,1.5885,1.667,1.8139,1.9659,2.1245,2.135,1.9487,1.6021,1.6021,0.0,0.0,0.0,0.0,0.0,0.0,0.0,0.0,0.0,0.0,0.0,0.0,0.0,0.0,0.0,0.0,0.0,0.0,0.0,0.0,0.0,0.0,0.0,0.0,0.0,0.0,0.0,0.0,0.0,0.0,0.0,0.0,0.0,0.0,0.0,0.0,0.0,0.0,0.0,0.0,0.0,0.0,0.0,0.0,0.0,0.0,0.0,0.0,0.0,0.0,0.0,0.0,0.0,0.0,0.0,0.0,0.0,0.0,0.0,0.0,0.0,0.0,0.0,2.2238,2.2729,2.3108,2.317,2.3417,2.3857,2.5142,2.6087,2.6451,2.3189,0.0,0.0,0.0,0.0,0.0,0.0,0.0,0.0,0.0,0.0,0.0,0.0,0.0,0.0,0.0,0.0,0.0,0.0,0.0,1.5158,1.619,1.5933,1.5732,1.5853,1.5963,1.5695,1.4925,0.0,0.0,0.0,0.0,0.0,1.5098,1.6626,1.7669,1.8113,2.0055,2.1114,2.1381,2.1395,2.1092,2.0545,2.0545,1.955,1.7853,0.0,0.0,0.0,0.0,0.0,0.0,0.0,0.0,0.0,0.0,0.0,0.0,0.0,0.0,0.0,0.0,0.0,0.0,0.0,0.0,0.0,0.0,0.0,0.0,0.0,0.0,0.0,0.0,0.0,0.0,0.0,0.0,0.0,0.0,0.0,0.0,0.0,0.0,0.0,0.0,0.0,1.7448,1.9874,0.0,0.0,0.0,0.0,0.0,0.0,0.0,0.0,0.0,0.0,0.0,0.0,0.0,1.9471,2.0165,2.3573,2.5296,2.5345,2.8374,2.9856,2.9912,3.0283,3.0452,3.036,2.7644,0.0,2.6665,2.6143,0.0,0.0,0.0,0.0,0.0,0.0,0.0,0.0,0.0,0.0,0.0,0.0,0.0,0.0,0.0,0.0,0.0,0.0,0.0,0.0,0.0,1.6097,1.6585,1.5894,1.702,1.7147,1.5721,1.5912,0.0,0.0,0.0,1.5807,1.5939,1.6722,1.8337,2.0824,2.321,2.4762,2.546,2.5839,2.601,2.601,2.601,2.3976,2.0544,2.0544,0.0,0.0,0.0,0.0,0.0,0.0,0.0,0.0,0.0,0.0,0.0,0.0,0.0,0.0,0.0,0.0,0.0,0.0,0.0,0.0,0.0,0.0,0.0,0.0,0.0,0.0,0.0,0.0,0.0,0.0,0.0,0.0,0.0,0.0,0.0,0.0,0.0,0.0,0.0,1.799,2.0303,2.1954,2.2156,2.077,0.0,0.0,0.0,0.0,0.0,0.0,0.0,0.0,0.0,2.2035,2.3236,2.4203,2.4971,2.8025,2.9757,3.0183,3.1712,3.2587,3.2848,3.3009,3.3384,3.3805,3.225,3.1787,3.182,2.8441,2.6751,2.6054,0.0,0.0,0.0,0.0,1.8434,2.0107,0.0,0.0,0.0,0.0,0.0,0.0,0.0,0.0,0.0,0.0,0.0,0.0,1.4598,1.6676,1.7732,1.6803,1.8264,1.8556,1.6891,1.6942,1.6629,1.5649,1.5602,1.5914,1.6565,1.7782,2.0251,2.4007,2.6318,2.792,2.8861,2.9382,2.9606,2.9606,2.9606,2.7386,2.362,2.362,2.2566,2.0803,0.0,0.0,0.0,0.0,0.0,0.0,0.0,0.0,0.0,0.0,0.0,0.0,0.0,0.0,0.0,0.0,0.0,0.0,0.0,0.0,0.0,0.0,0.0,0.0,0.0,0.0,0.0,0.0,0.0,0.0,0.0,0.0,0.0,0.0,0.0,0.0,0.0,2.0662,2.3105,2.4415,2.5351,2.4498,0.0,0.0,0.0,0.0,0.0,0.0,2.3814,2.3881,2.449,2.577,2.7757,2.9056,2.9609,3.1587,3.2848,3.3406,3.3406,3.3577,3.3908,3.3908,3.4284,3.4959,3.4959,3.52,3.5241,3.1251,2.9229,2.8579,2.8143,2.5783,2.2606,2.245,2.3311,2.4642,0.0,0.0,0.0,0.0,0.0,0.0,0.0,0.0,0.0,0.0,0.0,1.5565,1.6289,1.7563,1.8611,1.9169,1.932,1.9096,1.8429,1.7628,1.6968,1.6464,1.6442,1.646,1.6506,2.0988,2.4721,2.7543,2.8827,2.9492,2.9562,2.9592,2.9606,2.9606,2.9606,2.8724,2.7252,2.7252,2.6402,2.4885,2.2464,0.0,0.0,0.0,0.0,0.0,0.0,0.0,0.0,0.0,0.0,0.0,0.0,0.0,0.0,0.0,0.0,0.0,0.0,0.0,0.0,0.0,0.0,0.0,0.0,0.0,0.0,0.0,0.0,0.0,0.0,0.0,0.0,0.0,0.0,0.0,0.0,0.0,0.0,2.7741,3.0922,0.0,0.0,0.0,0.0,2.4067,2.4649,2.6288,2.8881,2.9037,3.0211,3.2812,3.3008,3.3109,3.3139,3.3271,3.3372,3.3406,3.3406,3.3406,3.3448,3.3448,3.3452,3.3515,3.3515,3.3515,3.3666,3.5211,3.5811,3.5491,3.2573,3.1299,3.0724,2.7781,2.8606,3.1224,0.0,0.0,0.0,0.0,0.0,0.0,0.0,0.0,1.3492,1.3405,1.4967,1.5989,1.5752,1.8132,1.9641,1.9353,2.0532,2.081,1.9735,1.892,1.8278,1.7814,1.6956,1.7359,1.9151,2.3341,2.597,2.6954,2.9123,3.0178,3.0178,3.0627,3.0808,3.0808,3.0808,3.08,3.0728,2.9823,2.8609,2.7253,2.6355,2.3547,0.0,0.0,0.0,0.0,0.0,0.0,0.0,0.0,0.0,0.0,0.0,0.0,0.0,0.0,0.0,0.0,0.0,0.0,0.0,0.0,0.0,0.0,0.0,0.0,0.0,0.0,0.0,0.0,0.0,0.0,0.0,0.0,0.0,0.0,0.0,0.0,0.0,2.8706,3.011,0.0,2.9075,2.923,2.8881,2.7637,2.942,3.0978,3.1915,3.1966,3.2417,3.3372,3.3406,3.3626,3.41,3.4117,3.4353,3.4822,3.4822,3.4822,3.4822,3.4822,3.5006,3.5328,3.5328,3.552,3.5902,3.6595,3.6095,3.4835,3.4341,3.4152,3.4053,3.3276,3.3702,3.4739,0.0,0.0,0.0,0.0,0.0,0.0,0.0,1.2706,1.3226,1.3864,1.5232,1.6198,1.627,1.8625,2.0148,2.0051,2.1432,2.1878,2.0855,2.0071,1.9345,1.8701,1.8146,1.9193,2.2045,2.5194,2.7124,2.778,2.9841,3.0851,3.0866,3.1286,3.1511,3.1511,3.1511,3.1768,3.217,3.1224,3.0567,3.0074,2.9206,2.5996,2.1661,0.0,0.0,0.0,0.0,0.0,0.0,0.0,0.0,0.0,0.0,0.0,0.0,0.0,0.0,0.0,0.0,0.0,0.0,0.0,0.0,0.0,0.0,0.0,0.0,0.0,0.0,0.0,0.0,0.0,0.0,0.0,0.0,0.0,0.0,2.3565,2.7303,2.9582,3.0816,3.1492,3.1492,3.1492,3.1492,3.1492,3.3128,3.4129,3.4129,3.4129,3.4129,3.4129,3.4404,3.4776,3.5267,3.552,3.5893,3.6377,3.6377,3.6377,3.6377,3.6377,3.6076,3.56,3.6509,3.6586,3.6161,3.7053,3.6627,3.5428,3.6061,3.6407,3.6619,3.697,3.711,3.7184,0.0,0.0,0.0,0.0,0.0,0.0,1.2148,1.2698,1.3475,1.4781,1.5284,1.6179,1.7951,1.9024,2.0136,2.1384,2.1992,2.216,2.1746,2.0958,2.0048,1.9088,2.003,2.1937,2.4833,2.6554,2.8356,3.0269,3.1058,3.1467,3.1511,3.1511,3.1511,3.1511,3.1511,3.1511,3.1511,3.1511,3.2284,3.3326,3.0829,2.7713,2.4298,0.0,0.0,0.0,0.0,0.0,0.0,0.0,0.0,0.0,0.0,0.0,0.0,0.0,0.0,0.0,0.0,0.0,0.0,0.0,0.0,0.0,0.0,0.0,0.0,0.0,0.0,0.0,0.0,0.0,0.0,0.0,0.0,0.0,2.0669,2.6353,3.0542,3.0663,3.3588,3.56,3.5633,3.5633,3.565,3.5667,3.5667,3.5667,3.5667,3.5605,3.5554,3.5554,3.6304,3.6717,3.6717,3.7499,3.7905,3.7905,3.7905,3.7905,3.7905,3.7905,3.648,3.4157,3.678,3.6435,3.4226,3.6825,3.7905,3.7925,3.7906,3.8239,3.87,3.8716,3.8716,3.8716,0.0,0.0,0.0,0.0,0.0,0.0,1.2148,1.2815,1.3403,1.3925,1.4993,1.6015,1.6812,1.8857,2.0452,2.1084,2.2219,2.269,2.2243,2.1094,2.0332,2.0101,2.1698,2.3313,2.4866,2.6682,2.8201,2.9348,3.0208,3.0925,3.1511,3.1511,3.1511,3.1511,3.1511,3.1511,3.1511,3.1511,3.171,3.2096,3.2419,3.0751,2.8061,0.0,0.0,0.0,0.0,0.0,0.0,0.0,0.0,0.0,0.0,0.0,0.0,0.0,0.0,0.0,0.0,0.0,0.0,0.0,0.0,0.0,0.0,0.0,0.0,0.0,0.0,0.0,0.0,0.0,0.0,0.0,2.5854,2.8786,2.7075,2.8964,3.1415,3.3904,3.5023,3.5842,3.64,3.6468,3.6688,3.7246,3.728,3.728,3.728,3.5423,3.436,3.436,3.4586,3.4706,3.4706,3.6842,3.7905,3.7905,3.7905,3.7905,3.7905,3.7905,3.7496,3.6842,3.7597,3.7479,3.6859,3.7591,3.8114,3.8412,3.8401,3.8497,3.8659,3.9069,3.922,3.8866,0.0,0.0,0.0,0.0,0.0,0.0,1.2314,1.3047,1.371,1.4395,1.5024,1.5851,1.703,1.85,1.9821,2.0902,2.1965,2.2302,2.1578,2.0808,2.0875,2.1954,2.332,2.4511,2.5551,2.6982,2.7953,2.846,2.9317,3.0178,3.0999,3.0999,3.119,3.1511,3.1511,3.1511,3.1511,3.1511,3.1697,3.2035,3.2853,3.1726,2.9636,3.0025,2.8083,2.5118,2.4909,2.4457,2.366,2.1803,0.0,0.0,0.0,0.0,0.0,0.0,0.0,0.0,0.0,0.0,0.0,0.0,0.0,0.0,0.0,0.0,0.0,0.0,0.0,0.0,0.0,0.0,0.0,0.0,2.9558,3.3212,3.2929,3.3311,3.4341,3.6338,3.6546,3.6755,3.7212,3.7246,3.7432,3.7872,3.7905,3.7905,3.7905,3.6435,3.5061,3.394,3.5283,3.5489,3.4369,3.733,3.8819,3.8819,3.8819,3.8819,3.8819,3.8819,3.8197,3.72,3.8333,3.8187,3.7234,3.8367,3.8986,3.918,0.0,0.0,0.0,0.0,3.9411,3.9155,0.0,0.0,0.0,0.0,0.0,0.0,1.2472,1.3287,1.4251,1.5534,1.5319,1.5834,1.7915,1.8222,1.9014,2.0803,2.1554,2.1533,2.0582,2.0435,2.1537,2.4098,2.4643,2.5399,2.6471,2.7196,2.7604,2.7703,2.8556,2.9442,3.0299,3.0389,3.0807,3.1511,3.1511,3.1511,3.1511,3.1511,3.1881,3.2492,3.2574,3.1561,3.0027,3.0179,2.9568,2.8461,2.7239,2.6702,2.6404,2.5385,0.0,0.0,0.0,0.0,0.0,0.0,0.0,0.0,0.0,0.0,0.0,0.0,0.0,0.0,0.0,0.0,0.0,0.0,0.0,0.0,0.0,0.0,0.0,0.0,3.1898,3.549,3.7824,3.8159,3.8091,3.7922,3.7905,3.7939,3.8024,3.8024,3.8075,3.8142,3.8159,3.8159,3.8159,3.7929,0.0,0.0,0.0,3.7784,3.54,3.8673,4.035,4.035,4.035,4.035,4.035,4.035,3.9064,3.6918,3.9219,3.8877,3.685,3.9151,4.0096,4.001,3.9124,3.9064,3.942,3.9062,3.9165,3.9503,0.0,0.0,0.0,0.0,0.0,0.0,1.2024,1.3401,1.4736,1.5582,1.5852,1.64,1.7587,1.905,2.0143,2.0619,2.1568,2.2084,2.1923,2.0949,2.1697,2.4621,2.4826,2.5399,2.6471,2.6658,2.704,2.7703,2.8556,2.9442,3.0299,3.097,3.1351,3.1511,3.1511,3.1511,3.1511,3.1511,3.1582,3.1768,3.2355,3.2364,3.2149,3.3242,3.3191,3.2603,3.3383,3.3658,3.329,3.108,2.9711,2.9196,3.0543,2.8171,0.0,0.0,0.0,0.0,0.0,0.0,0.0,0.0,0.0,0.0,0.0,0.0,0.0,0.0,0.0,0.0,0.0,0.0,0.0,3.2586,3.6199,3.9101,3.9588,3.9673,3.9225,3.8041,3.7905,3.8142,3.8717,3.8785,3.9022,3.9639,3.9673,3.9673,3.9673,3.8189,3.7112,3.6577,3.778,3.8191,3.7659,4.0458,4.1863,4.1863,4.1863,0.0,4.1863,4.1863,4.1594,4.1104,4.101,4.0688,4.0205,4.0138,4.0096,4.0079,3.9898,3.9885,3.9638,3.6928,3.7629,3.9593,0.0,0.0,0.0,0.0,0.0,0.0,1.2075,1.3322,1.449,1.5299,1.5596,1.6104,1.7047,1.7791,1.84,1.8862,1.9501,2.0338,2.1376,2.148,2.2619,2.515,2.555,2.5959,2.6496,2.6499,2.6679,2.7095,2.7953,2.8812,2.9659,3.0524,3.1117,3.1511,3.1511,3.1511,3.1511,3.1511,3.1511,3.1554,3.2273,3.2566,3.2634,3.3335,3.3806,3.4188,3.4889,3.5595,3.6014,3.5146,3.4541,3.4303,3.5147,3.3853,3.1261,0.0,0.0,0.0,0.0,0.0,0.0,0.0,0.0,0.0,0.0,0.0,0.0,0.0,0.0,2.771,2.8082,0.0,3.1513,3.3997,3.5822,3.7657,3.9816,4.0096,3.9842,3.9089,3.8988,3.914,3.952,3.9554,3.9876,4.0595,4.0646,4.0798,4.1196,4.028,3.9146,3.7796,3.9426,3.9658,3.8311,4.0968,4.2286,4.2286,4.2286,4.2286,4.2286,4.2286,4.2286,4.2269,4.1914,4.1745,4.1711,4.1339,4.0993,4.0646,4.0646,4.0409,3.9901,3.8218,3.8659,3.9883,0.0,0.0,0.0,0.0,0.0,0.0,1.2107,1.2988,1.394,1.4977,1.5198,1.5644,1.6677,1.658,1.6673,1.7282,1.7499,1.8502,2.0678,2.1931,2.3557,2.569,2.6248,2.6499,2.6499,2.6499,2.6499,2.6499,2.7484,2.8298,2.9034,3.0042,3.0866,3.1511,3.1511,3.1511,3.1511,3.1645,3.169,3.175,3.2407,3.2706,3.2706,3.2743,3.3521,3.4605,3.4793,3.556,3.6587,3.7236,3.7642,3.7874,3.7874,3.8501,3.7732,3.0173,3.0767,0.0,0.0,0.0,0.0,0.0,0.0,0.0,0.0,2.9114,2.9849,2.9158,2.955,3.0204,3.0819,3.0386,3.1269,3.5253,3.5369,3.6145,3.9613,4.0096,4.0096,4.0096,4.0096,4.0163,4.0316,4.0316,4.0612,4.1356,4.1407,4.1677,4.2252,4.2439,4.1528,3.9354,4.1528,4.1715,3.9549,4.1664,4.277,4.277,4.277,4.277,4.277,4.277,4.277,4.2726,4.2574,4.2422,4.2286,4.2286,4.1948,4.1407,4.1407,4.1052,4.0502,4.0214,4.0096,4.0171,0.0,0.0,0.0,0.0,0.0,0.0,0.0,0.0,1.3373,1.4907,1.511,1.5615,1.6919,1.7604,1.7929,1.7829,1.7689,1.8734,2.1391,2.2221,2.3754,2.6282,2.6461,2.6499,2.6499,2.6499,2.6499,2.6499,2.8084,2.8907,2.9034,3.0614,3.1409,3.1511,3.1511,3.1511,3.154,3.2123,3.2378,3.2437,3.3125,3.338,3.338,3.3396,3.3861,3.4589,3.5269,3.5607,3.5753,3.5835,3.6739,3.7817,3.7817,3.8814,3.9076,3.4427,3.3479,3.2033,2.3459,1.8695,1.7269,2.1907,2.53,2.7912,0.0,3.4394,3.7819,3.472,3.6551,3.8734,3.8812,3.8761,3.8873,3.9434,3.9427,3.9545,4.0028,4.0096,4.0096,4.0096,4.0096,4.0367,4.1018,4.1085,4.1373,4.2117,4.2168,4.2202,4.2286,4.2929,4.3132,4.2848,4.3802,4.4219,4.3891,4.4175,4.4344,4.4344,4.4344,4.4344,4.4344,4.4344,4.4344,4.431,4.3589,4.2912,4.2286,4.2286,4.2236,4.2168,4.2168,4.2117,4.1907,4.0587,4.0096,4.0096,0.0,0.0,0.0,0.0,0.0,0.0,0.0,0.0,1.2417,1.3551,1.4143,1.4744,1.5501,1.5766,1.5729,1.5378,1.5977,1.7499,2.0137,2.1749,2.378,2.637,2.6499,2.6499,2.6499,2.6499,2.6714,2.7196,2.8395,2.9254,2.9797,3.097,3.1511,3.1511,3.1511,3.1511,3.154,3.2213,3.2512,3.2602,3.3649,3.4068,3.4098,3.4517,3.4826,3.4851,3.3177,3.2812,0.0,3.3648,3.453,3.5773,3.7803,3.7494,3.6059,3.4393,3.2078,2.9278,2.5687,2.5224,2.6285,2.8475,3.1941,3.5021,3.5723,3.8069,3.9681,3.8224,3.9086,4.0096,4.0096,3.8058,3.7188,3.9697,3.8364,3.7902,4.0383,4.1102,4.1399,4.1399,4.0048,3.905,3.8948,4.0696,4.1528,4.0785,4.2106,4.3149,4.3616,4.3927,4.4096,4.4096,4.4429,4.4615,4.4615,4.4615,4.4615,4.4615,4.4615,4.4615,4.4615,4.4615,4.4615,4.4581,4.4231,4.391,4.365,4.365,4.3352,4.2946,4.2946,4.2675,4.2219,4.1619,4.1399,4.1399,0.0,0.0,0.0,0.0,0.0,0.0,0.0,0.0,0.0,0.0,1.2874,1.349,1.4152,1.4093,1.392,1.3708,1.4748,1.6597,1.9371,2.1435,2.3733,2.637,2.6499,2.6499,2.6499,2.6499,2.6782,2.7384,2.8214,2.9097,2.995,3.0777,3.1278,3.1511,3.1511,3.16,3.1824,3.2497,3.2886,3.3155,3.4307,3.4788,3.4816,3.531,3.4848,3.3608,3.0927,3.0274,3.0592,2.9918,3.1174,3.3174,3.4352,3.4086,3.316,3.2071,2.881,2.579,2.6987,2.8712,3.0743,3.3111,3.6048,3.8645,3.9825,4.0096,4.0096,4.0096,4.0096,4.0163,4.0383,3.7861,3.6854,4.0172,3.854,3.7942,4.1077,4.1965,4.2035,4.1316,3.9737,3.7944,3.5966,3.9271,4.1401,4.1021,4.2692,4.3995,4.4581,4.4615,4.4615,4.4615,4.4615,4.4615,4.4615,4.4615,4.4615,4.4615,4.4615,4.4615,4.4615,4.4615,4.4615,4.4615,4.4615,4.4615,4.4615,4.4615,4.4248,4.3741,4.3741,4.3403,4.2912,4.2912,4.2658,4.2286,0.0,0.0,0.0,0.0,0.0,0.0,0.0,0.0,0.0,0.0,0.0,1.192,1.3374,1.3523,1.3695,1.4142,1.4811,1.6616,1.9955,2.1567,2.3635,2.6382,2.6499,2.6499,2.6499,2.6499,2.6499,2.6521,2.7351,2.8182,2.9066,2.9919,3.0748,3.1511,3.1511,3.1854,3.2497,3.3185,3.3829,3.4518,3.519,3.5474,3.5474,3.5489,3.3231,2.997,2.9141,2.8869,2.8263,2.4085,2.6483,3.0358,2.5648,2.8033,3.1737,2.7561,2.3855,2.2,2.6179,2.4348,2.3282,3.1614,3.3786,3.4968,3.9163,4.0096,4.0096,4.0096,4.0096,4.0333,4.1035,4.1068,4.1238,4.2083,4.2134,4.2127,4.2236,4.2286,4.1367,3.8814,3.9141,3.7557,3.2469,3.6664,4.1003,4.423,4.4513,4.4581,4.4615,4.4615,4.4615,4.4615,4.4615,4.4615,4.4615,4.4615,4.4615,4.4615,4.4615,4.4615,4.4615,4.4615,4.4615,4.4615,4.4615,4.4615,4.4615,4.4615,4.4598,4.4564,4.4564,4.4564,4.453,4.453,4.3572,4.2286,0.0,0.0,0.0,0.0,0.0,0.0,0.0,0.0,0.0,0.0,0.0,0.0,0.0,0.0,0.0,0.0,1.4101,1.5532,1.7858,1.9853,2.1959,2.4227,2.5711,2.6499,2.6499,2.6499,2.704,2.8149,2.8427,2.9286,3.0673,3.097,3.1248,3.1511,3.1511,3.163,3.1914,3.3036,3.3619,3.3918,3.5055,3.5504,3.522,3.2719,3.0706,2.844,0.0,2.117,2.1408,1.943,2.041,2.2597,2.3341,2.3348,2.2358,1.8675,2.1196,2.4832,2.3428,2.6161,3.0091,3.2975,3.5844,3.8306,3.9782,4.0096,4.0248,4.073,3.8177,3.6082,3.6831,3.4216,3.3148,3.6735,3.584,3.6627,4.2255,4.0045,3.9003,4.2133,3.9675,3.8404,4.0128,4.0328,4.0083,3.9467,4.2628,4.4615,4.4615,4.4615,4.4615,4.4615,4.4615,4.4615,4.4615,4.4615,4.4615,4.4615,4.4615,4.4615,4.4615,4.4615,4.4615,4.4615,4.4615,4.4615,4.4615,4.4615,4.4615,4.4615,4.4615,4.4615,4.4615,4.4615,4.4276,4.3836,0.0,0.0,0.0,0.0,0.0,0.0,0.0,0.0,0.0,0.0,0.0,0.0,0.0,0.0,0.0,0.0,0.0,1.4382,1.6285,1.7986,1.9731,2.1551,2.2927,2.3645,2.3645,2.4436,2.5342,2.6442,2.7836,2.9254,3.0614,3.0925,3.1219,3.1511,3.1511,3.163,3.1914,3.2781,3.3425,3.383,3.3366,3.3307,3.3081,2.9362,2.6826,0.0,1.8761,1.6407,1.5835,1.4539,1.5883,1.8201,1.8757,1.783,1.6692,1.7603,2.1256,2.508,2.5383,2.9489,3.4076,3.5611,3.8058,4.018,4.0434,4.0476,4.0696,4.1441,3.9025,3.6462,3.5386,3.2539,3.1534,3.5023,3.4146,3.5547,4.2797,4.0945,3.9909,4.2849,4.0244,3.9153,4.1584,4.1143,3.9997,3.8316,4.1307,4.3214,4.3214,4.3214,4.3644,4.4564,4.4615,4.4615,4.4615,4.4615,4.4615,4.4615,4.4615,4.4615,4.4615,4.4615,4.4088,4.3255,4.4179,4.4071,4.3272,4.4213,4.4615,4.4615,4.4615,4.4615,4.4615,4.4615,4.4615,4.4615,0.0,0.0,0.0,0.0,0.0,0.0,0.0,0.0,0.0,0.0,0.0,0.0,0.0,0.0,0.0,0.0,0.0,0.0,1.52,1.6096,1.719,1.8623,1.8596,1.8538,1.8511,2.0537,2.1626,2.1615,2.5402,2.7664,2.8529,2.9366,3.0148,3.0898,3.0898,3.1241,3.1854,3.1898,3.2676,3.3576,3.0095,2.9073,2.9235,2.5521,2.1933,1.8651,1.7061,1.4673,1.1943,0.9853,1.3131,1.73,1.283,1.2562,1.5457,2.3441,2.3742,2.3228,3.1203,3.3704,3.5002,3.9078,4.013,4.035,4.1035,4.1238,4.1373,4.1839,4.1704,4.0205,3.5859,3.4882,3.5138,3.6363,3.6437,3.8206,4.3586,4.4202,4.3272,4.091,4.0666,3.9784,3.7437,3.9432,4.0831,4.07,4.0814,4.0899,4.0899,4.0899,4.2039,4.4513,4.4615,4.4615,4.4615,4.4615,4.4615,4.4615,4.4615,4.4615,4.4615,4.4615,4.3238,4.1047,4.3535,4.3197,4.1099,4.3576,4.4615,4.4615,4.4615,4.4615,4.4615,4.4615,4.4615,4.4615,0.0,0.0,0.0,0.0,0.0,0.0,0.0,0.0,0.0,0.0,0.0,0.0,0.0,0.0,0.0,0.0,0.0,0.0,1.3046,1.4797,1.6189,1.7107,1.8494,1.9006,1.8524,1.8918,1.9184,1.9273,2.0269,2.1221,2.2083,2.2289,2.2494,2.2733,2.2872,2.3024,2.3241,2.3821,2.4591,2.5367,2.494,2.5173,2.5398,2.17,1.9456,1.7893,1.4701,1.2837,1.1645,1.0247,1.3444,1.8389,2.0462,2.1511,2.1864,2.1452,2.5223,2.9454,2.9042,3.3604,3.8747,3.9825,4.0493,4.0967,4.117,4.1627,4.1018,3.7369,3.3666,2.9558,2.4663,2.1176,2.1579,2.9265,2.8877,3.0699,3.9572,3.9112,3.8372,3.9639,4.0332,4.1212,4.2509,4.3214,4.279,4.0848,4.2484,4.361,4.361,4.361,4.3912,4.4581,4.4615,4.4615,4.4615,4.4615,4.4615,4.4615,4.4615,4.4615,4.4615,4.4615,4.4247,4.3644,4.4315,4.4213,4.3661,4.4349,4.4615,4.4615,4.4615,4.4615,4.4615,4.4615,4.4615,4.4615,0.0,0.0,0.0,0.0,0.0,0.0,0.0,0.0,0.0,0.0,0.0,0.0,0.0,0.0,0.0,0.0,0.0,0.0,0.0,1.3054,1.4115,1.4177,1.5093,1.5414,1.5042,1.5767,1.6028,1.5819,1.7847,1.894,1.9151,1.953,1.9744,1.9848,1.9937,2.0025,2.0113,2.0571,2.1162,0.0,0.0,2.0389,2.0613,1.6901,1.5523,1.5238,1.2869,1.2095,1.2721,1.6274,1.7988,1.9768,2.6117,2.7113,2.6315,2.8115,3.0717,3.3005,3.2926,3.6435,4.0096,4.0096,4.0646,4.0595,3.8367,3.8441,3.7505,3.242,2.9128,2.5616,2.053,1.7941,1.9166,2.7016,2.7376,2.9654,3.8282,3.8237,3.7854,3.9324,3.9914,4.1321,4.4304,4.4615,4.3997,4.2518,4.2714,4.2892,4.2892,4.2892,4.3399,4.4564,4.4615,4.4615,4.4615,4.4615,4.4615,4.4615,4.4615,4.4615,4.4615,4.4615,4.398,4.2934,4.4105,4.3963,4.2968,4.4139,4.4615,4.4615,4.4615,4.4615,4.4615,4.4615,4.4615,4.4615,0.0,0.0,0.0,0.0,0.0,0.0,0.0,0.0,0.0,0.0,0.9702,0.0,0.0,0.0,0.0,0.0,0.0,0.0,0.0,0.0,1.1722,1.1137,1.0798,1.0566,1.0469,1.2062,1.2581,1.1893,1.5904,1.7588,1.7029,1.7789,1.8251,1.8413,1.8493,1.8559,1.864,1.8687,1.9073,1.9415,1.6219,1.535,1.5598,0.0,1.1557,1.2135,1.1757,1.2212,1.44,2.3738,2.4035,2.2021,3.0771,3.1361,3.0207,3.7199,3.6932,3.5094,3.8367,3.9681,4.0096,4.0096,4.0713,4.018,3.5761,3.4806,3.3369,2.8167,2.6478,2.4614,2.025,2.01,2.2317,2.7469,2.9057,3.1579,3.7068,3.8694,3.9197,3.8854,3.933,4.0954,4.427,4.4298,4.423,4.4564,4.2484,4.1229,4.1229,4.1229,4.2262,4.453,4.4615,4.4615,4.4615,4.4615,4.4615,4.4615,4.4615,4.4615,4.4615,4.4615,4.3374,4.1359,4.3627,4.3306,4.1386,4.3678,4.4615,4.4615,4.4615,4.4615,4.4615,4.4615,4.4615,4.4615,0.0,0.0,0.0,0.0,0.0,0.0,0.0,0.0,0.0,0.0,0.9702,0.9702,0.0,0.0,0.0,0.0,0.0,0.0,0.0,0.0,0.0,1.1079,1.0899,1.0424,0.9712,0.9803,0.9478,0.8697,0.9506,0.9839,0.9736,0.9982,1.0132,1.0175,1.051,1.0583,1.0469,1.0734,1.1213,1.1731,1.1199,1.1415,1.2005,1.1347,0.0,0.0,1.2502,1.3299,1.5228,2.3473,2.6013,2.7226,3.6011,3.7903,3.6612,3.5237,3.632,3.7536,3.5389,3.7409,4.0096,4.0096,4.1128,4.1863,4.0976,3.8092,3.3997,2.8287,2.3257,1.9632,1.8768,1.9275,2.1668,2.7366,2.9539,3.0158,2.9215,3.4488,3.7647,3.5526,3.8363,4.1568,4.4321,4.2628,4.2262,4.4439,4.4162,4.3912,4.3912,4.3912,4.4139,4.4598,4.4615,4.4615,4.4615,4.4615,4.4615,4.4615,4.4615,4.4615,4.4615,4.4615,4.4338,4.3963,4.4406,4.4338,4.3963,4.4406,4.4615,4.4615,4.4615,4.4615,4.4615,4.4615,4.4615,4.4615,0.0,0.0,0.0,0.0,0.0,0.0,0.0,0.9702,0.9702,0.9702,0.9702,0.9702,0.9702,0.9589,0.9439,0.0,0.0,0.0,0.0,0.0,0.0,1.0514,1.0371,1.0072,0.9663,0.9397,0.889,0.8164,0.0,0.8498,0.8164,0.822,0.8312,0.8409,0.8495,0.8592,0.8666,0.8765,0.8995,0.9342,0.9398,0.9647,0.9958,0.9958,0.0,0.0,1.1872,1.2825,1.4547,2.0623,2.3175,2.5653,3.6179,3.9489,3.8765,3.4848,3.6472,3.8665,3.4746,3.6837,4.0096,4.0096,4.0916,4.0239,3.4551,3.1922,2.8304,1.9789,1.5826,1.3875,1.3875,1.4538,1.7833,2.6297,2.8661,3.0387,3.3081,3.659,3.8414,3.721,3.8837,4.0734,4.2424,4.1437,4.1204,4.2492,4.2569,4.3163,4.453,4.4615,4.4615,4.4615,4.4615,4.4615,4.4615,4.4615,4.4615,4.4615,4.4615,4.4615,4.4615,4.4615,4.4615,4.4615,4.4615,4.3837,4.2679,4.4037,4.3803,4.2714,4.4071,4.4615,4.4615,4.4615,4.4615,4.4615,0.0,0.0,0.0,0.0,0.0,0.0,0.9701,0.9702,0.9702,0.9702,0.9702,0.9702,0.9702,0.9609,0.9483,0.0,0.0,0.0,0.0,0.0,0.0,0.0,0.0,0.0,0.9557,0.0,0.0,0.8409,0.8761,0.0,0.0,0.0,0.0,0.0,0.8536,0.8606,0.8858,0.8771,0.8783,0.0,0.0,0.8897,0.8897,0.0,0.0,0.0,0.0,1.1896,1.3509,1.8016,2.004,2.2497,3.3091,3.6844,3.6871,3.443,3.61,3.8194,3.5725,3.7522,4.0096,4.0096,4.0646,3.8672,2.8956,2.6361,2.3248,1.3562,1.0576,1.0088,1.1328,1.2086,1.5774,2.5744,2.7141,2.9506,3.6853,3.7703,3.8076,3.9335,3.9667,4.0227,4.1412,4.103,4.0934,4.1506,4.1532,4.2441,4.4479,4.4615,4.4615,4.4615,4.4615,4.4615,4.4615,4.4615,4.4615,4.4615,4.4615,4.4615,4.4615,4.4615,4.4615,4.4615,4.4615,4.3112,4.0899,4.3535,4.307,4.0968,4.3576,4.4615,4.4615,4.4615,4.4615,4.4615,0.0,0.0,0.0,0.0,0.0,0.0,0.9793,0.9702,0.9702,0.9702,0.9702,0.9702,0.9702,0.9691,0.9589,0.0,0.0,0.0,0.0,0.0,0.0,0.0,0.0,0.0,0.0,0.0,0.0,0.8409,0.773,0.0,0.0,0.0,0.0,0.0,0.0,0.8693,0.8729,0.884,0.0,0.0,0.0,0.0,0.0,0.0,0.0,0.0,0.0,1.1162,1.2705,1.7931,1.9739,2.0822,2.6565,2.842,2.9161,3.2669,3.399,3.5053,3.856,3.9816,4.0096,4.0096,4.0646,3.9748,3.407,2.9281,2.4402,1.8765,1.3396,1.131,1.6615,1.766,2.0009,2.7056,2.5035,2.4923,3.1654,3.1982,3.3496,3.886,4.0137,4.1542,4.3986,4.2082,4.1679,4.4054,4.4247,4.4338,4.4598,4.4615,4.4615,4.4615,4.4615,4.4615,4.4615,4.4615,4.4615,4.4615,4.4615,4.4615,4.4615,4.4615,4.4615,4.4615,4.4615,4.3112,4.0899,4.3535,4.307,4.0968,4.3576,4.4615,4.4615,4.4615,4.4615,4.4615,0.0,0.0,0.0,0.0,0.0,0.0,1.109,1.0323,0.9882,1.037,1.0007,0.9702,0.9702,0.9702,0.9597,0.9331,0.0,0.0,0.0,0.0,0.0,0.0,0.0,0.0,0.0,0.0,0.8772,0.8702,0.8375,0.0,0.0,0.0,0.0,0.0,0.0,0.8736,0.8823,0.8789,0.0,0.0,0.0,0.0,0.0,0.0,0.0,0.0,0.0,0.0,1.144,1.3489,1.4913,1.6203,1.8226,1.9205,2.0433,2.4741,2.9644,3.3499,3.2637,3.6168,4.0096,4.0096,4.0333,3.8401,3.0219,2.6792,2.3019,1.4861,1.131,1.0406,1.2747,1.3165,1.5183,2.1335,2.094,2.3219,3.2889,3.3959,3.5963,4.1886,4.2856,4.2841,4.2313,4.1307,4.1126,4.2185,4.2245,4.2934,4.4513,4.4615,4.4615,4.4615,4.4615,4.4615,4.4615,4.4615,4.4615,4.4615,4.4615,4.4615,4.4615,4.4615,4.4615,4.4615,4.4615,4.2492,3.9351,4.3062,4.2433,3.9433,4.3165,4.4615,4.4615,4.4615,4.4615,4.4615,0.0,0.0,0.0,0.0,0.0,1.1182,1.1352,1.0631,1.026,1.0838,1.0406,1.0043,1.0043,0.9845,0.9609,0.9381,0.9363,0.0,0.0,0.0,0.0,0.0,0.0,0.0,0.0,0.0,0.8897,0.8897,0.8666,0.8672,0.0,0.0,0.8504,0.8564,0.0,0.0,0.0,0.0,0.0,0.0,0.0,0.0,0.0,0.0,0.0,0.0,0.0,0.0,0.0,0.0,0.0,1.2986,1.3225,1.3844,1.5335,1.9652,2.6089,3.1426,2.9679,3.4533,4.0096,4.0096,3.9146,3.5885,2.693,2.3926,2.0488,1.153,0.9702,0.9702,0.9702,0.9702,1.1611,1.7458,1.8603,2.2307,3.2496,3.4134,3.6393,4.2038,4.2707,4.249,4.1902,4.1842,4.1842,4.1842,4.1842,4.2645,4.4496,4.4615,4.4615,4.4615,4.4615,4.4615,4.4615,4.4615,4.4615,4.4615,4.4615,4.4179,4.3467,4.4247,4.4162,4.3501,4.4264,4.2381,3.9108,4.3003,4.2321,3.919,4.3062,4.4615,4.4615,4.4615,4.4615,4.4615,0.0,0.0,0.0,0.0,0.0,0.0,0.9974,1.0388,1.0893,1.0893,1.0893,1.0893,1.0893,1.0186,0.9641,0.9513,0.95,0.0,0.0,0.0,0.0,0.0,0.0,0.0,0.0,0.0,0.8897,0.8897,0.8102,0.8119,0.8874,0.7884,0.7562,0.781,0.0,0.0,0.0,0.0,0.0,0.0,0.0,0.0,0.9288,0.0,0.0,0.0,0.0,0.0,0.0,0.0,0.0,0.0,0.0,1.3844,1.5335,1.9652,2.3968,2.8278,3.2481,3.6803,4.0096,4.0096,3.6899,3.2203,2.6256,2.1602,1.687,1.0922,0.9702,0.9702,0.9702,0.9702,1.1611,1.7458,1.9072,2.1931,2.8622,3.0249,3.2614,3.7666,3.8271,3.991,4.4152,4.4564,4.4564,4.4564,4.4564,4.4564,4.4615,4.4615,4.4615,4.4615,4.4615,4.4615,4.4615,4.4615,4.4615,4.4615,4.4615,4.3238,4.0838,4.3416,4.3197,4.0882,4.3484,4.3095,4.0882,4.3518,4.3053,4.0934,4.3559,4.4615,4.4615,4.4615,4.4615,4.4615,0.0,0.0,0.0,0.0,0.0,0.0,1.2233,1.1434,1.0893,1.0893,1.0421,1.008,1.008,0.9845,0.9687,0.9637,0.9546,0.0,0.0,0.0,0.0,0.0,0.0,0.0,0.0,0.8897,0.8897,0.8897,0.8649,0.8649,0.8897,0.8577,0.8465,0.8536,0.795,0.7731,0.0,0.0,0.0,0.0,0.0,0.9218,0.9312,0.0,0.0,0.0,0.0,0.0,0.0,0.0,0.0,0.0,0.0,0.0,0.0,1.5971,1.9563,2.3225,2.458,2.8087,3.1222,3.0669,2.9936,2.7641,2.1184,1.9076,1.6825,1.0922,0.9702,0.9702,0.9702,0.9702,1.1611,1.7458,1.8603,2.229,3.2395,3.4014,3.6278,4.1902,4.2555,4.3105,4.4462,4.2968,4.2679,4.4473,4.2934,4.2714,4.4496,4.4615,4.4615,4.4615,4.4615,4.4615,4.4615,4.4615,4.4615,4.4615,4.4615,4.3221,4.0803,4.3399,4.318,4.0848,4.3467,4.3428,4.1687,4.3739,4.3377,4.1732,4.379,4.4615,4.4615,4.4615,4.4615,4.4615,0.0,0.0,0.0,0.0,0.0,0.0,1.2485,1.1801,1.1242,1.0948,1.0457,1.0149,1.0149,0.9882,0.9702,0.9702,0.9621,0.0,0.0,0.0,0.0,0.0,0.0,0.0,0.8979,0.8925,0.8897,0.8897,0.8897,0.8897,0.8897,0.8897,0.8761,0.8468,0.8006,0.7798,0.0,0.0,0.0,0.0,0.8656,0.9086,0.9447,0.0,0.0,0.0,0.0,0.0,0.0,0.0,0.0,0.0,0.0,0.0,0.0,0.0,1.6178,1.8449,2.0372,2.4025,2.7182,2.6669,2.549,2.3262,1.8766,1.6887,1.496,1.0972,1.1903,1.2758,1.0556,1.1693,1.3444,1.4871,1.88,2.3655,2.9334,3.2835,3.6191,3.9853,4.1691,4.3175,4.4462,4.3129,4.2841,4.449,4.3078,4.2892,4.4496,4.4615,4.4615,4.4615,4.4615,4.4615,4.4615,4.4615,4.4615,4.4615,4.4615,4.3221,4.0803,4.3399,4.318,4.0848,4.3467,4.3949,0.0,4.416,4.396,4.3022,4.415,4.4615,4.4615,4.4615,4.4615,4.4615,0.0,0.0,0.0,0.0,0.0,0.0,0.0,1.1613,1.1783,1.093,1.082,1.082,1.082,1.0153,0.9702,0.9702,0.9702,0.0,0.0,0.0,0.0,0.0,0.0,0.0,0.9093,0.8984,0.8908,0.8897,0.8897,0.8897,0.8897,0.8897,0.8536,0.787,0.7815,0.7752,0.766,0.0,0.0,0.0,0.815,0.876,0.0,0.0,0.0,0.0,0.0,0.0,0.0,0.0,0.0,0.0,0.0,0.0,0.0,0.0,0.0,0.0,0.0,2.3305,2.6288,2.6288,2.2777,1.909,1.8176,1.4955,0.0,1.1543,1.5778,1.793,1.2524,1.5634,1.7134,1.1333,1.9887,2.591,2.1961,2.8408,3.3501,3.3293,3.718,4.1049,4.4037,4.4479,4.4615,4.4615,4.4615,4.4615,4.4615,4.4615,4.4615,4.4615,4.4615,4.4615,4.4615,4.4615,4.4496,4.4304,4.4496,4.3129,4.0524,4.3323,4.318,4.0848,4.3467,4.4615,4.4615,4.4615,4.4615,4.4615,4.4615,4.4615,4.4615,4.4615,4.4615,4.4615,0.0,0.0,0.0,0.0,0.0,0.0,0.0,0.0,0.0,0.0,0.9988,0.9988,0.9988,0.9808,0.9702,0.0,0.0,0.0,0.0,0.0,0.0,0.0,0.0,0.0,0.9093,0.9062,0.9006,0.8897,0.8897,0.8897,0.8897,0.8897,0.8812,0.862,0.8056,0.7208,0.6242,0.6912,0.0,0.0,0.8145,0.8935,0.0,0.0,0.0,0.0,0.9702,0.9702,0.0,0.0,0.0,0.0,0.0,0.0,0.0,0.0,1.3881,1.447,1.5685,0.0,1.6592,1.6592,1.6154,1.519,0.0,1.286,1.3713,1.6133,1.8217,1.9185,1.7798,2.1661,2.3353,1.8113,2.3824,2.8589,2.7594,3.2988,3.6314,3.4356,3.962,4.2915,4.1747,4.3433,4.4615,4.4615,4.4615,4.4615,4.4615,4.4615,4.4615,4.4615,4.4615,4.4615,4.4615,4.4615,4.3593,4.1627,4.3644,4.2185,3.7878,4.2484,4.318,4.0848,4.3467,4.4615,4.4615,4.4615,4.4615,4.4615,4.4615,4.4615,4.4615,4.4615,4.4615,4.4615,0.0,0.0,0.0,0.0,0.0,0.0,0.0,0.0,0.0,0.0,0.9702,0.9702,0.9702,0.9702,0.9702,0.0,0.0,0.0,0.0,0.0,0.0,0.0,0.0,0.9363,0.9293,0.9218,0.9149,0.9078,0.9027,0.8995,0.8995,0.893,0.8897,0.888,0.8536,0.7812,0.6817,0.6978,0.7344,0.7805,0.7907,0.0,0.0,0.0,0.0,0.0,0.9702,0.9702,0.0,0.9702,0.9702,0.9845,0.0,0.0,0.0,0.0,1.3611,1.4022,1.4402,1.4187,1.4324,1.6309,1.5355,1.4112,1.4799,1.4089,1.4489,1.8645,1.9861,2.0153,2.0153,2.2075,2.2772,2.0037,2.3242,2.7267,3.0716,3.4557,3.6499,3.511,3.8229,4.0525,4.0683,4.307,4.4615,4.4615,4.4615,4.4615,4.4615,4.4615,4.4615,4.4615,4.4615,4.4615,4.4615,4.4615,4.3289,4.0717,4.3357,4.2509,3.8716,4.2765,4.3837,4.2526,4.3115,4.3834,4.453,4.3707,4.3841,4.4615,4.4615,4.4615,4.4615,4.4615,4.4615,4.4615,0.0,0.0,0.0,0.0,0.0,0.0,0.0,0.0,0.0,0.0,0.0,0.0,0.0,0.0,0.0,0.0,0.0,0.0,0.0,0.0,0.0,0.0,0.9597,0.9521,0.9504,0.939,0.9326,0.9307,0.9179,0.9124,0.9124,0.9022,0.8889,0.8781,0.8902,0.8508,0.7729,0.7165,0.7456,0.8262,0.7576,0.0,0.0,0.0,0.0,0.0,0.0,0.0,0.0,0.9702,0.9702,0.9827,1.0494,0.0,0.0,0.0,0.0,0.0,1.431,1.4493,1.554,1.9828,1.7159,1.4569,1.8758,1.6479,1.5088,2.0777,2.2043,2.213,2.213,2.2833,2.2626,2.0181,2.1662,2.5444,3.2074,3.4722,3.5841,3.5465,3.6342,3.7962,4.0472,4.307,4.4615,4.4615,4.4615,4.4615,4.4615,4.4615,4.4615,4.4615,4.4615,4.4615,4.4615,4.4615,4.3289,4.0717,4.3357,4.3221,4.0803,4.3399,4.4615,4.4524,4.298,4.3175,4.4473,4.2946,4.3209,4.4615,4.4615,4.4615,4.4615,4.4615,4.4615,4.4615,0.0,0.0,0.0,0.0,0.0,0.0,0.0,0.0,0.0,0.0,0.0,0.0,0.0,0.0,0.0,0.0,0.0,0.0,0.0,0.0,0.0,0.9702,0.9687,0.9617,0.9504,0.9487,0.9412,0.9307,0.9288,0.9261,0.9261,0.9242,0.8874,0.8224,0.8242,0.7496,0.6239,0.6129,0.6631,0.7466,0.7359,0.0,0.0,0.0,0.0,0.0,0.0,0.0,0.0,0.9702,0.9702,0.9717,0.9845,0.0,0.0,0.0,0.0,0.0,1.4475,1.4493,1.554,1.9828,1.7573,1.5254,1.8882,1.6918,1.6763,2.5368,2.7687,2.8152,2.8152,3.5078,3.6336,2.28,2.4975,2.9225,3.1741,3.5407,3.6986,3.4845,3.9701,4.256,4.0865,4.307,4.4615,4.4615,4.4615,4.4615,4.4615,4.4615,4.4615,4.4615,4.4615,4.4615,4.4615,4.4615,4.3289,4.0717,4.3357,4.3221,4.0803,4.3399,4.4615,4.4581,4.4309,4.4332,4.4581,4.4309,4.4349,4.4615,4.4615,4.4615,4.4615,4.4615,4.4615,4.4615,0.0,0.0,0.0,0.0,0.0,0.0,0.0,0.0,0.0,0.0,0.0,0.0,0.0,0.0,0.0,0.0,0.0,0.0,0.0,0.0,0.9732,0.9702,0.9729,0.971,0.9613,0.9609,0.9585,0.9517,0.9008,0.8979,0.9403,0.8891,0.8448,0.8079,0.7716,0.7176,0.6553,0.6634,0.7163,0.7953,0.0,0.0,0.0,0.0,0.0,0.0,0.0,0.0,0.0,0.0,0.9702,0.9702,0.9702,0.0,0.0,0.0,0.0,0.0,1.4493,1.4493,1.6098,2.2717,1.9394,1.6742,2.5313,2.0636,1.7918,2.992,2.6199,2.2664,2.8998,3.1024,3.0523,2.6745,3.2618,3.7108,3.5528,3.7755,3.9118,3.7945,4.057,4.2022,4.082,4.307,4.4615,4.4615,4.4615,4.4615,4.4615,4.4615,4.4615,4.4615,4.4615,4.4615,4.4615,4.4615,4.3289,4.0717,4.3357,4.3221,4.0803,4.3399,4.4615,4.4547,4.3564,4.3707,4.4513,4.3557,4.3724,4.4615,4.4615,4.4615,4.4615,4.4615,4.4615,4.4615,0.0,0.0,0.0,0.0,0.0,0.0,0.0,0.0,0.0,0.0,0.0,0.0,0.0,0.0,0.0,0.0,0.0,0.0,0.0,0.9779,0.9774,0.9747,0.9789,0.9775,0.9702,0.9702,0.9702,0.9702,0.897,0.895,0.9524,0.8615,0.8201,0.817,0.7468,0.7147,0.7153,0.7253,0.7754,0.8494,0.0,0.0,0.0,0.0,0.0,0.0,0.0,0.0,0.0,0.0,0.0,0.0,0.0,0.0,0.0,1.2338,1.3398,1.4493,1.4493,1.4493,1.6323,2.3915,2.0109,1.7918,3.0983,2.3867,1.8619,3.3156,2.5988,2.0167,3.03,2.7217,2.5174,3.1425,3.8429,4.2292,4.0019,4.0808,4.1618,4.1618,4.1618,4.1618,4.1618,4.3416,4.4615,4.4615,4.4615,4.4615,4.4615,4.4615,4.4615,4.4615,4.4615,4.4615,4.4615,4.4615,4.3593,4.1652,4.3644,4.3542,4.1679,4.3695,4.4615,4.4513,4.3133,4.332,4.449,4.3099,4.3354,4.4615,4.4615,4.4615,4.4615,4.4615,4.4615,4.4615,0.0,0.0,0.0,0.0,0.0,0.0,0.0,0.0,0.0,0.0,0.0,0.0,0.0,0.0,0.0,0.0,0.0,0.0,0.0,0.9791,0.9828,0.9875,0.9831,0.9775,0.9702,0.9702,0.9702,0.9702,0.9635,0.9635,0.9672,0.8847,0.8474,0.8437,0.7632,0.7295,0.7295,0.7301,0.7754,0.8494,0.8494,0.0,0.0,0.0,0.0,0.0,0.0,0.0,0.0,0.0,0.0,0.0,0.0,0.0,1.2247,1.2986,1.382,1.4493,1.4493,1.4493,1.56,2.0215,1.7908,1.8053,3.1618,2.4235,1.8753,3.3808,3.2324,3.0007,3.5523,3.2949,3.1667,3.682,3.8219,3.9927,4.362,4.4236,4.4304,4.4304,4.4304,4.4304,4.4304,4.4479,4.4615,4.4615,4.4615,4.4615,4.4615,4.4615,4.4615,4.4615,4.4615,4.4615,4.4615,4.4615,4.4496,4.4304,4.4496,4.4496,4.4349,4.4496,4.4615,4.4598,4.4456,4.4473,4.4598,4.4456,4.449,4.4615,4.4615,4.4615,4.4615,4.4615,4.4615,4.4615,0.0,0.0,0.0,0.0,0.0,0.0,0.0,0.0,0.0,0.0,0.0,0.0,0.0,0.0,0.0,0.0,0.0,0.0,0.0,1.0196,1.0154,1.069,1.0715,1.0942,1.1362,1.0287,0.9728,0.9765,1.0214,1.0457,1.0421,0.9621,0.9235,0.9184,0.7889,0.7303,0.734,0.7828,0.8226,0.8553,0.9052,0.9423,0.0,0.0,0.0,0.0,0.0,0.0,0.0,0.0,0.9702,0.9845,1.0659,1.1448,1.2265,1.306,1.3881,1.4493,1.4493,1.4493,1.6182,2.3137,1.965,1.8053,3.1704,2.67,2.332,3.7978,3.2775,2.6317,2.8711,3.2563,3.5972,3.7883,4.0447,4.2741,4.4361,4.4615,4.4615,4.4615,4.4615,4.4615,4.4615,4.4615,4.4615,4.4615,4.4615,4.4615,4.4615,4.4615,4.4615,4.4615,4.4615,4.4615,4.4615,4.4615,4.4615,4.4615,4.4615,4.4615,4.4615,4.4615,4.4615,4.4615,4.4615,4.4615,4.4615,4.4615,4.4615,4.4615,4.4615,4.4615,4.4615,4.4615,4.4615,4.4615,0.0,0.0,0.0,0.0,0.0,0.0,0.0,0.0,0.0,0.0,0.0,0.0,0.0,0.0,0.0,0.0,0.0,0.0,1.1611,1.0853,1.0678,1.1244,1.1021,1.113,1.1639,1.0643,1.0261,1.0595,1.1049,1.115,1.0875,1.008,0.9702,0.9647,0.8287,0.7812,0.8091,0.8651,0.8887,0.8923,0.9478,0.9702,0.0,0.0,0.0,0.0,0.0,0.0,0.0,0.0,0.9702,0.9845,1.0659,1.1448,1.2265,1.306,1.3881,1.4493,1.4493,1.4493,1.6247,2.3468,1.9844,1.8125,3.1977,2.8327,2.5705,3.8697,3.5296,2.9726,2.8916,3.3919,3.8185,3.8185,4.0661,4.3098,4.4412,4.4615,4.4615,4.4615,4.4615,4.4615,4.4615,4.4615,4.4615,4.4615,4.4615,4.4615,4.4615,4.4615,4.4615,4.4615,4.4615,4.4615,4.4615,4.4615,4.4615,4.4615,4.4615,4.4615,4.4615,4.4615,4.4615,4.4615,4.4615,4.4615,4.4615,4.4615,4.4615,4.4615,4.4615,4.4615,4.4615,4.4615,4.4615,4.4615,0.0,0.0,0.0,0.0,0.0,0.0,0.0,0.0,0.0,0.0,0.0,0.0,0.0,0.0,0.0,0.0,0.0,0.0,1.2502,1.1746,1.1335,1.1406,1.051,1.0016,1.0035,1.0686,1.143,1.2306,1.2179,1.1691,1.0893,1.008,0.972,0.9684,0.8913,0.899,0.9702,0.9746,0.9727,0.9702,0.9702,0.9702,0.9702,0.0,0.0,0.0,0.0,0.0,0.0,0.0,0.9702,0.9845,1.0659,1.1448,1.2265,1.3109,1.3893,1.4512,1.4543,1.4524,1.554,1.9828,1.7709,1.8287,3.2507,2.8657,2.4904,3.4945,4.1044,4.3223,3.8924,3.8202,3.8236,3.8202,3.8294,3.9822,4.3999,4.4615,4.4615,4.4615,4.4615,4.4615,4.4615,4.4615,4.4615,4.4615,4.4615,4.4615,4.4615,4.4615,4.4615,4.4615,4.4615,4.4615,4.4615,4.4615,4.4615,4.4615,4.4615,4.4615,4.4615,4.4615,4.4615,4.4615,4.4615,4.4615,4.4615,4.4615,4.4615,4.4615,4.4615,4.4615,4.4615,4.4615,4.4615,4.4615,0.0,0.0,0.0,0.0,0.0,0.0,0.0,0.0,0.0,0.0,0.0,0.0,0.0,0.0,0.0,0.0,0.0,0.0,1.3489,1.2151,1.1645,1.2296,1.1453,1.1271,1.1887,1.2008,1.2102,1.2221,1.2279,1.2147,1.1804,1.1031,1.0666,1.0712,1.2924,1.2365,0.9972,1.2941,1.246,0.9702,0.9702,0.9702,0.9702,0.0,0.0,0.0,0.0,0.0,0.0,0.0,0.0,0.0,1.0659,1.1448,1.2858,1.6667,1.6229,1.5159,1.817,1.6793,1.554,1.9828,2.0322,2.0752,2.4497,2.6344,2.928,3.6366,3.9054,3.8794,3.4542,3.8664,4.169,3.8692,4.0746,4.3172,4.4412,4.4615,4.4615,4.4615,4.4615,4.4615,4.4615,4.4615,4.4615,4.4615,4.4615,4.4615,4.4615,4.4615,4.4615,4.4615,4.4615,4.4615,4.4615,4.4615,4.4615,4.4615,4.4615,4.4615,4.4615,4.4615,4.4615,4.4615,4.4615,4.4615,4.4615,4.4615,4.4615,4.4615,4.4615,4.4615,4.4615,4.4615,4.4615,4.4615,0.0,0.0,0.0,0.0,0.0,0.0,0.0,0.0,0.0,0.0,1.5192,0.0,0.0,0.0,0.0,0.0,0.0,0.0,1.3918,1.2656,1.2007,1.218,1.1351,1.1275,1.209,1.2046,1.1946,1.1802,1.2185,1.2151,1.1755,1.1281,1.0877,1.0654,1.2701,1.2209,0.9957,1.2498,1.2058,0.9702,0.9702,0.9702,0.9702,0.0,0.0,0.0,0.0,0.0,0.0,0.0,0.0,0.0,0.9889,1.2105,1.4843,1.5893,1.6376,1.7134,1.9716,1.8539,1.8091,2.4405,2.3766,2.2041,2.3901,2.6996,3.1642,3.9201,4.0746,3.9968,3.7425,4.1137,4.3756,4.1163,4.2928,4.4615,4.4615,4.4615,4.4615,4.4615,4.4615,4.4615,4.4615,4.4615,4.4615,4.4615,4.4615,4.4615,4.4615,4.4615,4.4615,4.4615,4.4615,4.4615,4.4615,4.4615,4.4615,4.4615,4.4615,4.4615,4.4615,4.4615,4.4615,4.4615,4.4615,4.4615,4.4615,4.4615,4.4615,4.4615,4.4615,4.4615,4.4615,4.4615,4.4615,4.4615,0.0,0.0,0.0,0.0,0.0,0.0,0.0,0.0,0.0,0.0,1.5192,1.5192,0.0,0.0,0.0,0.0,0.0,0.0,0.0,1.306,1.2238,1.1427,1.0577,1.0404,1.1084,1.1163,1.1163,1.1103,1.1843,1.1808,1.0998,1.0948,1.0559,0.9903,1.0165,1.0105,0.9822,1.0145,1.0069,0.9713,0.9713,0.9717,0.9725,0.9717,0.0,0.0,0.0,0.0,0.0,0.0,0.0,0.0,0.8736,1.2789,1.6993,1.2822,1.5443,1.9792,2.0273,2.0117,2.185,3.0399,2.6725,2.2723,2.9367,3.0524,3.2924,4.2613,4.4276,4.4152,4.453,4.4615,4.4615,4.4615,4.4615,4.4615,4.4615,4.4615,4.4615,4.4615,4.4615,4.4615,4.4615,4.4615,4.4615,4.4615,4.4615,4.4615,4.4615,4.4615,4.4615,4.4615,4.4615,4.4615,4.4615,4.4615,4.4615,4.4615,4.4615,4.4615,4.4615,4.4615,4.4615,4.4615,4.4615,4.4615,4.4615,4.4615,4.4615,4.4615,4.4615,4.4615,4.4615,4.4615,4.4615,4.4615,0.0,0.0,0.0,0.0,0.0,0.0,0.0,0.0,0.0,0.0,0.0,0.0,0.0,0.0,0.0,0.0,0.0,0.0,0.0,1.25,1.1601,1.1408,1.0577,1.0163,1.0336,1.0345,1.0345,1.0336,1.1189,1.1121,1.0231,1.0217,1.0093,1.0048,1.3334,1.2934,1.0024,1.3323,1.2811,0.9786,0.9786,0.9808,0.9857,0.9795,0.9387,0.0,0.0,0.0,0.0,0.0,0.0,0.0,0.8553,1.0366,1.31,1.6013,1.8214,2.0569,2.4582,2.3205,2.1138,2.3154,2.2693,2.5205,3.8359,3.8257,3.7126,4.3332,4.1911,4.0618,4.3982,4.4615,4.4615,4.4615,4.4615,4.4615,4.4615,4.4615,4.4615,4.4615,4.4615,4.4615,4.4615,4.4615,4.4615,4.4615,4.4615,4.4615,4.4615,4.4615,4.4615,4.4615,4.4615,4.4615,4.4615,4.4615,4.4615,4.4615,4.4615,4.4615,4.4615,4.4615,4.4615,4.4615,4.4615,4.4615,4.4615,4.4615,4.4615,4.4615,4.4615,4.4615,4.4615,4.4615,4.4615,4.4615,0.0,0.0,0.0,0.0,0.0,0.0,0.0,0.0,0.0,0.0,0.0,0.0,0.0,0.0,0.0,0.0,0.0,0.0,0.0,0.0,1.1214,1.081,1.0346,1.0094,1.0094,1.0094,1.0094,1.0094,1.0558,1.0526,1.0055,1.0027,0.9989,1.0092,1.2223,1.1969,1.0035,1.2216,1.1863,0.9816,0.9395,0.9238,0.9234,0.8782,0.8343,0.7979,0.7938,0.0,0.0,0.0,0.0,0.0,0.0,0.0,1.4011,1.4223,1.6584,1.9713,2.2366,2.3239,2.4064,2.6864,2.992,3.3791,3.9632,4.079,4.1393,4.4067,4.2826,4.1945,4.4202,4.4615,4.4615,4.4615,4.4615,4.4615,4.4615,4.4615,4.4615,4.4615,4.4615,4.4615,4.4615,4.4615,4.4615,4.4615,4.4615,4.4615,4.4615,4.4615,4.4615,4.4615,4.4615,4.4615,4.4615,4.4615,4.4615,4.4615,4.4615,4.4615,4.4615,4.4615,4.4615,4.4615,4.4615,4.4615,4.4615,4.4615,4.4615,4.4615,4.4615,4.4615,4.4615,4.4615,4.4615,4.4615,0.0,0.0,0.0,0.0,0.0,0.0,0.0,0.0,0.0,0.0,0.0,0.0,0.0,0.0,0.0,0.0,0.0,0.0,0.0,0.0,0.0,1.0133,1.0094,1.0094,1.0094,1.0094,1.0094,1.0094,1.0094,1.0533,1.1398,1.1329,1.1323,1.1374,1.142,1.0961,1.0203,1.0292,1.0335,1.0254,0.94,0.9036,0.8943,0.806,0.765,0.7529,0.7509,0.7846,0.8189,0.7521,0.0,0.0,0.0,0.0,1.5198,1.1113,1.3886,1.8358,1.8632,2.2514,2.7886,3.3727,3.8227,4.0713,3.8738,4.0993,4.3722,4.4445,4.4615,4.4615,4.4615,4.4615,4.4615,4.4615,4.4615,4.4615,4.4615,4.4615,4.4615,4.4615,4.4615,4.4615,4.4615,4.4615,4.4615,4.4615,4.4615,4.4615,4.4615,4.4615,4.4615,4.4615,4.4615,4.4615,4.4615,4.4615,4.4615,4.4615,4.4615,4.4615,4.4615,4.4615,4.4615,4.4615,4.4615,4.4615,4.4615,4.4615,4.4615,4.4615,4.4615,4.4615,4.4615,4.4615,4.4615,4.4615,0.0,0.0,0.0,0.0,0.0,0.0,0.0,0.0,0.0,0.0,1.5308,0.0,0.0,0.0,0.0,0.0,0.0,0.0,1.1639,0.0,0.0,1.0113,1.0094,1.0094,1.0094,1.0094,1.0094,1.0094,1.0094,1.2339,1.6604,1.6537,1.6503,1.6529,1.7221,1.5105,1.1074,1.1778,1.2067,1.2002,1.1181,1.0826,1.0671,0.9803,0.9037,0.8425,0.8368,0.7953,0.7448,0.734,0.7946,0.0,0.0,0.0,1.0789,1.0755,1.3922,1.7758,1.9155,2.3733,2.9472,3.5262,3.4535,3.4355,4.1868,4.1248,4.0114,4.3813,4.4615,4.4615,4.4615,4.4615,4.4615,4.4615,4.4615,4.4615,4.4615,4.4615,4.4615,4.4615,4.4615,4.4615,4.4615,4.4615,4.4615,4.4615,4.4615,4.4615,4.4615,4.4615,4.4615,4.4615,4.4615,4.4615,4.4615,4.4615,4.4615,4.4615,4.4615,4.4615,4.4615,4.4615,4.4615,4.4615,4.4615,4.4615,4.4615,4.4615,4.4615,4.4615,4.4615,4.4615,4.4615,4.4615,4.4615,4.4615,0.0,0.0,0.0,0.0,0.0,0.0,0.0,0.0,0.0,0.0,0.0,1.535,0.0,0.0,0.0,1.4024,1.3183,1.2122,1.0752,1.0308,1.0094,1.0094,1.0094,1.0094,1.0094,1.0094,1.0094,1.0094,1.0596,1.4587,2.1801,2.2262,2.098,1.8404,2.1093,1.8458,1.218,1.438,1.3947,1.1708,1.0907,1.0499,1.0341,1.007,0.9392,0.8603,0.8607,0.8384,0.8076,0.8076,0.8619,0.9261,0.9234,0.0,0.0,0.0,1.1872,1.5208,2.2047,2.402,2.6797,3.7819,3.5604,3.3145,4.247,4.1282,3.943,4.3722,4.4615,4.4615,4.4615,4.4615,4.4615,4.4615,4.4615,4.4615,4.4615,4.4615,4.4615,4.4615,4.4615,4.4615,4.4615,4.4615,4.4615,4.4615,4.4615,4.4615,4.4615,4.4615,4.4615,4.4615,4.4615,4.4615,4.4615,4.4615,4.4615,4.4615,4.4615,4.4615,4.4615,4.4615,4.4615,4.4615,4.4615,4.4615,4.4615,4.4615,4.4615,4.4615,4.4615,4.4615,4.4615,4.4615,4.4615,4.4615,0.0,0.0,0.0,0.0,0.0,0.0,0.0,0.0,0.0,0.0,0.0,0.0,0.0,0.0,0.0,0.0,1.3516,1.2274,1.0538,1.0212,1.0094,1.0094,1.0094,1.019,1.0423,1.0423,1.0538,1.0752,1.1408,1.5889,2.3901,2.5601,2.4513,2.1254,2.4355,2.2178,1.6287,1.7884,1.6734,1.3733,1.291,1.1843,1.0729,1.0634,1.0169,0.9526,0.9332,0.9279,0.9285,0.9053,0.9338,0.9795,0.9795,0.9772,0.0,0.0,0.0,1.301,2.2648,2.3082,2.3916,3.6916,3.4572,3.1254,3.9498,3.8897,3.7803,4.2098,4.3857,4.4615,4.4615,4.4615,4.4615,4.4615,4.4615,4.4615,4.4615,4.4615,4.4615,4.4615,4.4615,4.4615,4.4615,4.4615,4.4615,4.4615,4.4615,4.4615,4.4615,4.4615,4.4615,4.4615,4.4615,4.4615,4.4615,4.4615,4.4615,4.4615,4.4615,4.4615,4.4615,4.4615,4.4615,4.4615,4.4615,4.4615,4.4615,4.4615,4.4615,4.4615,4.4615,4.4615,4.4615,4.4615,4.4615,4.4615,0.0,0.0,0.0,0.0,0.0,0.0,0.0,0.0,0.0,0.0,0.0,0.0,1.7766,1.6978,1.6084,1.5204,1.4346,1.3113,1.1445,1.0558,1.0094,1.0094,1.0094,0.0,1.1312,1.1331,1.1735,1.2567,1.2606,1.531,2.0532,2.4526,2.6668,2.715,2.737,2.6812,2.5499,2.2475,2.1012,2.0616,1.9741,1.6944,1.3211,1.2336,1.2044,1.1991,1.1095,1.088,1.0858,1.002,0.9761,0.9795,0.9795,0.9791,0.9774,0.0,0.0,0.0,1.8335,2.0389,2.2499,2.9588,2.8017,2.6094,3.1359,3.2381,3.3431,3.7649,4.1784,4.4615,4.4615,4.4615,4.4615,4.4615,4.4615,4.4615,4.4615,4.4615,4.4615,4.4615,4.4615,4.4615,4.4615,4.4615,4.4615,4.4615,4.4615,4.4615,4.4615,4.4615,4.4615,4.4615,4.4615,4.4615,4.4615,4.4615,4.4615,4.4615,4.4615,4.4615,4.4615,4.4615,4.4615,4.4615,4.4615,4.4615,4.4615,4.4615,4.4615,4.4615,4.4615,4.4615,4.4615,4.4615,4.4615,4.4615,0.0,0.0,0.0,0.0,0.0,0.0,0.0,0.0,0.0,0.0,0.0,0.0,0.0,1.6721,1.5944,1.4552,1.3627,1.287,1.2276,1.1949,1.1774,1.1774,1.1774,1.1911,1.2238,1.2238,1.2392,1.2702,1.3214,1.5785,2.0235,2.2257,2.4783,2.7855,3.3721,3.1429,2.3491,2.8056,2.4426,1.6183,2.2814,2.0387,1.3234,1.7251,1.8141,1.6856,1.39,1.385,1.4751,1.1779,1.0336,0.9795,0.9795,0.9775,0.9725,0.971,0.99,1.1394,1.7258,1.6682,1.6945,2.7346,2.4332,2.1115,2.9894,3.1897,3.2329,3.3842,3.9737,4.3773,4.0993,4.2741,4.4615,4.4615,4.4615,4.4615,4.4615,4.4615,4.4615,4.4615,4.4615,4.4615,4.4615,4.4615,4.4615,4.4615,4.3053,4.2824,4.4496,4.3019,4.2875,4.4547,4.4615,4.4615,4.4615,4.4615,4.4615,4.4615,4.4615,4.4615,4.4615,4.4615,4.4615,4.4615,4.4615,4.4615,4.4615,4.4615,4.4615,4.4615,4.4615,4.4615,4.4615,4.4615,4.4615,4.4615,0.0,0.0,0.0,0.0,0.0,0.0,0.0,0.0,1.8667,1.8364,0.0,0.0,0.0,0.0,1.5922,1.4533,1.361,1.3101,1.3101,1.2854,1.2702,1.2702,1.2702,1.2834,1.3101,1.2834,1.2988,1.3544,1.3786,1.5486,1.8551,2.0507,2.2724,2.5454,3.3166,3.2639,2.6364,3.2605,2.9495,2.0878,2.6073,2.4162,1.8473,2.0989,2.1487,2.0617,1.9235,1.8739,1.8526,1.7107,1.4884,1.2687,1.2713,1.1352,0.9729,0.9729,0.9729,1.0646,1.4795,1.3455,1.3141,2.2529,2.0245,1.7801,2.5848,2.9854,3.1897,3.1897,3.8664,4.3739,4.0882,4.2673,4.4615,4.4615,4.4615,4.4615,4.4615,4.4615,4.4615,4.4615,4.4615,4.4615,4.4615,4.4615,4.4615,4.4615,4.2985,4.2782,4.4496,4.2951,4.2807,4.4547,4.4615,4.4615,4.4615,4.4615,4.4615,4.4615,4.4615,4.4615,4.4615,4.4615,4.4615,4.4615,4.4615,4.4615,4.4615,4.4615,4.4615,4.4615,4.4615,4.4615,4.4615,4.4615,4.4615,4.4615,0.0,0.0,0.0,0.0,0.0,0.0,0.0,0.0,2.0165,1.9312,0.0,0.0,0.0,0.0,0.0,1.5272,1.442,1.3937,1.394,1.3217,1.2779,1.2779,1.2779,1.314,1.3918,1.3176,1.3563,1.5192,1.4343,1.4363,1.5299,1.9335,2.0794,2.0235,2.5131,3.0015,3.4628,3.5656,3.5832,3.4959,2.9867,2.8364,2.8627,2.3383,2.177,2.2839,2.6882,2.5335,2.1939,2.5911,2.3293,1.8378,1.8284,1.435,0.9798,0.9798,0.9798,0.9962,0.0,0.0,0.0,1.4829,1.5625,1.6267,1.8709,2.5709,3.1689,3.1724,3.8482,4.4412,4.4412,4.4513,4.4615,4.4615,4.4615,4.4615,4.4615,4.4615,4.4615,4.4615,4.4615,4.4615,4.4615,4.4615,4.4615,4.4615,4.453,4.4513,4.4615,4.4615,4.4615,4.4615,4.4615,4.4615,4.4615,4.4615,4.4615,4.4615,4.4615,4.4615,4.4615,4.4615,4.4615,4.4615,4.4615,4.4615,4.4615,4.4615,4.4615,4.4615,4.4615,4.4615,4.4615,4.4615,4.4615,4.4615,0.0,0.0,0.0,0.0,0.0,2.051,2.0437,1.9895,1.9398,0.0,0.0,0.0,1.6951,1.6076,1.5485,1.5287,1.5012,1.4869,1.4903,1.4667,1.4503,1.4503,1.4503,1.4615,1.4843,1.4615,1.4734,1.5192,1.4962,1.4959,1.5228,1.6372,1.6463,1.585,2.0813,2.3443,2.4667,3.2599,2.9452,2.0377,3.4246,3.0803,1.8529,2.878,2.7344,2.0707,2.7141,2.7444,2.5102,2.7385,2.3807,1.7679,1.3527,1.113,0.9882,0.9882,0.9841,0.985,1.0074,0.0,0.0,0.0,0.0,0.0,1.7748,2.2604,2.6644,2.7233,3.4083,3.9961,3.9968,4.2496,4.4615,4.4615,4.4615,4.4615,4.4615,4.4615,4.4615,4.4615,4.4615,4.4615,4.4615,4.4615,4.4615,4.4615,4.2841,4.2603,4.4496,4.4615,4.4615,4.4615,4.4615,4.4615,4.4615,4.4615,4.4615,4.4615,4.4615,4.4615,4.4615,4.4615,4.4615,4.4615,4.4615,4.4615,4.4615,4.4615,4.4615,4.4615,4.4615,4.4615,4.4615,4.4615,4.4615,4.4615,0.0,0.0,0.0,1.9951,1.9964,1.9816,1.9381,1.9182,1.8841,0.0,0.0,0.0,1.6042,1.55,1.521,1.5255,1.5218,1.5212,1.5255,1.5218,1.5192,1.5192,1.5192,1.5192,1.5192,1.4843,1.4843,1.5192,1.4843,1.4843,1.5192,1.5192,1.4558,1.3525,1.6428,1.7034,1.6423,2.5068,2.6268,2.3263,3.3317,3.2808,2.679,3.3947,3.2431,2.7373,3.3751,3.3755,3.1198,3.4197,2.9334,2.1451,1.8078,1.3956,1.0777,1.2914,1.2008,1.023,0.9928,0.9779,1.0284,1.2766,0.0,0.0,1.7517,2.3016,2.7663,2.8117,3.497,4.0311,3.8527,4.0234,4.1928,4.1928,4.1945,4.2598,4.4344,4.4615,4.4615,4.4615,4.4615,4.4615,4.4615,4.4615,4.4615,4.4615,4.3197,4.2985,4.4513,4.4615,4.4615,4.4615,4.4615,4.4615,4.4615,4.4615,4.472,4.4988,4.4988,4.4988,4.4971,4.5232,4.5205,4.4998,4.5258,4.5205,4.4998,4.5258,4.5205,4.4944,4.4692,4.4748,4.4988,4.4988,4.4988,4.4988,0.0,0.0,1.9064,1.9064,1.9057,1.8774,1.7926,1.8387,1.826,0.0,1.6416,1.6061,1.5288,1.5192,1.5195,1.5204,1.5198,1.5195,1.5204,1.5198,1.5192,1.5192,1.5192,1.5192,1.5192,1.444,1.442,1.5192,1.442,1.4382,1.5058,1.5058,1.4214,1.2702,1.2606,1.1697,1.0564,1.56,2.4033,3.3667,2.9798,3.4109,4.2394,3.8389,3.6534,3.6866,4.2556,4.135,3.7727,4.2149,3.6712,2.7856,2.6559,1.9631,1.2737,1.6544,1.4514,1.087,1.0098,0.9869,1.041,1.2752,1.3932,0.0,1.7622,2.4532,3.0571,3.1131,3.7274,4.1503,3.8151,3.7523,3.7501,3.7501,3.7535,3.9067,4.3308,4.4321,4.4412,4.3948,4.4293,4.4615,4.4615,4.4615,4.4615,4.4615,4.4615,4.4615,4.4615,4.4615,4.4615,4.4615,4.4615,4.4615,4.4615,4.4682,4.4971,4.5511,4.5571,4.5597,4.5622,4.6143,4.6112,4.5622,4.6167,4.6112,4.5648,4.6167,4.6021,4.5459,4.4971,4.5142,4.5597,4.5597,4.5545,4.5511,0.0,1.8309,1.8217,1.8166,1.8157,1.8064,1.7839,1.7355,1.6883,1.6535,1.5896,1.5385,1.5212,1.5192,1.5218,1.5277,1.5229,1.5218,1.5277,1.5226,1.5192,1.5192,1.5192,1.5192,1.5192,1.5038,1.5038,1.5192,1.5038,1.467,1.4148,1.4148,1.3635,1.2664,1.1968,1.1466,1.1169,1.1609,1.5766,2.2764,3.094,3.3233,3.2536,4.0046,3.7211,3.0577,4.09,4.0976,3.6285,3.7206,3.6029,3.2546,2.3205,1.9335,1.7388,1.3038,1.1461,1.0973,1.0138,1.0268,1.0939,1.2096,1.3541,0.0,1.6987,1.9386,2.2342,2.6403,2.8465,3.0331,3.2914,3.3238,3.3121,3.3121,3.3157,3.4628,3.8862,4.2428,4.3325,3.9866,4.2513,4.4615,4.4615,4.4615,4.4615,4.4615,4.4615,4.4615,4.4615,4.4615,4.4615,4.4615,4.4615,4.4615,4.4615,4.5089,4.5381,4.5511,4.5989,4.6216,4.624,4.6359,4.6336,4.624,4.6359,4.6336,4.624,4.6359,4.6021,4.5537,4.5908,4.6119,4.6216,4.6216,4.5915,4.5571,1.7904,1.7604,1.7333,1.7263,1.7247,1.7091,1.6617,1.6512,1.636,1.5954,1.5521,1.5234,1.5195,1.5192,1.521,1.5248,1.5215,1.521,1.5248,1.5215,1.5192,1.5192,1.5192,1.5192,1.5192,1.5192,1.5192,1.5192,1.5192,1.4981,1.4555,1.4555,1.3885,1.2702,1.2656,1.1942,1.0752,1.0752,1.3835,1.9462,2.814,3.1855,3.3151,4.1444,4.1002,3.6681,4.2521,4.2715,3.9793,3.6831,3.5847,3.4997,3.0073,2.5113,2.0382,1.6744,1.411,1.2128,1.0928,1.0825,1.1468,1.3163,1.4201,0.0,0.0,1.9293,2.1815,2.4322,2.6477,2.7994,2.8355,2.8329,2.8355,2.8702,2.8757,2.9484,3.162,3.7386,4.1393,4.1376,4.3291,4.4615,4.4615,4.4615,4.4615,4.4615,4.4879,4.5052,4.5052,4.5346,4.5511,4.5511,4.5511,4.5511,4.5511,4.5808,4.6112,4.6448,4.6733,4.691,4.691,4.7198,4.7176,4.691,4.7237,4.7176,4.6932,4.7219,4.6999,4.6448,4.6407,4.6594,4.691,4.691,4.6705,4.6495,1.7401,1.6897,1.6428,1.6372,1.6363,1.6122,1.5431,1.5853,1.6026,1.5379,1.5282,1.5612,1.6509,1.5765,1.5575,1.6516,1.6603,1.6212,1.5263,1.6074,1.6193,1.5244,1.5192,1.5192,1.5192,1.5038,1.4942,1.4942,1.4788,1.4635,1.4462,1.4462,1.383,1.2702,1.3038,1.2823,1.2287,1.2654,1.5727,2.0848,2.6641,3.1268,3.5402,4.2072,4.4084,4.3467,4.4293,4.4615,4.3773,3.8236,3.6263,3.6146,3.6679,3.024,2.2341,2.1534,1.7788,1.3572,1.2171,1.1847,1.2375,1.4324,1.511,1.574,0.0,0.0,0.0,2.2456,2.5285,2.6885,2.4002,2.3599,2.3761,2.3975,2.4252,2.4617,2.5084,3.129,3.7048,4.054,4.1929,4.2566,4.2413,4.3141,4.3874,4.4547,4.5169,4.5511,4.5511,4.607,4.6407,4.6407,4.6407,4.6407,4.6407,4.6524,4.6847,4.7406,4.753,4.7572,4.7593,4.8075,4.8035,4.7593,4.8075,4.8017,4.7614,4.8094,4.8015,4.753,4.6977,4.7088,4.7572,4.7572,4.7509,4.7406,1.5606,1.5574,1.5545,1.5531,1.5546,1.5506,1.5407,1.5414,1.5376,1.5235,1.5207,1.6853,2.1195,1.7801,1.694,2.1289,2.1663,1.9836,1.5488,1.9263,1.9738,1.5383,1.5192,1.5192,1.5192,1.444,1.4052,1.4052,1.3329,1.2584,1.1829,1.1829,1.2139,1.2644,1.1175,1.4061,1.9941,1.8479,2.1141,2.6836,3.2607,3.3055,3.1357,4.0959,4.2224,3.943,4.324,4.4615,4.3952,3.9645,3.7693,3.6327,3.2179,2.7544,2.3307,2.1762,1.8279,1.4717,1.3762,1.398,1.4364,1.3884,1.5555,1.7142,1.657,0.0,1.8376,1.8376,0.0,1.9945,1.9531,0.0,0.0,1.8479,1.9386,2.1061,2.3251,2.5564,2.7211,2.7698,3.2371,3.5285,3.4551,3.7868,4.1323,4.4372,4.5169,4.5511,4.5511,4.607,4.6407,4.6407,4.6407,4.6407,4.6407,4.6999,4.732,4.7406,4.7937,4.8191,4.8191,4.8267,4.8267,4.8191,4.8267,4.8267,4.8191,4.8267,4.8267,4.8191,4.8114,4.8114,4.8191,4.8191,4.7877,4.7488,1.536,1.5383,1.5403,1.5395,1.5365,1.5348,1.5345,1.528,1.5229,1.5195,1.5192,1.706,2.1969,2.0674,2.142,2.636,2.6793,2.5919,2.3847,2.2957,2.1579,1.9523,1.624,1.4459,1.4459,1.3635,1.3195,1.3195,1.2873,1.2507,1.2142,1.2142,1.2084,1.1949,1.1716,1.4654,1.9784,1.9549,2.2487,2.7561,3.049,3.0838,3.0699,4.0755,4.3467,4.169,4.0116,4.1732,4.3376,3.5434,3.6655,4.0219,3.2897,2.9783,2.846,2.678,2.1357,1.6246,1.7744,1.8392,1.8765,1.9374,1.9987,2.0483,2.0625,1.8367,1.6253,1.6253,0.0,0.0,0.0,0.0,0.0,0.0,1.8955,2.0073,2.1126,2.2232,2.449,2.875,3.1446,3.3771,3.5901,3.6385,3.7952,4.1375,4.2556,4.3125,4.3125,4.5893,4.7494,4.7494,4.7494,4.7494,4.7494,4.7797,4.7917,4.7917,4.8172,4.8306,4.8306,4.8306,4.8306,4.8306,4.8306,4.8306,4.8306,4.8306,4.8306,4.8306,4.8306,4.8306,4.8306,4.8306,4.8152,4.7957,1.6043,0.0,1.5366,1.5366,1.5324,1.5379,1.5591,1.651,1.7288,1.7539,1.7558,1.9426,2.4312,2.2666,2.3626,2.9685,3.0225,3.0139,2.9911,2.6736,2.4762,2.4552,1.8162,1.5024,1.5901,1.3812,1.2587,1.2334,1.2103,1.1988,1.1988,1.1988,1.1774,1.1447,1.2315,1.5198,1.9568,2.1774,2.553,3.0196,3.2171,3.3291,3.4375,4.0508,4.3569,4.405,3.9793,4.1019,4.325,3.4315,3.6324,4.1469,3.5126,3.2643,3.2083,3.2229,2.6675,2.1012,2.3351,2.3992,2.3893,2.3535,2.3162,2.2611,2.1663,1.8383,1.5481,1.525,1.5577,0.0,0.0,0.0,1.7928,1.7961,0.0,1.9682,1.9236,2.0047,2.2632,2.7956,2.9781,3.1865,3.512,3.4816,3.5427,3.7917,4.0157,4.139,4.139,4.5786,4.8306,4.8306,4.8306,4.8306,4.8306,4.8306,4.8306,4.8306,4.8306,4.8306,4.8306,4.8306,4.8306,4.8306,4.8306,4.8306,4.8306,4.8306,4.8306,4.8306,4.8306,4.8306,4.8306,4.8306,4.8306,4.8306,1.7727,1.6417,1.5297,1.5297,1.5301,1.555,1.6349,1.9782,2.2566,2.341,2.3529,2.5379,3.0285,2.3058,2.1425,3.0297,3.1062,3.0729,2.9947,3.0482,3.0495,2.9713,2.1157,1.7861,2.0986,1.5579,1.2296,1.1447,1.0596,1.0171,1.0171,1.0171,1.0615,1.1447,1.2315,1.588,2.1571,2.7188,3.2406,3.7313,4.2141,4.4101,4.3705,3.9859,4.0976,4.4581,4.4378,4.4445,4.3936,3.9623,3.7858,3.7524,3.8096,3.4976,3.208,3.6831,3.4629,3.0663,3.0756,3.0792,2.9454,2.3925,2.3162,2.229,1.6745,1.5991,1.6215,1.5365,1.6484,1.7391,1.6635,1.783,1.8427,0.0,1.8484,0.0,0.0,1.8879,1.9929,2.0164,2.4378,2.7564,2.835,3.2053,3.4465,3.4568,3.8804,4.139,4.139,4.5786,4.8306,4.8306,4.8306,4.8306,4.8306,4.8306,4.8306,4.8306,4.8306,4.8306,4.8306,4.8306,4.8306,4.8306,4.8306,4.8306,4.8306,4.8306,4.8306,4.8306,4.8306,4.8306,4.8306,4.8306,4.8306,4.8306,1.8322,1.7316,1.6899,1.6956,1.6913,1.6977,1.7241,1.8458,2.0402,2.341,2.3795,2.6694,3.4302,3.2423,3.2067,3.5665,3.8474,3.8763,3.5792,3.5303,3.502,3.4738,2.817,2.35,2.1361,1.8816,1.5804,1.2257,1.1389,1.0964,1.0964,1.0964,1.1118,1.1447,1.2315,1.5899,2.1643,2.684,3.2195,3.7347,3.9025,3.9689,3.9887,4.1759,4.3342,4.4615,4.4615,4.4615,4.3874,3.9214,3.9624,4.1571,3.858,3.688,3.6863,4.1252,3.7105,3.1691,3.4391,3.5144,3.4679,3.272,3.0415,2.8125,2.6182,2.1346,1.7218,1.6926,1.7314,1.7622,1.7334,1.8222,1.8819,0.0,1.9304,2.0005,0.0,1.9799,2.0069,1.9953,2.1793,2.4209,2.7155,2.7163,2.8103,3.0814,3.2862,3.3982,3.3982,4.0555,4.4323,4.4323,4.6911,4.8306,4.8306,4.8306,4.8306,4.8306,4.8306,4.8306,4.8306,4.8306,4.8306,4.8306,4.8306,4.8306,4.8306,4.8306,4.8306,4.8306,4.8306,4.8306,4.8306,4.8306,4.8306,4.8306,1.9538,1.865,1.8444,1.7872,1.7729,1.8287,2.0061,2.0331,2.2432,2.8259,2.7756,2.9619,3.6869,3.6367,3.631,3.833,3.9583,4.0377,4.0655,3.6058,3.5279,3.9628,3.1828,2.7072,2.6508,2.2803,1.9908,1.7895,1.4134,1.3033,1.4428,1.2679,1.1853,1.1908,1.3063,1.5481,1.9135,2.6404,3.1479,3.4772,3.6487,3.8254,3.999,4.1418,4.3047,4.4615,4.4615,4.4615,4.4101,4.0906,4.1946,4.4033,4.0838,4.0223,4.1199,4.3827,4.0456,3.6489,3.9123,3.9826,3.9459,3.7945,3.5563,3.3168,3.14,2.6753,2.2734,2.2419,2.2424,2.2016,2.0506,2.0747,2.0684,0.0,0.0,2.0308,0.0,2.0023,1.9788,1.966,2.1557,2.3527,2.5137,2.5192,2.5776,2.7361,2.9253,3.0286,3.0191,3.79,4.2304,4.2304,4.6214,4.8306,4.8306,4.8306,4.8306,4.8306,4.8306,4.8306,4.8306,4.8306,4.8306,4.8306,4.8306,4.8306,4.8306,4.8306,4.8306,4.8306,4.8306,4.8306,4.8306,4.8306,4.8306,4.8306,2.1214,2.0308,1.9769,1.8122,1.7986,1.9715,2.4432,2.5322,2.8523,3.7078,3.4988,3.4182,3.8079,3.5214,3.4411,3.7875,3.4831,3.5924,4.3508,3.3259,3.2195,4.4061,3.2681,2.9161,3.5831,2.7609,2.4603,2.7435,1.8596,1.6265,1.9972,1.5055,1.2757,1.2834,1.4464,1.4747,1.4711,2.6177,3.0751,3.0645,3.5062,3.9809,4.3705,3.899,4.0273,4.4615,4.4615,4.4615,4.4615,4.4615,4.4615,4.4615,4.4615,4.4615,4.4615,4.4615,4.4626,4.4654,4.4654,4.4682,4.3695,3.9596,3.8426,3.7056,3.2311,3.1751,3.1964,3.1133,3.1124,3.002,2.6012,2.5276,2.3996,0.0,0.0,2.0404,2.0365,1.9642,1.9126,1.9126,2.3227,2.4986,2.2229,2.5805,2.7152,2.4411,2.7939,3.0198,3.0203,3.7544,4.1915,4.2286,4.581,4.7902,4.8306,4.8104,4.8104,4.8306,4.8306,4.8306,4.8306,4.8306,4.8306,4.8306,4.8306,4.8306,4.8306,4.8306,4.8306,4.8306,4.8306,4.8306,4.8306,4.8306,4.8306,4.8306,2.112,2.0308,2.0154,1.9712,2.2117,2.4518,2.5799,2.8584,3.1341,3.3651,3.5698,3.7339,3.8382,4.0274,3.9434,3.441,3.5784,3.6541,3.5596,3.544,3.8131,4.4321,4.1374,3.8734,3.6913,3.4614,3.2039,2.9237,2.2636,1.994,2.086,1.5913,1.3594,1.3632,1.4712,1.5077,1.5541,2.5847,3.2179,3.5131,3.2737,3.472,3.8956,3.7686,4.0273,4.4615,4.4615,4.4615,4.4615,4.4615,4.4615,4.4615,4.4615,4.4615,4.4615,4.4615,4.4934,4.5267,4.5267,4.5597,4.5558,4.4007,4.1729,3.9374,3.7595,3.5405,3.366,3.3443,3.3432,3.3148,3.2059,2.9589,2.7358,2.6313,2.3908,2.1927,2.1273,2.1004,2.085,2.085,2.1976,2.2382,2.1492,2.2879,2.4008,2.4381,2.5419,2.7266,3.0056,3.2472,3.6374,4.2119,4.0495,4.2339,4.8251,4.5333,4.5351,4.8306,4.8306,4.8306,4.8306,4.8306,4.8306,4.8306,4.8306,4.8306,4.8306,4.8306,4.8306,4.8306,4.8306,4.8306,4.8306,4.8306,4.8306,4.8306,2.1148,2.0308,2.0308,2.0308,2.5111,2.8978,2.8978,3.0919,3.3686,3.7273,3.8183,3.9163,4.0967,4.3229,4.2764,3.8148,3.6574,3.6369,3.7644,3.4884,3.6591,4.4253,4.289,4.0634,3.7836,3.7767,3.643,3.3664,2.6086,2.3313,2.4908,1.78,1.4478,1.4497,1.4981,1.5192,1.5851,2.5727,3.2948,3.7495,3.4347,3.6032,0.0,3.8019,4.0273,4.4615,4.4615,4.4615,4.4615,4.4615,4.4615,4.4615,4.4615,4.4615,4.4615,4.4615,4.4841,4.5115,4.5115,4.5563,4.5989,4.5915,4.4676,4.3364,4.2972,4.1415,4.0026,4.0026,3.9796,3.912,3.7632,3.4008,3.0085,2.6635,2.4232,2.2624,2.2139,2.3207,2.3266,2.1218,2.28,2.331,2.1512,2.2367,2.348,2.4553,2.4689,2.563,2.7743,3.1305,3.4523,3.7178,3.8489,4.0493,4.3259,4.1036,4.1899,4.5806,4.5806,4.6691,4.8306,4.8306,4.8306,4.8306,4.8306,4.8306,4.8306,4.8306,4.8306,4.8306,4.8306,4.8306,4.8306,4.8306,4.8306,4.8306,2.1056,2.0212,2.0422,2.0866,2.6849,3.1956,3.3043,3.3651,3.6372,4.2959,4.1182,4.0456,4.3474,4.427,4.4389,4.3861,3.7307,3.6234,4.3338,3.3811,3.29,4.4111,4.1216,3.9301,3.9301,3.9301,3.9301,3.9301,2.9415,2.6417,2.968,1.9799,1.5192,1.5192,1.5192,1.592,1.7651,2.5697,3.2669,3.8247,3.7499,3.9775,4.3233,3.9559,4.0838,4.4615,4.4615,4.4615,4.4615,4.4615,4.4615,4.4615,4.4615,4.4615,4.4615,4.4615,4.4654,4.472,4.472,4.5232,4.5858,4.6288,4.6977,4.7509,4.7406,4.7449,4.753,4.753,4.7044,4.5731,4.2757,3.8125,3.2314,2.4925,2.3294,2.2893,2.2663,2.552,2.5891,2.1182,2.4778,0.0,2.2363,2.3241,2.4268,2.4785,2.4924,2.5177,2.5563,3.1586,3.3971,3.1663,3.775,3.9928,3.7574,3.7025,3.8992,4.3352,4.2847,4.4601,4.8306,4.8306,4.8306,4.8306,4.8306,4.8306,4.8306,4.8306,4.8306,4.8306,4.8306,4.8306,4.8306,4.8306,4.8306,4.8306,2.0182,1.9812,2.1144,2.3803,2.5979,2.9646,3.6384,4.0291,4.1766,3.9812,4.1878,4.2517,3.9864,4.2576,4.3246,3.9864,3.8265,3.8049,3.9462,3.7557,3.8834,4.4355,4.3902,4.3532,4.3532,4.3532,4.3532,4.3532,3.366,2.9204,2.968,1.9799,1.5192,1.5192,1.5192,1.9719,2.7223,2.5565,2.9742,3.7408,3.7249,3.7737,3.8859,4.2082,4.384,4.4615,4.4615,4.4615,4.4615,4.4615,4.4615,4.4615,4.4615,4.4615,4.4615,4.4615,4.4944,4.5346,4.5346,4.6185,4.6955,4.6524,4.7281,4.8015,4.7509,4.7777,4.8152,4.8152,4.8055,4.7781,4.7168,4.0688,3.3926,2.9328,2.5935,2.3374,2.1927,2.6136,2.7609,2.292,2.6498,2.8118,2.4937,2.415,2.4158,2.4911,2.4992,2.6391,2.9578,2.8164,2.9861,3.5574,3.3866,3.5676,4.1531,3.8238,4.017,4.7242,4.4099,4.4601,4.8306,4.8306,4.8306,4.8306,4.8306,4.8306,4.8306,4.8306,4.8306,4.8306,4.8306,4.8306,4.8306,4.8306,4.8306,4.8306,2.3922,2.2457,2.2096,2.365,2.7364,3.1477,3.5416,4.0893,4.3885,4.1912,4.3372,4.3861,4.1878,4.3423,4.381,4.1852,3.9732,3.9399,4.1543,3.968,4.0326,4.4423,4.4615,4.3617,4.1492,4.3498,4.3549,4.1441,3.3695,2.9911,2.968,1.9799,1.5192,1.5315,1.7852,2.212,2.7563,2.9796,3.3508,3.8055,4.0168,4.1034,4.1282,4.3698,4.4615,4.4615,4.4615,4.4615,4.4615,4.4615,4.4615,4.4615,4.4615,4.4814,4.5062,4.5062,4.5494,4.5965,4.5965,4.6682,4.732,4.6999,4.7596,4.821,4.7937,4.8094,4.8306,4.8306,4.8306,4.7701,4.5713,4.1992,3.797,3.406,2.9837,2.6766,2.5914,2.7739,2.8336,2.6073,2.9944,3.1439,2.7979,2.762,2.691,2.528,2.5157,2.5981,2.784,2.8188,3.0003,3.372,3.3888,3.5729,3.9556,3.7646,3.9579,4.5325,4.3483,4.4601,4.8306,4.8306,4.8306,4.8306,4.8306,4.8306,4.8306,4.8306,4.8306,4.8306,4.8306,4.8306,4.8306,4.8306,4.8306,4.8306,2.837,2.6449,2.5055,2.5734,3.005,3.4014,3.5753,4.0164,4.3617,4.4479,4.4615,4.4615,4.4615,4.4615,4.4315,4.363,4.1233,4.0566,4.2424,4.0817,4.0923,4.3452,4.4241,4.3102,3.9881,4.2932,4.3017,3.9795,3.4197,3.0929,2.9715,2.0883,1.6757,1.6978,2.2068,2.5574,2.8095,3.4688,3.8372,4.0098,4.3287,4.4615,4.4615,4.4615,4.4615,4.4615,4.4615,4.4615,4.4615,4.4615,4.4615,4.4615,4.4615,4.4934,4.5346,4.5459,4.5833,4.624,4.6359,4.6887,4.7406,4.7406,4.7838,4.8306,4.8306,4.8306,4.8306,4.8306,4.8306,4.7371,4.436,4.3,4.1048,3.7162,3.2608,2.9185,2.8176,2.851,2.8785,2.8596,3.2164,3.3375,3.011,2.9847,2.8533,2.5293,2.5192,2.5667,2.6496,2.864,3.0242,3.1078,3.402,3.5972,3.6793,3.6812,3.9154,4.38,4.2979,4.4601,4.8306,4.8306,4.8306,4.8306,4.8306,4.8306,4.8306,4.8306,4.8306,4.8306,4.8306,4.8306,4.8306,4.8306,4.8306,4.8306,3.0932,3.1163,3.2412,3.5349,3.4005,3.5025,4.2449,4.1001,4.0388,4.4111,4.4615,4.4615,4.4615,4.4615,4.3384,4.0424,4.2544,4.17,3.6167,4.0974,4.2876,4.0274,4.3012,4.4423,4.4054,4.4406,4.4423,4.4037,3.8979,3.4258,2.977,2.4346,2.183,2.2061,2.7758,3.244,3.616,3.7716,4.0563,4.4044,4.4456,4.4615,4.4615,4.4615,4.4615,4.4615,4.4615,4.4615,4.4615,4.4615,4.4615,4.4615,4.4615,4.4654,4.4786,4.5346,4.5545,4.5707,4.624,4.6887,4.7406,4.7406,4.7838,4.8306,4.8306,4.8306,4.8306,4.8306,4.8306,4.8196,4.7829,4.4276,4.017,3.6323,3.1779,2.7208,2.2873,2.6542,2.9388,2.8588,3.0288,3.1073,2.9907,2.7408,2.5398,2.4298,2.4889,2.6837,3.0367,2.7555,2.7465,3.0983,3.1442,3.3307,3.6774,3.6812,4.049,4.772,4.4266,4.4601,4.8306,4.8306,4.8306,4.8306,4.8306,4.8306,4.8306,4.8306,4.8306,4.8306,4.8306,4.8306,4.8306,4.8306,4.8306,4.8306,3.6954,3.5721,3.517,3.6898,3.7725,3.9273,4.253,4.3288,4.4065,4.5727,4.5534,4.5263,4.5263,4.5652,4.519,4.3448,4.45,4.3953,4.0935,4.3157,4.3997,4.2689,4.3888,4.4615,4.4615,4.4615,4.4615,4.4615,3.7711,3.3037,3.0517,2.6129,2.5346,2.7875,3.2634,3.5972,3.8146,4.0969,4.3119,4.4615,4.4615,4.4615,4.4615,4.4615,4.4615,4.4615,4.4615,4.4615,4.4615,4.4615,4.4615,4.4615,4.4615,4.4841,4.5258,4.5865,4.6329,4.6774,4.7367,4.7756,4.7937,4.7937,4.8114,4.8306,4.8306,4.8306,4.8306,4.8306,4.8306,4.8306,4.8306,4.6765,4.4237,4.0414,3.7793,3.4752,3.0545,3.1431,3.342,3.5882,3.4776,3.4775,3.725,3.2213,2.8653,2.8329,2.6433,2.5973,2.7536,2.8356,3.0533,3.4402,3.4524,3.7474,4.3652,4.1419,4.2979,4.8288,4.6746,4.682,4.8306,4.8306,4.8306,4.8306,4.8306,4.8306,4.8306,4.8306,4.8306,4.8306,4.8306,4.8306,4.8306,4.8306,4.8306,4.8306,4.2521,4.0809,3.9417,3.9919,4.1898,4.3026,4.1845,4.4578,4.6382,4.5233,4.5801,4.6261,4.6058,4.6481,4.6196,4.4739,4.5462,4.5003,4.2585,4.4191,4.4732,4.3557,4.4438,4.4835,4.4615,4.4615,4.4615,4.4615,3.8822,3.4929,3.2844,2.9979,3.0163,3.3073,3.743,3.9716,4.0491,4.3372,4.4615,4.4615,4.4615,4.4615,4.4615,4.4615,4.4615,4.4615,4.4615,4.4615,4.4615,4.4615,4.4615,4.4615,4.4615,4.4879,4.5399,4.6167,4.6751,4.7281,4.8075,4.8306,4.8306,4.8306,4.8306,4.8306,4.8306,4.8306,4.8306,4.8306,4.8306,4.8306,4.8306,4.8306,4.704,4.3222,4.1872,3.9966,3.6148,3.5077,3.5907,3.9231,3.6466,3.5939,4.0141,3.4811,3.0993,3.0747,2.8419,2.7017,2.7017,2.8514,3.1156,3.4999,3.4009,3.7112,4.4843,4.223,4.3391,4.8306,4.8306,4.8306,4.8306,4.8306,4.8306,4.8306,4.8306,4.8306,4.8306,4.8306,4.8306,4.8306,4.8306,4.8306,4.8306,4.8306,4.8306,4.8306,4.673,4.6697,4.6663,4.668,4.6713,4.5416,4.1497,4.4253,4.5399,4.1462,4.5012,4.7614,4.6853,4.6786,4.5522,4.2299,4.4951,4.4086,3.7699,4.3235,4.5039,4.1117,4.4002,4.5348,4.4632,4.4615,4.4615,4.4615,4.4496,4.1954,3.7128,3.7081,3.7081,3.733,4.2294,4.4513,4.453,4.4581,4.4615,4.4615,4.4615,4.4615,4.4615,4.4615,4.4615,4.4615,4.4615,4.4615,4.4615,4.4615,4.4615,4.4615,4.4615,4.4615,4.4841,4.6063,4.6407,4.6687,4.7957,4.8306,4.8306,4.8306,4.8306,4.8306,4.8306,4.8306,4.8306,4.8306,4.8306,4.8306,4.8306,4.8306,4.704,4.3222,4.1872,3.9966,3.6148,3.5586,3.5605,3.5649,3.2995,3.2345,3.5385,3.291,3.0747,2.9869,3.0576,3.1021,3.1021,2.7427,2.7158,3.1059,2.7446,2.915,3.6856,3.6893,4.0717,4.8306,4.8306,4.8306,4.8306,4.8306,4.8306,4.8306,4.8306,4.8306,4.8306,4.8306,4.8306,4.8306,4.8306,4.8306,4.8306,4.8306,4.8306,4.8306,4.153,4.463,4.7046,4.5438,4.692,4.789,4.6629,4.7492,4.7857,4.6595,4.773,4.8562,4.8325,4.8308,4.7687,4.6153,4.4479,4.3597,4.3735,4.3124,4.3417,4.4862,4.3306,4.2307,4.2091,4.154,4.1247,4.1247,4.1247,4.0446,3.8893,3.8338,3.9564,4.2311,4.3908,4.4615,4.4615,4.4615,4.4615,4.4615,4.4615,4.4615,4.4615,4.4615,4.4615,4.4615,4.4615,4.4615,4.4654,4.5062,4.5205,4.5284,4.5681,4.5545,4.5372,4.6167,4.671,4.7259,4.8075,4.8306,4.8306,4.8306,4.8306,4.8306,4.8306,4.8306,4.8306,4.8306,4.8306,4.8306,4.8306,4.8306,4.704,4.3222,4.4566,4.4736,4.0919,4.0368,4.0368,4.0368,3.7175,3.6405,4.0011,3.7112,3.4867,3.4594,3.2421,3.1099,3.1088,3.2401,3.4924,3.8809,3.7748,3.9518,4.4601,4.206,4.3296,4.8306,4.8306,4.8306,4.8306,4.8306,4.8306,4.8306,4.8306,4.8306,4.8306,4.8306,4.8306,4.8306,4.8306,4.8306,4.8306,4.8306,4.8306,4.8306,4.2789,4.5625,4.7831,4.6371,4.7715,4.8501,4.701,4.8048,4.8467,4.6976,4.8082,4.9001,4.9001,4.9001,4.8815,4.8359,4.6032,4.5467,4.7492,4.5309,4.492,4.7137,4.4831,4.34,4.3133,4.2618,4.236,4.236,4.2085,4.1793,4.1543,4.104,4.2159,4.4615,4.4615,4.4615,4.4615,4.4615,4.4615,4.4615,4.4615,4.4615,4.4615,4.4615,4.4615,4.4615,4.4615,4.4748,4.4998,4.5355,4.5648,4.589,4.6288,4.6312,4.6281,4.6682,4.7066,4.753,4.8152,4.8306,4.8306,4.8306,4.8306,4.8306,4.8306,4.8306,4.8306,4.8306,4.8306,4.8306,4.8306,4.8306,4.7518,4.5121,4.6728,4.7481,4.5084,4.3502,4.2603,4.2603,3.9173,3.8326,4.2227,4.0411,3.8982,3.8982,3.5405,3.3869,3.5334,3.4953,3.6424,4.03,4.043,4.2267,4.6119,4.38,4.4526,4.8306,4.8306,4.8306,4.8306,4.8306,4.8306,4.8306,4.8306,4.8306,4.8306,4.8306,4.8306,4.8306,4.8306,4.8306,4.8306,4.8306,4.8306,4.8306,4.8404,4.8704,4.8917,4.8738,4.8846,4.7767,4.406,4.6624,4.7665,4.3999,4.6726,4.9001,4.9001,4.9001,4.9001,4.9001,4.8728,4.8724,4.8984,4.8728,4.8419,4.7973,4.7712,4.7234,4.6569,4.6501,4.6573,4.6786,4.6058,4.5348,4.4682,4.4632,4.4615,4.4615,4.4615,4.4615,4.4615,4.4615,4.4615,4.4615,4.4615,4.4615,4.4615,4.4615,4.4615,4.4615,4.4654,4.5025,4.5494,4.5597,4.6014,4.6478,4.6524,4.6955,4.7449,4.7406,4.7428,4.7593,4.8152,4.8306,4.8306,4.8306,4.8306,4.8306,4.8306,4.8306,4.8306,4.8306,4.8306,4.8306,4.8306,4.8306,4.8306,4.8306,4.8306,4.8214,4.794,4.4843,4.2508,4.2227,3.9248,3.8617,4.2245,4.2847,4.2902,4.2622,3.9248,3.8771,4.2415,3.5807,3.3654,3.7493,3.7611,3.9346,4.2961,4.2998,4.4769,4.8306,4.8306,4.8306,4.8306,4.8306,4.8306,4.8306,4.8306,4.8306,4.8306,4.8306,4.8306,4.8306,4.8306,4.8306,4.8306,4.8306,4.8306,4.8306,4.237,4.5726,4.8265,4.5897,4.7443,4.869,4.775,4.8412,4.8657,4.7733,4.8399,4.9001,4.9001,4.9001,4.9001,4.9001,4.6229,4.5764,4.8795,4.6161,4.5764,4.8626,4.5846,4.4139,4.3967,4.3423,4.4342,4.6786,4.6058,4.5618,4.5432,4.484,4.4615,4.4615,4.4615,4.4615,4.4615,4.4615,4.4615,4.4615,4.4615,4.4615,4.4615,4.4615,4.4615,4.4654,4.5115,4.5399,4.5648,4.6612,4.7062,4.7237,4.7697,4.7957,4.8015,4.753,4.7736,4.8114,4.8267,4.8306,4.8306,4.8306,4.8306,4.8306,4.8306,4.8306,4.8306,4.8306,4.8306,4.8306,4.8306,4.8306,4.8306,4.8306,4.8306,4.7279,4.436,4.3167,4.1494,3.8536,3.9974,4.1586,4.2511,4.5233,4.5732,4.2828,4.1757,4.1642,4.2548,4.087,4.1642,4.5455,4.5584,4.6009,4.6948,4.6948,4.7408,4.8306,4.8306,4.8306,4.8306,4.8306,4.8306,4.8306,4.8306,4.8306,4.8306,4.8306,4.8306,4.8306,4.8306,4.8306,4.8306,4.8306,4.8306,4.8306,4.4303,4.6694,4.8476,4.6803,4.7907,4.9001,4.9001,4.9001,4.9001,4.9001,4.9001,4.9001,4.9001,4.9001,4.9001,4.9001,4.7045,4.6709,4.8863,4.6993,4.6749,4.8931,4.6942,4.5799,4.5799,4.5387,4.5896,4.731,4.6904,4.6363,4.5703,4.528,4.4908,4.4615,4.4615,4.4615,4.4615,4.4615,4.4615,4.4615,4.4615,4.4615,4.4615,4.4615,4.4759,4.5035,4.5381,4.5883,4.6472,4.7172,4.7593,4.7877,4.8191,4.8306,4.8248,4.7917,4.8055,4.8306,4.8306,4.8306,4.8306,4.8306,4.8306,4.8306,4.8306,4.8306,4.8306,4.8306,4.8306,4.8306,4.8306,4.8306,4.8306,4.8306,4.682,4.4972,4.2902,4.1059,3.984,3.9481,4.1304,4.3296,4.5029,4.7077,4.7444,4.5362,4.3594,4.337,4.5102,4.3557,4.4341,4.8177,4.8306,4.8306,4.8306,4.8306,4.8306,4.8306,4.8306,4.8306,4.8306,4.8306,4.8306,4.8306,4.8306,4.8306,4.8306,4.8306,4.8306,4.8306,4.8306,4.8306,4.8306,4.8306,4.8306,4.8306,4.9001,4.9001,4.9001,4.9001,4.9001,4.9001,4.9001,4.9001,4.9001,4.9001,4.9001,4.9001,4.9001,4.9001,4.9001,4.9001,4.9001,4.9001,4.9001,4.9001,4.9001,4.9001,4.9001,4.9001,4.9001,4.9001,4.8697,4.8058,4.7939,4.7246,4.6041,4.5805,4.5365,4.4767,4.4649,4.4615,4.4615,4.4615,4.4615,4.4615,4.4615,4.4615,4.4598,4.4692,4.5035,4.5537,4.5724,4.6495,4.7406,4.7509,4.7877,4.8306,4.8306,4.8306,4.8306,4.8306,4.8306,4.8306,4.8306,4.8306,4.8306,4.8306,4.8306,4.8306,4.8306,4.8306,4.8306,4.8306,4.8306,4.8306,4.8306,4.8306,4.8104,4.7518,4.4731,4.2397,4.1812,3.9383,3.8888,4.2208,4.3109,4.4749,4.7995,4.8306,4.8306,4.8306,4.5288,4.488,4.8122,4.5214,4.4953,4.8196,4.8306,4.8306,4.8306,4.8306,4.8306,4.8306,4.8306,4.8306,4.8306,4.8306,4.8306,4.8306,4.8306,4.8306,4.8306,4.8306,4.8306,4.8306,4.8306,4.8306,4.8306,4.8306,4.8306,4.8306,4.9001,4.9001,4.9001,4.9001,4.9001,4.9001,4.9001,4.9001,4.9001,4.9001,4.9001,4.9001,4.9001,4.9001,4.9001,4.9001,4.9001,4.9001,4.9001,4.9001,4.9001,4.9001,4.9001,4.9001,4.9001,4.9001,4.8951,4.8832,4.8193,4.777,4.7517,4.6295,4.5652,4.55,4.4874,4.4615,4.4615,4.4615,4.4615,4.4615,4.4615,4.4615,4.4654,4.5169,4.5407,4.5648,4.6728,4.7216,4.7488,4.7977,4.821,4.8306,4.8306,4.8306,4.8306,4.8306,4.8306,4.8306,4.8306,4.8306,4.8306,4.8306,4.8306,4.8306,4.8306,4.8306,4.8306,4.8306,4.8306,4.8306,4.8306,4.8306,4.7224,4.4024,4.2979,4.1438,3.8171,4.0012,4.1927,4.2529,4.5454,4.7646,4.8251,4.8306,4.8306,4.8306,4.7756,4.7665,4.8269,4.7738,4.7701,4.8288,4.8306,4.8306,4.8306,4.8306,4.8306,4.8306,4.8306,4.8306,4.8306,4.8306,4.8306,4.8306,4.8306,4.8306,4.8306,4.8306,4.8306,4.8306,4.8306,4.8306,4.8306,4.8306,4.8306,4.8306,4.9001,4.9001,4.9001,4.9001,4.9001,4.9001,4.9001,4.9001,4.9001,4.9001,4.9001,4.9001,4.9001,4.9001,4.9001,4.9001,4.9001,4.9001,4.9001,4.9001,4.9001,4.9001,4.9001,4.9001,4.9001,4.9001,4.9001,4.9001,4.8663,4.8308,4.7872,4.7179,4.6464,4.5703,4.5331,4.4959,4.4615,4.4615,4.4615,4.4615,4.4615,4.4786,4.5115,4.5381,4.5933,4.6589,4.7194,4.7614,4.7917,4.821,4.8306,4.8306,4.8306,4.8306,4.8306,4.8306,4.8306,4.8306,4.8306,4.8306,4.8306,4.8306,4.8306,4.8306,4.8306,4.8306,4.8306,4.8306,4.8306,4.8306,4.8306,4.8306,4.772,4.5971,4.395,4.1964,4.0184,4.1456,4.2603,4.2603,4.5971,4.8306,4.8306,4.8306,4.8306,4.8306,4.8306,4.8306,4.8306,4.8306,4.8306,4.8306,4.8306,4.8306,4.8306,4.8306,4.8306,4.8306,4.8306,4.8306,4.8306,4.8306,4.8306,4.8306,4.8306,4.8306,4.8306,4.8306,4.8306,4.8306,4.8306,4.8306,4.8306,4.8306,4.8306,4.8306,4.9001,4.9001,4.9001,4.9001,4.9001,4.9001,4.9001,4.9001,4.9001,4.9001,4.9001,4.9001,4.9001,4.9001,4.9001,4.9001,4.9001,4.9001,4.9001,4.9001,4.9001,4.9001,4.9001,4.9001,4.9001,4.9001,4.9001,4.9001,4.9001,4.8714,4.8142,4.7973,4.7208,4.5957,4.5788,4.528,4.4615,4.4615,4.4615,4.4598,4.4748,4.5089,4.552,4.5833,4.6542,4.7406,4.7551,4.7917,4.8306,4.8306,4.8306,4.8306,4.8306,4.8306,4.8306,4.8306,4.8306,4.8306,4.8306,4.8306,4.8306,4.8306,4.8306,4.8306,4.8306,4.8306,4.8306,4.8306,4.8306,4.8306,4.8306,4.8306,4.8013,4.7114,4.4509,4.2603,4.2603,4.2603,4.2939,4.382,4.6507,4.8306,4.8306,4.8306,4.8306,4.8306,4.8306,4.8306,4.8306,4.8306,4.8306,4.8306,4.8306,4.8306,4.8306,4.8306,4.8306,4.8306,4.8306,4.8306,4.8306,4.8306,4.8306,4.8306,4.8306,4.8306,4.8306,4.8306,4.8306,4.8306,4.8306,4.8306,4.8306,4.8306,4.8306,4.8306,4.9001,4.9001,4.9001,4.9001,4.9001,4.9001,4.9001,4.9001,4.9001,4.9001,4.9001,4.9001,4.9001,4.9001,4.9001,4.9001,4.9001,4.9001,4.9001,4.9001,4.9001,4.9001,4.9001,4.9001,4.9001,4.9001,4.9001,4.9001,4.9001,4.8968,4.89,4.824,4.7479,4.6684,4.6007,4.528,4.4615,4.4615,4.4615,4.4654,4.5205,4.5459,4.5622,4.6819,4.732,4.747,4.8035,4.8267,4.8306,4.8306,4.8306,4.8306,4.8306,4.8306,4.8306,4.8306,4.8306,4.8306,4.8306,4.8306,4.8306,4.8306,4.8306,4.8306,4.8306,4.8306,4.8306,4.8306,4.8306,4.8306,4.8306,4.8306,4.7151,4.3597,4.2773,4.2603,4.2603,4.2603,4.3913,4.7463,4.8122,4.8306,4.8306,4.8306,4.8306,4.8306,4.8306,4.8306,4.8306,4.8306,4.8306,4.8306,4.8306,4.8306,4.8306,4.8306,4.8306,4.8306,4.8306,4.8306,4.8306,4.8306,4.8306,4.8306,4.8306,4.8306,4.8306,4.8306,4.8306,4.8306,4.8306,4.8306,4.8306,4.8306,4.8306,4.8306,4.9001,4.9001,4.9001,4.9001,4.9001,4.9001,4.9001,4.9001,4.9001,4.9001,4.9001,4.9001,4.9001,4.9001,4.9001,4.9001,4.9001,4.9001,4.9001,4.9001,4.9001,4.9001,4.9001,4.9001,4.9001,4.9001,4.9001,4.9001,4.9001,4.9001,4.9001,4.8714,4.8189,4.7462,4.6718,4.5974,4.5246,4.4801,4.4814,4.5178,4.5425,4.5982,4.6728,4.7234,4.7635,4.7977,4.821,4.8306,4.8306,4.8306,4.8306,4.8306,4.8306,4.8306,4.8306,4.8306,4.8306,4.8306,4.8306,4.8306,4.8306,4.8306,4.8306,4.8306,4.8306,4.8306,4.8306,4.8306,4.8306,4.8306,4.8306,4.8306,4.7811,4.6378,4.6138,4.6138,4.6138,4.6138,4.6672,4.8122,4.8306,4.8306,4.8306,4.8306,4.8306,4.8306,4.8306,4.8306,4.8306,4.8306,4.8306,4.8306,4.8306,4.8306,4.8306,4.8306,4.8306,4.8306,4.8306,4.8306,4.8306,4.8306,4.8306,4.8306,4.8306,4.8306,4.8306,4.8306,4.8306,4.8306,4.8306,4.8306,4.8306,4.8306,4.8306,4.8306,4.9001,4.9001,4.9001,4.9001,4.9001,4.9001,4.9001,4.9001,4.9001,4.9001,4.9001,4.9001,4.9001,4.9001,4.9001,4.9001,4.9001,4.9001,4.9001,4.9001,4.9001,4.9001,4.9001,4.9001,4.9001,4.9001,4.9001,4.9001,4.9001,4.9001,4.9001,4.9001,4.8612,4.7872,4.7378,4.6735,4.6007,4.5529,4.5525,4.5858,4.6072,4.6655,4.7428,4.7614,4.7937,4.8306,4.8306,4.8306,4.8306,4.8306,4.8306,4.8306,4.8306,4.8306,4.8306,4.8306,4.8306,4.8306,4.8306,4.8306,4.8306,4.8306,4.8306,4.8306,4.8306,4.8306,4.8306,4.8306,4.8306,4.8306,4.8306,4.8306,4.8306,4.8306,4.8306,4.8306,4.8306,4.8306,4.8306,4.8306,4.8306,4.8306,4.8306,4.8306,4.8306,4.8306,4.8306,4.8306,4.8306,4.8306,4.8306,4.8306,4.8306,4.8306,4.8306,4.8306,4.8306,4.8306,4.8306,4.8306,4.8306,4.8306,4.8306,4.8306,4.8306,4.8306,4.8306,4.8306,4.8306,4.8306,4.8306,4.8306,4.8306,4.8306,4.8306,4.8306,4.9001,4.9001,4.9001,4.9001,4.9001,4.9001,4.9001,4.9001,4.9001,4.9001,4.9001,4.9001,4.9001,4.9001,4.9001,4.9001,4.9001,4.9001,4.9001,4.9001,4.9001,4.9001,4.9001,4.9001,4.9001,4.9001,4.9001,4.9001,4.9001,4.9001,4.9001,4.9001,4.8612,4.7889,4.7889,4.7496,4.6802,4.6832,4.6709,4.6673,4.7339,4.7528,4.7506,4.8093,4.8324,4.8324,4.8324,4.8324,4.8324,4.8324,4.8324,4.8324,4.8306,4.8306,4.8306,4.8306,4.8306,4.8306,4.8306,4.8306,4.8306,4.8306,4.8306,4.8306,4.8306,4.8306,4.8306,4.8306,4.8306,4.8306,4.8306,4.8306,4.8306,4.8306,4.8306,4.8306,4.8306,4.8306,4.8306,4.8306,4.8306,4.8306,4.8306,4.8306,4.8306,4.8306,4.8306,4.8306,4.8306,4.8306,4.8306,4.8306,4.8306,4.8306,4.8306,4.8306,4.8306,4.8306,4.8306,4.8306,4.8306,4.8306,4.8306,4.8306,4.8306,4.8306,4.8306,4.8306,4.8306,4.8306,4.8306,4.8306,4.8306,4.8306,4.8306,4.8306,4.9001,4.9001,4.9001,4.9001,4.9001,4.9001,4.9001,4.9001,4.9001,4.9001,4.9001,4.9001,4.9001,4.9001,4.9001,4.9001,4.9001,4.9001,4.9001,4.9001,4.9001,4.9001,4.9001,4.9001,4.9001,4.9001,4.9001,4.9001,4.9001,4.9001,4.9001,4.9001,4.8883,4.8663,4.8125,4.78,4.7577,4.7501,4.7732,4.8207,4.8865,4.9408,4.9809,4.999,5.005,5.005,5.005,5.005,4.9976,4.9389,4.9225,4.9095,4.8489,4.8306,4.8306,4.8306,4.8306,4.8306,4.8306,4.8306,4.8306,4.8306,4.8306,4.8306,4.8306,4.8306,4.8306,4.8306,4.8306,4.8306,4.8306,4.8306,4.8306,4.8306,4.8306,4.8306,4.8306,4.8306,4.8306,4.8306,4.8306,4.8306,4.8306,4.8306,4.8306,4.8306,4.8306,4.8306,4.8306,4.8306,4.8306,4.8306,4.8306,4.8306,4.8306,4.8306,4.8306,4.8306,4.8306,4.8306,4.8306,4.8306,4.8306,4.8306,4.8306,4.8306,4.8306,4.8306,4.8306,4.8306,4.8306,4.8306,4.8306,4.8306,4.8306,4.8306,4.9001,4.9001,4.9001,4.9001,4.9001,4.9001,4.9001,4.9001,4.9001,4.9001,4.9001,4.9001,4.9001,4.9001,4.9001,4.9001,4.9001,4.9001,4.9001,4.9001,4.9001,4.9001,4.9001,4.9001,4.9001,4.9001,4.9001,4.9001,4.9001,4.9001,4.9001,4.9001,4.9001,4.8984,4.8545,4.8459,4.8719,4.8694,4.9048,4.9668,5.0063,5.0468,5.0802,5.0802,5.0802,5.0802,5.0802,5.0802,5.0729,5.0233,5.0068,4.9976,4.9462,4.9297,4.9242,4.8912,4.8802,4.8746,4.8398,4.8306,4.8306,4.8306,4.8306,4.8306,4.8306,4.8306,4.8306,4.8306,4.8306,4.8306,4.8306,4.8306,4.8306,4.8306,4.8306,4.8306,4.8306,4.8306,4.8306,4.8306,4.8306,4.8306,4.8306,4.8306,4.8306,4.8306,4.8306,4.8306,4.8306,4.8306,4.8306,4.8306,4.8306,4.8306,4.8306,4.8306,4.8306,4.8306,4.8306,4.8306,4.8306,4.8306,4.8306,4.8306,4.8306,4.8306,4.8306,4.8306,4.8306,4.8306,4.8306,4.8306,4.8306,4.8306,4.8306,4.8306,4.9001,4.9001,4.9001,4.9001,4.9001,4.9001,4.9001,4.9001,4.9001,4.9001,4.9001,4.9001,4.9001,4.9001,4.9001,4.9001,4.9001,4.9001,4.9001,4.9001,4.9001,4.9001,4.9001,4.9001,4.9001,4.9001,4.9001,4.9001,4.9001,4.9001,4.9001,4.9001,4.9001,4.9001,4.9001,4.9359,5.0004,5.0072,5.0453,5.1012,5.1076,5.1071,5.1022,5.1022,5.1022,5.1022,5.1022,5.1022,5.1004,5.093,5.0857,5.0802,5.0802,5.0802,5.0655,4.9922,4.9721,4.9537,4.8746,4.8471,4.8416,4.8416,4.8361,4.8306,4.8306,4.8306,4.8306,4.8306,4.8306,4.8306,4.8306,4.8306,4.8306,4.8306,4.8306,4.8306,4.8306,4.8306,4.8306,4.8306,4.8306,4.8306,4.8306,4.8306,4.8306,4.8306,4.8306,4.8306,4.8306,4.8306,4.8306,4.8306,4.8306,4.8306,4.8306,4.8306,4.8306,4.8306,4.8306,4.8306,4.8306,4.8306,4.8306,4.8306,4.8306,4.8306,4.8306,4.8306,4.8306,4.8306,4.8306,4.8306,4.8306,4.8306,4.8306,4.8306,4.9001,4.9001,4.9001,4.9001,4.9001,4.9001,4.9001,4.9001,4.9001,4.9001,4.9001,4.9001,4.9001,4.9001,4.9001,4.9001,4.9001,4.9001,4.9001,4.9001,4.9001,4.9001,4.9001,4.9001,4.9001,4.9001,4.9001,4.9001,4.9001,4.9001,4.9001,4.9001,4.9001,4.9001,4.9001,4.9359,5.0033,5.0608,5.1236,5.1907,5.2474,5.2676,5.2692,5.2692,5.2692,5.2692,5.2692,5.2692,5.2582,5.194,5.1316,5.0802,5.0802,5.0802,5.0765,5.0582,5.0545,5.0508,5.0306,4.9793,4.9335,4.9335,4.8802,4.8306,4.8306,4.8306,4.8306,4.8306,4.8306,4.8306,4.8306,4.8306,4.8306,4.8306,4.8306,4.8306,4.8306,4.8306,4.8306,4.8306,4.8306,4.8306,4.8306,4.8306,4.8306,4.8306,4.8306,4.8306,4.8306,4.8306,4.8306,4.8306,4.8306,4.8306,4.8306,4.8306,4.8306,4.8306,4.8306,4.8306,4.8306,4.8306,4.8306,4.8306,4.8306,4.8306,4.8306,4.8306,4.8306,4.8306,4.8306,4.8306,4.8306,4.8306,4.8306,4.8345,4.9046,4.9256,4.9492,4.9492,4.9212,4.9107,4.9449,4.9492,4.9359,4.9032,4.9286,4.9359,4.9015,4.9001,4.9001,4.9001,4.9001,4.9001,4.9001,4.9001,4.9001,4.9001,4.9001,4.9001,4.9001,4.9001,4.9001,4.9001,4.9001,4.9001,4.9001,4.9001,4.9001,4.9001,4.9329,4.9879,5.0581,5.1292,5.197,5.2662,5.3042,5.3185,5.3185,5.3185,5.3185,5.3185,5.3185,5.3185,5.3151,5.2711,5.2289,5.194,5.194,5.194,5.1885,5.1481,5.1371,5.1279,5.0894,5.049,5.016,5.016,4.9829,4.9279,4.8489,4.8306,4.8306,4.8306,4.8306,4.8306,4.8306,4.8306,4.8306,4.8306,4.8306,4.8306,4.8306,4.8306,4.8306,4.8306,4.8306,4.8306,4.8306,4.8306,4.8306,4.8306,4.8306,4.8306,4.8306,4.8306,4.8306,4.8306,4.8306,4.8306,4.8306,4.8306,4.8306,4.8306,4.8306,4.8306,4.8306,4.8306,4.8306,4.8306,4.8306,4.8306,4.8306,4.8306,4.8306,4.8306,4.8306,4.8306,4.8306,4.8306,4.8421,4.8675,4.9479,4.9809,5.0185,5.0185,4.9722,4.9551,5.01,5.0185,4.9993,4.9419,4.9722,4.9809,4.9226,4.9077,4.9001,4.9001,4.9001,4.9001,4.9001,4.9001,4.9001,4.9001,4.9001,4.9001,4.9001,4.9001,4.9001,4.9001,4.9001,4.9001,4.9001,4.9001,4.9063,4.9212,4.9751,5.0472,5.1317,5.1856,5.2531,5.3185,5.3185,5.3185,5.3185,5.3185,5.3185,5.3185,5.3185,5.3185,5.3185,5.3185,5.3185,5.3185,5.3185,5.3185,5.3057,5.2399,5.2197,5.205,5.1389,5.1114,5.1004,5.1004,5.0894,5.0435,4.904,4.8618,4.8489,4.8343,4.8306,4.8306,4.8306,4.8306,4.8306,4.8306,4.8306,4.8306,4.8306,4.8306,4.8306,4.8306,4.8306,4.8306,4.8306,4.8306,4.8306,4.8306,4.8306,4.8306,4.8306,4.8306,4.8306,4.8306,4.8306,4.8306,4.8306,4.8306,4.8306,4.8306,4.8306,4.8306,4.8306,4.8306,4.8306,4.8306,4.8306,4.8306,4.8306,4.8383,4.8402,4.8402,4.8402,4.8402,4.8402,4.8402,4.871,4.9202,5.0823,5.0876,5.0955,5.0955,5.0876,5.085,5.0929,5.0955,5.0929,5.0823,5.0352,4.9976,4.9879,4.9346,4.9001,4.9001,4.9001,4.9001,4.9001,4.9001,4.9001,4.9001,4.9001,4.9001,4.9001,4.9001,4.9001,4.9001,4.9001,4.9001,4.9001,4.9001,4.9316,4.9879,4.9947,5.0725,5.1976,5.2047,5.2531,5.3185,5.3185,5.3185,5.3185,5.3185,5.3185,5.3185,5.3185,5.3185,5.3185,5.3185,5.3185,5.3185,5.3185,5.3185,5.3167,5.3057,5.3041,5.3023,5.2892,5.238,5.183,5.183,5.1316,5.0747,5.0508,4.9921,4.9225,4.8471,4.8306,4.8306,4.8306,4.8306,4.8306,4.8306,4.8306,4.8306,4.8306,4.8306,4.8306,4.8306,4.8306,4.8306,4.8306,4.8306,4.8306,4.8306,4.8306,4.8306,4.8306,4.8306,4.8306,4.8306,4.8306,4.8306,4.8306,4.8306,4.8306,4.8306,4.8306,4.8306,4.8306,4.8306,4.8306,4.8306,4.8306,4.8306,4.8344,4.8675,4.883,4.883,4.883,4.883,4.883,4.883,4.9276,4.9949,5.0079,5.0876,5.1544,5.1164,5.1086,5.1215,5.1593,5.1643,5.1519,5.1138,5.112,5.1016,5.0662,5.0352,5.0022,4.9593,4.9598,4.9598,4.9563,4.9563,4.9563,4.9563,4.9563,4.9389,4.9001,4.9001,4.9001,4.9001,4.9001,4.9001,4.9001,4.9001,4.9359,5.0033,5.0417,5.1189,5.2136,5.2554,5.2915,5.3185,5.3185,5.3185,5.3185,5.3185,5.3185,5.3185,5.3185,5.3185,5.3185,5.3185,5.3185,5.3185,5.3185,5.3185,5.3185,5.3185,5.3185,5.3185,5.3185,5.2949,5.2674,5.2674,5.2399,5.2032,5.1573,5.1187,5.0692,4.9866,4.9334,4.9022,4.9022,4.8636,4.8306,4.8306,4.8306,4.8306,4.8306,4.8306,4.8306,4.8306,4.8306,4.8306,4.8306,4.8306,4.8306,4.8306,4.8306,4.8306,4.8306,4.8306,4.8306,4.8306,4.8306,4.8306,4.8306,4.8306,4.8306,4.8306,4.8532,4.8513,4.8306,4.8306,4.8306,4.8306,4.8306,4.8421,4.8639,4.883,4.9027,4.9234,4.9234,4.9234,4.9265,4.9489,4.98,5.0135]}]]